[[{"header":{"parameterUnit":"m.s-1","parameterCategory":1,"la1":31.0,"la2":29.5877,"lo1":-88.7671,"lo2":-86.6584,"dy":0.0162,"dx":0.0185,"nx":115,"ny":88,"refTime":"2024-11-26T12:00:00:Z","depth":0,"parameterNumber":2,"parameterNumberName":"U-component_of_WINDS"},"data":[0.0,0.0,0.0,0.0,0.0,0.0,0.0,0.0,0.0,0.0,0.0,0.0,0.0,0.0,0.0,0.0,0.0,0.0,0.0,0.0,0.0,0.0,0.0,0.0,0.0,0.0,0.0,0.0,0.0,0.0,0.0,0.0,0.0,0.0,0.0,0.0,0.0,0.0,0.0,0.0,0.0,0.0,0.0,0.0,0.0,0.0,0.0,0.0,0.0,0.0,0.0,0.0,0.0,0.0,0.0,0.0,0.0,0.0,0.0,0.0,0.0,0.0,0.0,0.0,0.0,0.0,0.0,0.0,0.0,0.0,0.0,0.0,0.0,0.0,0.0,0.0,0.0,0.0,0.0,0.0,0.0,0.0,0.0,0.0,0.0,0.0,0.0,0.0,0.0,0.0,0.0,0.0,0.0,0.0,0.0,0.0,0.0,0.0,0.0,0.0,0.0,0.0,0.0,0.0,0.0,0.0,0.0,0.0,0.0,0.0,0.0,0.0,0.0,0.0,0.0,0.0,0.0,0.0,0.0,0.0,0.0,0.0,0.0,0.0,0.0,0.0,0.0,0.0,0.0,0.0,0.0,0.0,0.0,0.0,0.0,0.0,0.0,0.0,0.0,0.0,0.0,0.0,0.0,0.0,0.0,0.0,0.0,0.0,0.0,0.0,0.0,0.0,0.0,0.0,0.0,0.0,0.0,0.0,0.0,0.0,0.0,0.0,0.0,0.0,0.0,0.0,0.0,0.0,0.0,0.0,0.0,0.0,0.0,0.0,0.0,0.0,0.0,0.0,0.0,0.0,0.0,0.0,0.0,0.0,0.0,0.0,0.0,0.0,0.0,0.0,0.0,0.0,0.0,0.0,0.0,0.0,0.0,0.0,0.0,0.0,0.0,0.0,0.0,0.0,0.0,0.0,0.0,0.0,0.0,0.0,0.0,0.0,0.0,0.0,0.0,0.0,0.0,0.0,0.0,0.0,0.0,0.0,0.0,0.0,0.0,0.0,0.0,0.0,0.0,0.0,0.0,0.0,0.0,0.0,0.0,0.0,0.0,0.0,0.0,0.0,0.0,0.0,0.0,0.0,0.0,0.0,0.0,0.0,0.0,0.0,0.0,0.0,0.0,0.0,0.0,0.0,0.0,0.0,0.0,0.0,0.0,0.0,0.0,0.0,0.0,0.0,0.0,0.0,0.0,0.0,0.0,0.0,0.0,0.0,0.0,0.0,0.0,0.0,0.0,0.0,0.0,0.0,0.0,0.0,0.0,0.0,0.0,0.0,0.0,0.0,0.0,0.0,0.0,0.0,0.0,0.0,0.0,0.0,0.0,0.0,0.0,0.0,0.0,0.0,0.0,0.0,0.0,0.0,0.0,0.0,0.0,0.0,0.0,0.0,0.0,0.0,0.0,0.0,0.0,0.0,0.0,0.0,0.0,0.0,0.0,0.0,0.0,0.0,0.0,0.0,0.0,0.0,0.0,0.0,0.0,0.0,0.0,0.0,0.0,0.0,0.0,0.0,0.0,0.0,0.0,0.0,0.0,0.0,0.0,0.0,0.0,0.0,0.0,0.0,0.0,0.0,0.0,0.0,0.0,0.0,0.0,0.0,0.0,0.0,0.0,0.0,0.0,0.0,0.0,0.0,0.0,0.0,0.0,0.0,0.0,0.0,0.0,0.0,0.0,0.0,0.0,0.0,0.0,0.0,0.0,0.0,0.0,0.0,0.0,0.0,0.0,0.0,0.0,0.0,0.0,0.0,0.0,0.0,0.0,0.0,0.0,0.0,0.0,0.0,0.0,0.0,0.0,0.0,0.0,0.0,0.0,0.0,0.0,0.0,0.0,0.0,0.0,0.0,0.0,0.0,0.0,0.0,0.0,0.0,0.0,0.0,0.0,0.0,0.0,0.0,0.0,0.0,0.0,0.0,0.0,0.0,0.0,0.0,0.0,0.0,0.0,0.0,0.0,0.0,0.0,0.0,0.0,0.0,0.0,0.0,0.0,0.0,0.0,0.0,0.0,0.0,0.0,0.0,0.0,0.0,0.0,0.0,0.0,0.0,0.0,0.0,0.0,0.0,0.0,0.0,0.0,0.0,0.0,0.0,0.0,0.0,0.0,0.0,0.0,0.0,0.0,0.0,0.0,0.0,0.0,0.0,0.0,0.0,0.0,0.0,0.0,0.0,0.0,0.0,0.0,0.0,0.0,0.0,0.0,0.0,0.0,0.0,0.0,0.0,0.0,0.0,0.0,0.0,0.0,0.0,0.0,0.0,0.0,0.0,0.0,0.0,0.0,0.0,0.0,0.0,0.0,0.0,0.0,0.0,0.0,0.0,0.0,0.0,0.0,0.0,0.0,0.0,0.0,0.0,0.0,0.0,0.0,0.0,0.0,0.0,0.0,0.0,0.0,0.0,0.0,0.0,0.0,0.0,0.0,0.0,0.0,0.0,0.0,0.0,0.0,0.0,0.0,0.0,0.0,0.0,0.0,0.0,0.0,0.0,0.0,0.0,0.0,0.0,0.0,0.0,0.0,0.0,0.0,0.0,0.0,0.0,0.0,0.0,0.0,0.0,0.0,0.0,0.0,0.0,0.0,0.0,0.0,0.0,0.0,0.0,0.0,0.0,0.0,0.0,0.0,0.0,0.0,0.0,0.0,0.0,0.0,0.0,0.0,0.0,0.0,0.0,0.0,0.0,0.0,0.0,0.0,0.0,0.0,0.0,0.0,0.0,0.0,0.0,0.0,0.0,0.0,0.0,0.0,0.0,0.0,0.0,0.0,0.0,0.0,0.0,0.0,0.0,0.0,0.0,0.0,0.0,0.0,0.0,0.0,0.0,0.0,0.0,0.0,0.0,0.0,0.0,0.0,0.0,0.0,0.0,0.0,0.0,0.0,0.0,0.0,0.0,0.0,0.0,0.0,0.0,0.0,0.0,0.0,0.0,0.0,0.0,0.0,0.0,0.0,0.0,0.0,0.0,0.0,0.0,0.0,0.0,0.0,0.0,0.0,0.0,0.0,0.0,0.0,0.0,0.0,0.0,0.0,0.0,0.0,0.0,0.0,0.0,0.0,0.0,0.0,0.0,0.0,0.0,0.0,0.0,0.0,0.0,0.0,0.0,0.0,0.0,0.0,0.0,0.0,0.0,0.0,0.0,0.0,0.0,0.0,0.0,0.0,0.0,0.0,0.0,0.0,0.0,0.0,0.0,0.0,0.0,0.0,0.0,0.0,0.0,0.0,0.0,0.0,0.0,0.0,0.0,0.0,0.0,0.0,0.0,0.0,0.0,0.0,0.0,0.0,0.0,0.0,0.0,0.0,0.0,0.0,0.0,0.0,0.0,0.0,0.0,0.0,0.0,0.0,0.0,0.0,0.0,0.0,0.0,0.0,0.0,0.0,0.0,0.0,0.0,0.0,0.0,0.0,0.0,0.0,0.0,0.0,0.0,0.0,0.0,0.0,0.0,0.0,0.0,0.0,0.0,0.0,0.0,0.0,0.0,0.0,0.0,0.0,0.0,0.0,0.0,0.0,0.0,0.0,0.0,0.0,0.0,0.0,0.0,0.0,0.0,0.0,0.0,0.0,0.0,0.0,0.0,0.0,0.0,0.0,0.0,0.0,0.0,0.0,0.0,0.0,0.0,0.0,0.0,0.0,0.0,0.0,0.0,0.0,0.0,0.0,0.0,0.0,0.0,0.0,0.0,0.0,0.0,0.0,0.0,0.0,0.0,0.0,0.0,0.0,0.0,0.0,0.0,0.0,0.0,0.0,0.0,0.0,0.0,0.0,0.0,0.0,0.0,0.0,0.0,0.0,0.0,0.0,0.0,0.0,0.0,0.0,0.0,0.0,0.0,0.0,0.0,0.0,0.0,0.0,0.0,0.0,0.0,0.0,0.0,0.0,0.0,0.0,0.0,0.0,0.0,0.0,0.0,0.0,0.0,0.0,0.0,0.0,0.0,0.0,0.0,0.0,0.0,0.0,0.0,0.0,0.0,0.0,0.0,0.0,0.0,0.0,0.0,0.0,0.0,0.0,0.0,0.0,0.0,0.0,0.0,0.0,0.0,0.0,0.0,0.0,0.0,0.0,0.0,0.0,0.0,0.0,0.0,0.0,0.0,0.0,0.0,0.0,0.0,0.0,0.0,0.0,0.0,0.0,0.0,0.0,0.0,0.0,0.0,0.0,0.0,0.0,0.0,0.0,0.0,0.0,0.0,0.0,0.0,0.0,0.0,0.0,0.0,0.0,0.0,0.0,0.0,0.0,0.0,0.0,0.0,1.1621,0.0,0.0,0.0,0.0,0.0,0.0,0.0,0.0,0.0,0.0,0.0,0.0,0.0,0.0,0.0,0.0,0.0,0.0,0.0,0.0,0.0,0.0,0.0,0.0,0.0,0.0,0.0,0.0,0.0,0.0,0.0,0.0,0.0,0.0,0.0,0.0,0.0,0.0,0.0,0.0,0.0,0.0,0.0,0.0,0.0,0.0,0.0,0.0,0.0,0.0,0.0,0.0,0.0,0.0,0.0,0.0,0.0,0.0,0.0,0.0,0.0,0.0,0.0,0.0,0.0,0.0,0.0,0.0,0.0,0.0,0.0,0.0,0.0,0.0,0.0,0.0,0.0,0.0,0.0,0.0,0.0,0.0,0.0,0.0,0.0,0.0,0.0,0.0,0.0,0.0,0.0,0.0,0.0,0.0,0.0,0.0,0.0,0.0,0.0,0.0,0.0,0.0,0.0,0.0,0.0,0.0,0.0,0.0,0.0,0.0,1.5215,1.4785,1.3555,1.2715,1.2324,0.0,0.0,0.0,0.0,0.0,0.0,0.0,0.0,0.0,0.0,0.0,0.0,0.0,0.0,0.0,0.0,0.0,0.0,0.0,0.0,0.0,0.0,0.0,0.0,0.0,0.0,0.0,0.0,0.0,0.0,0.0,0.0,0.0,0.0,0.0,0.0,0.0,0.0,0.0,0.0,0.0,0.0,0.0,0.0,0.0,0.0,0.0,0.0,0.0,0.0,0.0,0.0,0.0,0.0,0.0,0.0,0.0,0.0,0.0,0.0,0.0,0.0,0.0,0.0,0.0,0.0,0.0,0.0,0.0,0.0,0.0,0.0,0.0,0.0,0.0,0.0,0.0,0.0,0.0,0.0,0.0,0.0,0.0,0.0,0.0,0.0,0.0,0.0,0.0,0.0,0.0,0.0,0.0,0.0,0.0,0.0,0.0,0.0,0.0,0.0,0.0,0.0,0.0,0.0,0.0,0.0,0.0,0.0,0.0,0.0,0.0,0.0,1.4551,1.3671,1.3473,0.0,0.0,0.0,0.0,0.0,0.0,0.0,0.0,0.0,0.0,0.0,0.0,0.0,0.0,0.0,0.0,0.0,0.0,0.0,0.0,0.0,0.0,0.0,0.0,0.0,0.0,0.0,0.0,0.0,0.0,0.0,0.0,0.0,0.0,0.0,0.0,0.0,0.0,0.0,0.0,0.0,0.0,0.0,0.0,0.0,0.0,0.0,0.0,0.0,0.0,0.0,0.0,0.0,0.0,0.0,0.0,0.0,0.0,0.0,0.0,0.0,0.0,0.0,0.0,0.0,0.0,0.0,0.0,0.0,0.0,0.0,0.0,0.0,0.0,0.0,0.0,0.0,0.0,0.0,0.0,0.0,0.0,0.0,0.0,0.0,0.0,0.0,0.0,0.0,0.0,0.0,0.0,0.0,0.0,0.0,0.0,0.0,0.0,0.0,0.0,0.0,0.0,0.0,0.0,0.0,0.0,0.0,0.0,0.0,0.0,1.6172,1.7695,1.6836,0.0,1.5246,0.0,0.0,0.0,0.0,0.0,0.0,0.0,0.0,0.0,0.0,0.0,0.0,0.0,0.0,0.0,0.0,0.0,0.0,0.0,0.0,0.0,0.0,0.0,0.0,0.0,0.0,0.0,0.0,0.0,0.0,0.0,0.0,0.0,0.0,0.0,0.0,0.0,0.0,0.0,0.0,0.0,0.0,0.0,0.0,0.0,0.0,0.0,0.0,0.0,0.0,0.0,0.0,0.0,0.0,0.0,0.0,0.0,0.0,0.0,0.0,0.0,0.0,0.0,0.0,0.0,0.0,0.0,0.0,0.0,0.0,0.0,0.0,0.0,0.0,0.0,0.0,0.0,0.0,0.0,0.0,0.0,0.0,0.0,0.0,0.0,0.0,0.0,0.0,0.0,0.0,0.0,0.0,0.0,0.0,0.0,0.0,0.0,0.0,0.0,0.0,0.0,0.0,0.0,0.0,0.0,0.0,0.0,0.0,0.0,0.0,1.7285,1.7988,1.6651,1.5763,0.0,0.0,0.0,0.0,0.0,0.0,0.0,0.0,0.0,0.0,0.0,0.0,0.0,0.0,0.0,0.0,0.0,0.0,0.0,0.0,0.0,0.0,0.0,0.0,0.0,0.0,0.0,0.0,0.0,0.0,0.0,0.0,0.0,0.0,0.0,0.0,0.0,0.0,0.0,0.0,0.0,0.0,0.0,0.0,0.0,0.0,0.0,0.0,0.0,0.0,0.0,0.0,0.0,0.0,0.0,0.0,0.0,0.0,0.0,0.0,0.0,0.0,0.0,0.0,0.0,0.0,0.0,0.0,0.0,0.0,0.0,0.0,0.0,0.0,0.0,0.0,0.0,0.0,0.0,0.0,0.0,0.0,0.0,0.0,0.0,0.0,0.0,0.0,0.0,0.0,0.0,0.0,0.0,0.0,0.0,0.0,0.0,0.0,0.0,0.0,0.0,0.0,0.0,0.0,0.0,0.0,0.0,0.0,0.0,0.0,1.7589,1.809,1.826,1.7097,1.6015,1.5076,0.0,0.0,0.0,0.0,0.0,0.0,0.0,0.0,0.0,0.0,0.0,0.0,0.0,0.0,0.0,0.0,0.0,0.0,0.0,0.0,0.0,0.0,0.0,0.0,0.0,0.0,0.0,0.0,0.0,0.0,0.0,0.0,0.0,0.0,0.0,0.0,0.0,0.0,0.0,0.0,0.0,0.0,0.0,0.0,0.0,0.0,0.0,0.0,0.0,0.0,0.0,0.0,0.0,0.0,0.0,0.0,0.0,0.0,0.0,0.0,0.0,0.0,0.0,0.0,0.0,0.0,0.0,0.0,0.0,0.0,0.0,0.0,0.0,0.0,0.0,0.0,0.0,0.0,0.0,0.0,0.0,0.0,0.0,0.0,0.0,0.0,0.0,0.0,0.0,0.0,0.0,0.0,0.0,0.0,0.0,0.0,0.0,0.0,0.0,0.0,0.0,0.0,0.0,0.0,0.0,0.0,0.0,0.0,0.0,1.8702,1.8303,1.9164,1.9051,1.7492,0.0,0.0,0.0,0.0,0.0,0.0,0.0,0.0,0.0,0.0,0.0,0.0,0.0,0.0,0.0,0.0,0.0,0.0,0.0,0.0,0.0,0.0,0.0,0.0,0.0,0.0,0.0,0.0,0.0,0.0,0.0,0.0,0.0,0.0,0.0,0.0,0.0,0.0,0.0,0.0,0.0,0.0,0.0,0.0,0.0,0.0,0.0,0.0,0.0,0.0,0.0,0.0,0.0,0.0,0.0,0.0,0.0,0.0,0.0,0.0,0.0,0.0,0.0,0.0,0.0,0.0,0.0,0.0,0.0,0.0,0.0,0.0,0.0,0.0,0.0,0.0,0.0,0.0,0.0,0.0,0.0,0.0,0.0,0.0,0.0,0.0,0.0,0.0,0.0,0.0,0.0,0.0,0.0,0.0,0.0,0.0,0.0,0.0,0.0,0.0,0.0,0.0,0.0,0.0,0.0,0.0,0.0,0.0,0.0,1.7155,1.7173,1.8574,2.1345,1.7943,1.6109,0.0,0.0,0.0,0.0,0.0,0.0,0.0,0.0,0.0,0.0,0.0,0.0,0.0,0.0,0.0,0.0,0.0,0.0,0.0,0.0,0.0,0.0,0.0,0.0,0.0,0.0,0.0,0.0,0.0,0.0,0.0,0.0,0.0,0.0,0.0,0.0,0.0,0.0,0.0,0.0,0.0,0.0,0.0,0.0,0.0,0.0,0.0,0.0,0.0,0.0,0.0,0.0,0.0,0.0,0.0,0.0,0.0,0.0,0.0,0.0,0.0,0.0,0.0,0.0,0.0,0.0,0.0,0.0,0.0,0.0,0.0,0.0,0.0,0.0,0.0,0.0,0.0,0.0,0.0,0.0,0.0,0.0,0.0,0.0,0.0,0.0,0.0,0.0,0.0,0.0,0.0,0.0,0.0,0.0,0.0,0.0,0.0,0.0,0.0,0.0,0.0,0.0,0.0,0.0,0.0,0.0,0.0,0.0,0.0,1.6962,0.0,1.9301,0.0,1.7428,1.534,0.0,0.0,0.0,0.0,0.0,0.0,0.0,0.0,0.0,0.0,0.0,0.0,0.0,0.0,0.0,0.0,0.0,0.0,0.0,0.0,0.0,0.0,0.0,0.0,0.0,0.0,0.0,0.0,0.0,0.0,0.0,0.0,0.0,0.0,0.0,0.0,0.0,0.0,0.0,0.0,0.0,0.0,0.0,0.0,0.0,0.0,0.0,0.0,0.0,0.0,0.0,0.0,0.0,0.0,0.0,0.0,0.0,0.0,0.0,0.0,0.0,0.0,0.0,0.0,0.0,0.0,0.0,0.0,0.0,0.0,0.0,0.0,0.0,0.0,0.0,0.0,0.0,0.0,0.0,0.0,0.0,0.0,0.0,0.0,0.0,0.0,0.0,0.0,0.0,0.0,0.0,0.0,0.0,0.0,0.0,0.0,0.0,0.0,0.0,0.0,0.0,0.0,0.0,0.0,0.0,0.0,0.0,0.0,1.7019,2.0149,2.1067,2.0382,1.8027,1.7768,1.5397,0.0,0.0,0.0,0.0,0.0,0.0,0.0,0.0,0.0,0.0,0.0,0.0,0.0,0.0,0.0,0.0,0.0,0.0,0.0,0.0,0.0,0.0,0.0,0.0,0.0,0.0,0.0,0.0,0.0,0.0,0.0,0.0,0.0,0.0,0.0,0.0,0.0,0.0,0.0,0.0,0.0,0.0,0.0,0.0,0.0,0.0,0.0,0.0,0.0,0.0,0.0,0.0,0.0,0.0,0.0,0.0,0.0,0.0,0.0,0.0,0.0,0.0,0.0,0.0,0.0,0.0,0.0,0.0,0.0,0.0,0.0,0.0,0.0,0.0,0.0,0.0,0.0,0.0,0.0,0.0,0.0,0.0,0.0,0.0,0.0,0.0,0.0,0.0,0.0,0.0,0.0,0.0,0.0,0.0,0.0,0.0,0.0,0.0,0.0,0.0,0.0,0.0,0.0,0.0,0.0,0.0,0.0,0.0,0.0,1.7809,1.9175,2.037,2.116,1.7864,1.5824,0.0,0.0,0.0,0.0,0.0,0.0,0.0,0.0,0.0,0.0,0.0,0.0,0.0,0.0,0.0,0.0,0.0,0.0,0.0,0.0,0.0,0.0,0.0,0.0,0.0,0.0,0.0,0.0,0.0,0.0,0.0,0.0,0.0,0.0,0.0,0.0,0.0,0.0,0.0,0.0,0.0,0.0,0.0,0.0,0.0,0.0,0.0,0.0,0.0,0.0,0.0,0.0,0.0,0.0,0.0,0.0,0.0,0.0,0.0,0.0,0.0,0.0,0.0,0.0,0.0,0.0,0.0,0.0,0.0,0.0,0.0,0.0,0.0,0.0,0.0,0.0,0.0,0.0,0.0,0.0,0.0,0.0,0.0,0.0,0.0,0.0,0.0,0.0,0.0,0.0,0.0,0.0,0.0,0.0,0.0,0.0,0.0,0.0,0.0,0.0,0.0,0.0,0.0,0.0,0.0,0.0,0.0,0.0,0.0,1.9512,2.0759,2.1918,2.2876,1.9123,1.7002,1.6764,0.0,0.0,0.0,0.0,0.0,0.0,0.0,0.0,0.0,0.0,0.0,0.0,0.0,0.0,0.0,0.0,0.0,0.0,0.0,0.0,0.0,0.0,0.0,0.0,0.0,0.0,0.0,0.0,0.0,0.0,0.0,0.0,0.0,0.0,0.0,0.0,0.0,0.0,0.0,0.0,0.0,0.0,0.0,0.0,0.0,0.0,0.0,0.0,0.0,0.0,0.0,0.0,0.0,0.0,0.0,0.0,0.0,0.0,0.0,0.0,0.0,0.0,0.0,0.0,0.0,0.0,0.0,0.0,0.0,0.0,0.0,0.0,0.0,0.0,0.0,0.0,0.0,0.0,0.0,0.0,0.0,0.0,0.0,0.0,0.0,0.0,0.0,0.0,0.0,0.0,0.0,0.0,0.0,0.0,0.0,0.0,0.0,0.0,0.0,0.0,0.0,0.0,0.0,0.0,0.0,0.0,0.0,0.0,2.4316,2.518,2.4808,2.3159,2.1367,1.8854,0.0,0.0,0.0,0.0,0.0,0.0,0.0,0.0,0.0,0.0,0.0,0.0,0.0,0.0,0.0,0.0,0.0,0.0,0.0,0.0,0.0,0.0,0.0,0.0,0.0,0.0,0.0,0.0,0.0,0.0,0.0,0.0,0.0,0.0,0.0,0.0,0.0,0.0,0.0,0.0,0.0,0.0,0.0,0.0,0.0,0.0,0.0,0.0,0.0,0.0,0.0,0.0,0.0,0.0,0.0,0.0,0.0,0.0,0.0,0.0,0.0,0.0,0.0,0.0,0.0,0.0,0.0,0.0,0.0,0.0,0.0,0.0,0.0,0.0,0.0,0.0,0.0,0.0,0.0,0.0,0.0,0.0,0.0,0.0,0.0,0.0,0.0,0.0,0.0,0.0,0.0,0.0,0.0,0.0,0.0,0.0,0.0,0.0,0.0,0.0,0.0,0.0,0.0,0.0,0.0,0.0,0.0,0.0,0.0,2.6852,2.7219,2.6815,2.5631,2.3372,2.0857,0.0,0.0,0.0,0.0,0.0,0.0,0.0,0.0,0.0,0.0,0.0,0.0,0.0,0.0,0.0,0.0,0.0,0.0,0.0,0.0,0.0,0.0,0.0,0.0,0.0,0.0,0.0,0.0,0.0,0.0,0.0,0.0,0.0,0.0,0.0,0.0,0.0,0.0,0.0,0.0,0.0,0.0,0.0,0.0,0.0,0.0,0.0,0.0,0.0,0.0,0.0,0.0,0.0,0.0,0.0,0.0,0.0,0.0,0.0,0.0,0.0,0.0,0.0,0.0,0.0,0.0,0.0,0.0,0.0,0.0,0.0,0.0,0.0,0.0,0.0,0.0,0.0,0.0,0.0,0.0,0.0,0.0,0.0,0.0,0.0,0.0,0.0,0.0,0.0,0.0,0.0,0.0,0.0,0.0,0.0,0.0,0.0,0.0,0.0,0.0,0.0,0.0,0.0,0.0,0.0,0.0,0.0,0.0,2.631,2.8975,2.9692,2.9482,2.8234,2.5737,2.304,0.0,0.0,0.0,0.0,0.0,0.0,0.0,0.0,0.0,0.0,0.0,0.0,0.0,0.0,0.0,0.0,0.0,0.0,0.0,0.0,0.0,0.0,0.0,0.0,0.0,0.0,0.0,0.0,0.0,0.0,0.0,0.0,0.0,0.0,0.0,0.0,0.0,0.0,0.0,0.0,0.0,0.0,0.0,0.0,0.0,0.0,0.0,0.0,0.0,0.0,0.0,0.0,0.0,0.0,0.0,0.0,0.0,0.0,0.0,0.0,0.0,0.0,0.0,0.0,0.0,0.0,0.0,0.0,0.0,0.0,0.0,0.0,0.0,0.0,0.0,0.0,0.0,0.0,0.0,0.0,0.0,0.0,0.0,0.0,0.0,0.0,0.0,0.0,0.0,0.0,0.0,0.0,0.0,0.0,0.0,0.0,0.0,0.0,0.0,0.0,0.0,0.0,0.0,0.0,0.0,0.0,0.0,0.0,2.8758,3.0506,3.2082,3.2199,3.0679,2.8119,2.5139,0.0,0.0,0.0,0.0,0.0,0.0,0.0,0.0,0.0,0.0,0.0,0.0,0.0,0.0,0.0,0.0,0.0,0.0,0.0,0.0,0.0,0.0,0.0,0.0,0.0,0.0,0.0,0.0,0.0,0.0,0.0,0.0,0.0,0.0,0.0,0.0,0.0,0.0,0.0,0.0,0.0,0.0,0.0,0.0,0.0,0.0,0.0,0.0,0.0,0.0,0.0,0.0,0.0,0.0,0.0,0.0,0.0,0.0,0.0,0.0,0.0,0.0,0.0,0.0,0.0,0.0,0.0,0.0,0.0,0.0,0.0,0.0,0.0,0.0,0.0,0.0,0.0,0.0,0.0,0.0,0.0,0.0,0.0,0.0,0.0,0.0,0.0,0.0,0.0,0.0,0.0,0.0,0.0,0.0,0.0,0.0,0.0,0.0,0.0,0.0,0.0,0.0,0.0,0.0,0.0,0.0,0.0,0.0,2.9043,3.1368,3.2384,3.2751,3.2429,2.9311,2.6027,0.0,0.0,0.0,0.0,0.0,0.0,0.0,0.0,0.0,0.0,0.0,0.0,0.0,0.0,0.0,0.0,0.0,0.0,0.0,0.0,0.0,0.0,0.0,0.0,0.0,0.0,0.0,0.0,0.0,0.0,0.0,0.0,0.0,0.0,0.0,0.0,0.0,0.0,0.0,0.0,0.0,0.0,0.0,0.0,0.0,0.0,0.0,0.0,1.5653,0.0,0.0,0.0,0.0,0.0,0.0,0.0,0.0,0.0,0.0,0.0,0.0,0.0,0.0,0.0,0.0,0.0,0.0,0.0,0.0,0.0,0.0,0.0,0.0,0.0,0.0,0.0,0.0,0.0,0.0,0.0,0.0,0.0,0.0,0.0,0.0,0.0,0.0,0.0,0.0,0.0,0.0,0.0,0.0,0.0,0.0,0.0,0.0,0.0,0.0,0.0,0.0,0.0,0.0,0.0,0.0,0.0,0.0,0.0,3.0745,3.2805,3.3688,3.3745,3.29,3.0438,2.7292,0.0,0.0,0.0,0.0,0.0,0.0,0.0,0.0,0.0,0.0,0.0,0.0,0.0,0.0,0.0,0.0,0.0,0.0,0.0,0.0,0.0,0.0,0.0,0.0,0.0,0.0,0.0,0.0,0.0,0.0,0.0,0.0,0.0,0.0,0.0,0.0,0.0,0.0,0.0,0.0,0.0,0.0,0.0,0.0,0.0,0.0,0.0,0.0,0.0,0.0,0.0,0.0,0.0,0.0,0.0,0.0,0.0,0.0,0.0,0.0,0.0,0.0,0.0,0.0,0.0,0.0,0.0,0.0,0.0,0.0,0.0,0.0,0.0,0.0,0.0,0.0,0.0,0.0,0.0,0.0,0.0,0.0,0.0,0.0,0.0,0.0,0.0,0.0,0.0,0.0,0.0,0.0,0.0,0.0,0.0,0.0,0.0,0.0,0.0,0.0,0.0,0.0,0.0,0.0,0.0,0.0,0.0,2.9476,3.2248,3.4148,3.5042,3.4673,3.2928,3.1272,2.8485,2.4454,0.0,0.0,0.0,0.0,0.0,0.0,0.0,0.0,0.0,0.0,0.0,0.0,0.0,0.0,0.0,0.0,0.0,0.0,0.0,0.0,0.0,0.0,0.0,0.0,0.0,0.0,0.0,0.0,0.0,0.0,0.0,0.0,0.0,0.0,0.0,0.0,0.0,0.0,1.373,1.6602,0.0,0.0,0.0,0.0,0.0,0.0,0.0,0.0,1.8229,0.0,0.0,0.0,0.0,0.0,0.0,0.0,0.0,0.0,0.0,0.0,0.0,0.0,0.0,0.0,0.0,0.0,0.0,0.0,0.0,0.0,0.0,0.0,0.0,0.0,0.0,0.0,0.0,0.0,0.0,0.0,0.0,0.0,0.0,0.0,0.0,0.0,0.0,0.0,0.0,0.0,0.0,0.0,0.0,0.0,0.0,0.0,0.0,0.0,0.0,0.0,0.0,0.0,0.0,0.0,0.0,2.8391,2.9187,3.1056,3.4125,3.5061,3.4675,3.2949,3.1272,2.8731,2.5194,0.0,0.0,0.0,0.0,0.0,0.0,0.0,0.0,0.0,0.0,0.0,0.0,0.0,0.0,0.0,0.0,0.0,0.0,0.0,0.0,0.0,0.0,0.0,0.0,0.0,0.0,0.0,0.0,0.0,0.0,0.0,0.0,0.0,0.0,0.0,0.0,0.0,0.0,0.0,1.998,2.1309,0.0,0.0,0.0,0.0,0.0,0.0,0.0,0.0,1.8437,0.0,0.0,0.0,0.0,0.0,0.0,0.0,0.0,0.0,0.0,0.0,0.0,0.0,0.0,0.0,0.0,0.0,0.0,0.0,0.0,0.0,0.0,0.0,0.0,0.0,0.0,0.0,0.0,0.0,0.0,0.0,0.0,0.0,0.0,0.0,0.0,0.0,0.0,0.0,0.0,0.0,0.0,0.0,0.0,0.0,0.0,0.0,0.0,0.0,0.0,0.0,0.0,0.0,0.0,0.0,2.828,3.022,3.2355,3.4776,3.5292,3.4676,3.2928,3.0851,2.8332,0.0,0.0,0.0,0.0,0.0,0.0,0.0,0.0,0.0,0.0,0.0,0.0,0.0,0.0,0.0,0.0,0.0,0.0,0.0,0.0,0.0,0.0,0.0,0.0,0.0,0.0,0.0,0.0,0.0,0.0,0.0,0.0,0.0,0.0,0.0,0.0,0.0,0.0,0.0,0.0,2.1445,2.2695,2.3144,0.0,0.0,0.0,0.0,0.0,0.0,2.0529,1.9385,0.0,0.0,0.0,0.0,0.0,0.0,0.0,0.0,0.0,0.0,0.0,0.0,0.0,0.0,0.0,0.0,0.0,0.0,0.0,0.0,0.0,0.0,0.0,0.0,0.0,0.0,0.0,0.0,0.0,0.0,0.0,0.0,0.0,0.0,0.0,0.0,0.0,0.0,0.0,0.0,0.0,0.0,0.0,0.0,0.0,0.0,0.0,0.0,0.0,0.0,0.0,0.0,0.0,0.0,0.0,2.7838,3.092,3.3476,3.5386,3.5502,3.4676,3.2929,3.0584,2.8007,0.0,0.0,0.0,0.0,0.0,0.0,0.0,0.0,0.0,0.0,0.0,0.0,0.0,0.0,0.0,0.0,0.0,0.0,0.0,0.0,0.0,0.0,0.0,0.0,0.0,0.0,0.0,0.0,0.0,0.0,0.0,0.0,0.0,0.0,0.0,0.0,0.0,0.0,0.0,0.0,0.0,2.4023,2.4355,2.3808,0.0,0.0,0.0,0.0,2.3524,2.2669,0.0,0.0,0.0,0.0,0.0,0.0,0.0,0.0,0.0,0.0,0.0,0.0,0.0,0.0,0.0,0.0,0.0,0.0,0.0,0.0,0.0,0.0,0.0,0.0,0.0,0.0,0.0,0.0,0.0,0.0,0.0,0.0,0.0,0.0,0.0,0.0,0.0,0.0,0.0,0.0,0.0,0.0,0.0,0.0,0.0,0.0,0.0,0.0,0.0,0.0,0.0,0.0,0.0,0.0,0.0,0.0,2.774,2.9738,3.2255,3.5309,3.5502,3.4676,3.2929,3.1175,2.8371,0.0,0.0,0.0,0.0,0.0,0.0,0.0,0.0,0.0,0.0,0.0,0.0,0.0,0.0,0.0,0.0,0.0,0.0,0.0,0.0,0.0,0.0,0.0,0.0,0.0,0.0,0.0,0.0,0.0,0.0,0.0,0.0,0.0,0.0,0.0,0.0,0.0,0.0,0.0,0.0,0.0,2.6035,2.4609,2.43,2.4451,0.0,0.0,2.5254,2.6209,2.6713,0.0,0.0,0.0,0.0,0.0,0.0,0.0,0.0,0.0,0.0,0.0,0.0,0.0,0.0,0.0,0.0,0.0,0.0,0.0,0.0,0.0,0.0,0.0,0.0,0.0,0.0,0.0,0.0,0.0,0.0,0.0,0.0,0.0,0.0,0.0,0.0,0.0,0.0,0.0,0.0,0.0,0.0,0.0,0.0,0.0,0.0,0.0,0.0,0.0,0.0,0.0,0.0,0.0,0.0,0.0,2.3756,2.7818,3.0041,3.2538,3.5346,3.5003,3.4178,3.2912,3.0793,2.7913,0.0,0.0,0.0,0.0,0.0,0.0,0.0,0.0,0.0,0.0,0.0,0.0,0.0,0.0,0.0,0.0,0.0,0.0,0.0,0.0,0.0,0.0,0.0,0.0,0.0,0.0,0.0,0.0,0.0,0.0,0.0,0.0,0.0,0.0,0.0,0.0,0.0,0.0,0.0,0.0,0.0,0.0,2.6582,2.6968,0.0,0.0,0.0,2.7367,2.8689,0.0,0.0,0.0,0.0,0.0,0.0,0.0,0.0,0.0,0.0,0.0,0.0,0.0,0.0,0.0,0.0,0.0,0.0,0.0,0.0,0.0,0.0,0.0,0.0,0.0,0.0,0.0,0.0,0.0,0.0,0.0,0.0,0.0,0.0,0.0,0.0,0.0,0.0,0.0,0.0,0.0,0.0,0.0,0.0,0.0,0.0,0.0,0.0,0.0,0.0,0.0,0.0,0.0,0.0,0.0,0.0,0.0,2.7854,3.0411,3.2715,3.4731,3.4433,3.3702,3.2602,3.0528,0.0,0.0,0.0,0.0,0.0,0.0,0.0,0.0,0.0,0.0,0.0,0.0,0.0,0.0,0.0,0.0,0.0,0.0,0.0,0.0,0.0,0.0,0.0,0.0,0.0,0.0,0.0,1.0528,0.0,0.0,0.0,0.0,0.0,0.0,0.0,0.0,0.0,0.0,0.0,0.0,0.0,0.0,2.7757,2.8144,2.9283,3.0064,0.0,0.0,2.962,3.0632,2.9519,2.7561,0.0,0.0,0.0,0.0,0.0,0.0,0.0,0.0,0.0,0.0,0.0,0.0,0.0,0.0,0.0,0.0,0.0,0.0,0.0,0.0,0.0,0.0,0.0,0.0,0.0,0.0,0.0,0.0,0.0,0.0,0.0,0.0,0.0,0.0,0.0,0.0,0.0,0.0,0.0,0.0,0.0,0.0,0.0,0.0,0.0,0.0,0.0,0.0,0.0,0.0,0.0,0.0,0.0,0.0,2.449,2.7835,3.0411,3.2141,3.3083,3.3816,3.3414,3.183,3.0827,2.7983,0.0,0.0,0.0,0.0,0.0,0.0,0.0,0.0,0.0,0.0,0.0,0.0,0.0,0.0,0.0,0.0,0.0,0.0,0.0,0.0,0.0,0.0,0.0,0.0,0.0,0.0,0.0,0.0,0.0,0.0,0.0,0.0,0.0,0.0,0.0,0.0,0.0,0.0,0.0,0.0,0.0,2.9063,2.8317,3.0224,3.1725,0.0,3.2229,3.2429,3.1713,3.2768,3.1759,2.6142,0.0,0.0,0.0,0.0,0.0,0.0,0.0,0.0,0.0,0.0,0.0,0.0,0.0,0.0,0.0,0.0,0.0,0.0,0.0,0.0,0.0,0.0,0.0,0.0,0.0,0.0,0.0,0.0,0.0,0.0,0.0,0.0,0.0,0.0,0.0,0.0,0.0,0.0,0.0,0.0,0.0,0.0,0.0,0.0,0.0,0.0,0.0,0.0,0.0,0.0,0.0,0.0,0.0,2.4489,2.7836,2.989,3.1812,3.3606,3.349,3.3104,3.2466,3.1004,2.8306,0.0,0.0,0.0,0.0,0.0,0.0,0.0,0.0,0.0,0.0,0.0,0.0,0.0,0.0,0.0,0.0,0.0,0.0,0.0,0.0,0.0,0.0,0.0,0.0,0.0,0.0,0.0,0.0,1.4279,1.4316,1.364,0.0,0.0,0.0,0.0,0.0,0.0,0.0,0.0,0.0,0.0,3.1216,3.1931,3.3255,0.0,0.0,3.3891,3.3803,3.4026,3.2812,3.0907,2.8086,2.5931,0.0,0.0,0.0,0.0,0.0,0.0,0.0,0.0,0.0,0.0,0.0,0.0,0.0,0.0,0.0,0.0,0.0,0.0,0.0,0.0,0.0,0.0,0.0,0.0,0.0,0.0,0.0,0.0,0.0,0.0,0.0,0.0,0.0,0.0,0.0,0.0,0.0,0.0,0.0,0.0,0.0,0.0,0.0,0.0,0.0,0.0,0.0,0.0,0.0,0.0,0.0,0.0,2.449,2.7876,2.979,3.1522,3.3029,3.3199,3.3045,3.2522,3.1235,2.8911,0.0,0.0,0.0,0.0,0.0,0.0,0.0,0.0,0.0,0.0,0.0,0.0,0.0,0.0,0.0,0.0,0.0,0.0,0.0,0.0,0.0,0.0,0.0,0.0,0.0,0.0,0.0,0.0,1.5544,1.51,1.3443,0.0,0.0,0.0,0.0,0.0,0.0,0.0,0.0,0.0,0.0,3.2769,3.417,3.5054,3.555,3.5507,3.4772,3.4336,3.468,3.2695,3.0618,2.9008,0.0,0.0,0.0,0.0,0.0,0.0,0.0,0.0,0.0,0.0,0.0,0.0,0.0,0.0,0.0,0.0,0.0,0.0,0.0,0.0,0.0,0.0,0.0,0.0,0.0,0.0,0.0,1.3347,0.0,0.0,1.2317,0.0,0.0,0.0,0.0,0.0,0.0,0.0,0.0,0.0,0.0,0.0,0.0,0.0,0.0,0.0,0.0,0.0,0.0,0.0,0.0,0.0,0.0,2.4507,2.7853,3.0371,3.1291,3.0655,3.2891,3.3372,3.1824,3.1626,2.9883,2.6294,0.0,0.0,0.0,0.0,0.0,0.0,0.0,0.0,0.0,0.0,0.0,0.0,0.0,0.0,0.0,0.0,0.0,0.0,0.0,0.0,0.0,0.0,0.0,0.0,0.0,0.0,1.522,1.4574,1.3478,0.0,0.0,0.0,0.0,0.0,0.0,0.0,0.0,0.0,2.7827,3.0935,3.3389,3.4236,3.5027,3.5587,3.5585,3.4835,3.3955,3.322,3.291,3.1716,0.0,0.0,0.0,0.0,0.0,0.0,0.0,0.0,0.0,0.0,0.0,0.0,0.0,0.0,0.0,0.0,0.0,0.0,0.0,0.0,0.0,0.0,0.0,0.0,0.0,0.0,0.0,1.8891,1.806,0.0,0.0,0.0,0.0,0.0,0.0,0.0,0.0,0.0,0.0,0.0,2.528,2.5342,0.0,0.0,0.0,0.0,0.0,0.0,0.0,0.0,0.0,0.0,0.0,0.0,2.56,2.7894,3.0411,3.1562,3.129,3.2622,3.2986,3.2259,3.1562,2.8975,2.4269,0.0,0.0,0.0,0.0,0.0,0.0,0.0,0.0,0.0,0.0,0.0,0.0,0.0,0.0,0.0,0.0,0.0,0.0,0.0,0.0,0.0,0.0,0.0,0.0,0.0,1.5131,0.0,0.0,0.0,0.0,0.0,0.0,0.0,0.0,0.0,0.0,0.0,2.8135,3.0947,3.3261,3.5205,3.6568,3.6991,3.7355,0.0,0.0,0.0,0.0,0.0,0.0,0.0,0.0,0.0,0.0,0.0,0.0,0.0,0.0,3.2209,2.6259,2.4699,2.449,2.4969,0.0,0.0,0.0,0.0,0.0,0.0,0.0,0.0,0.0,0.0,0.0,0.0,0.0,0.0,2.1955,2.2075,2.0758,0.0,0.0,0.0,0.0,0.0,0.0,0.0,0.0,2.7353,2.8797,2.9565,2.9623,2.9486,2.9121,2.7219,2.4295,0.0,0.0,0.0,0.0,0.0,0.0,0.0,0.0,2.629,2.8316,3.0462,3.1476,3.1256,3.2187,3.2642,3.2487,3.1427,2.9076,2.5319,2.3812,2.1928,0.0,0.0,0.0,0.0,0.0,0.0,0.0,0.0,0.0,0.0,0.0,0.0,0.0,0.0,0.0,0.0,0.0,0.0,0.0,0.0,0.0,0.0,0.0,1.6521,0.0,0.0,0.0,0.0,0.0,0.0,0.0,0.0,0.0,2.6294,2.8527,3.1128,3.3912,3.5481,3.6769,3.7852,0.0,0.0,0.0,0.0,0.0,0.0,0.0,3.5202,3.5472,3.4622,3.4271,3.5335,3.7234,3.8286,3.7325,0.0,0.0,3.0642,2.8987,2.8814,2.96,3.0557,3.1274,3.1337,3.2699,3.3845,0.0,0.0,0.0,0.0,2.0927,0.0,0.0,0.0,2.2655,2.3614,0.0,2.321,0.0,0.0,0.0,0.0,2.1272,2.5439,0.0,0.0,3.2016,3.3719,3.3053,3.2988,3.2609,3.1958,3.2521,3.1161,2.7891,2.2287,0.0,0.0,0.0,0.0,0.0,0.0,2.6673,2.9147,3.0721,3.1139,3.0466,3.1638,3.2377,3.2425,3.1312,3.0222,2.923,2.6816,2.4388,2.2019,2.0254,0.0,0.0,0.0,0.0,0.0,0.0,0.0,0.0,0.0,0.0,0.0,0.0,0.0,0.0,0.0,0.0,0.0,0.0,0.0,0.0,1.8489,0.0,0.0,0.0,0.0,0.0,0.0,0.0,0.0,0.0,0.0,2.8508,3.1755,3.4876,3.6493,0.0,0.0,0.0,0.0,3.8402,3.9332,3.8727,3.8488,3.9261,3.9319,3.9013,3.8238,0.0,0.0,3.846,3.9539,4.0155,3.8504,3.9561,3.9965,3.796,3.6101,3.5333,3.5995,3.5824,3.5901,3.6489,3.7239,3.8007,3.0658,0.0,0.0,0.0,0.0,2.7692,2.8906,3.0702,3.047,3.0105,2.9597,2.8359,0.0,0.0,0.0,0.0,0.0,0.0,3.0097,3.2412,3.3892,3.5057,3.5946,3.559,3.5579,3.5857,3.4506,3.3641,3.3176,2.9772,2.5792,2.143,0.0,0.0,0.0,0.0,2.9513,3.0689,3.2296,3.2618,3.161,3.2011,3.2156,3.1996,3.2011,3.1105,2.9144,2.8366,2.6872,2.4459,2.2274,0.0,0.0,0.0,0.0,0.0,0.0,0.0,0.0,0.0,0.0,0.0,0.0,0.0,0.0,0.0,0.0,0.0,0.0,0.0,1.7449,1.8476,1.9053,0.0,0.0,0.0,0.0,0.0,0.0,0.0,0.0,0.0,3.4893,3.5576,3.638,0.0,0.0,3.843,3.9605,3.9792,4.0314,4.1787,4.1804,0.0,4.1123,4.0569,4.0281,4.0662,4.2093,4.2975,4.2338,4.2949,4.3204,4.2088,4.2039,4.1816,4.0854,3.9592,3.8792,3.8952,3.9199,3.942,3.9534,4.0336,4.1067,3.6452,3.4189,3.184,3.1325,3.2089,3.2451,3.3627,3.5245,3.4915,3.4599,3.4199,3.2736,3.1032,2.9127,2.7701,0.0,0.0,0.0,3.272,3.5329,3.5884,3.6872,3.8193,3.799,3.7947,3.8011,3.671,3.6088,3.6148,3.4278,3.1365,2.7544,0.0,2.6681,2.7218,2.9442,3.0993,3.1813,3.262,3.2757,3.2231,3.2077,3.188,3.167,3.1952,3.1577,3.0473,2.9812,2.8659,2.6888,2.4527,2.2329,0.0,0.0,0.0,0.0,0.0,0.0,0.0,0.0,0.0,0.0,0.0,1.3897,1.1775,0.0,0.0,0.0,1.6871,1.8686,2.0561,2.1493,0.0,0.0,0.0,0.0,0.0,0.0,0.0,3.1661,3.4543,3.7051,3.9198,3.9365,3.9451,3.9963,4.0035,4.0375,4.1386,0.0,4.2027,4.338,4.3562,4.351,4.3316,4.2876,4.2707,4.322,4.4115,4.4735,4.4626,4.4813,4.477,4.4288,4.3852,4.3512,4.3256,4.2429,4.1688,4.1412,4.1671,4.2048,4.2383,4.2936,4.3308,4.0909,4.06,3.6265,3.4811,3.5447,3.63,3.7074,3.7709,3.7004,3.7474,3.8593,3.6399,3.5364,3.5147,3.2996,0.0,3.322,3.4206,3.5531,3.7096,3.8025,3.8952,3.9895,3.9983,3.9618,3.8846,3.8923,3.8411,3.7405,3.6523,3.5633,3.465,3.1925,3.0477,3.0394,3.1017,3.1851,3.2902,3.2543,3.2373,3.2509,3.2032,3.1679,3.1495,3.143,3.1721,3.2314,3.0974,2.9803,2.8895,2.6728,2.4459,2.2159,0.0,0.0,0.0,0.0,0.0,0.0,0.0,0.0,0.0,0.0,0.0,0.0,0.0,0.0,0.0,2.2414,0.0,2.5335,2.6255,0.0,0.0,0.0,2.7746,2.9607,3.117,3.337,3.6638,0.0,0.0,4.1793,4.2756,4.3296,4.3289,4.3174,4.3117,4.3192,4.3156,4.3481,4.429,4.44,4.4684,4.5208,4.5325,4.5274,4.5307,4.557,4.5484,4.539,4.5237,4.5124,4.4968,4.4896,4.4746,4.5024,4.4462,4.4134,4.3306,4.3343,4.3806,4.4591,4.4675,4.4597,4.2377,4.2309,4.1296,4.0321,3.9493,3.9697,3.9983,4.0223,4.0057,3.9841,3.9555,3.9001,3.8391,3.78,3.7213,3.7389,3.8182,3.8434,3.9109,4.0077,3.9764,3.9747,4.0026,3.966,3.9404,3.9283,3.9425,3.9394,3.9145,3.8353,3.7451,3.6486,3.5586,3.4604,3.3512,3.4434,3.5204,3.5738,3.5605,3.4884,3.3512,3.2748,3.235,3.232,3.1718,3.1207,3.0794,3.0414,2.9546,2.8138,2.6964,2.5766,2.4571,2.086,0.0,0.0,0.0,0.0,0.0,0.0,0.0,0.0,0.0,1.9172,1.5097,0.0,2.0927,0.0,2.4916,2.6722,2.6274,2.7596,0.0,0.0,3.0859,3.1911,3.5455,3.5664,3.658,3.9279,4.1127,4.2566,4.3585,4.4455,4.5,4.4975,4.3912,4.3312,4.3882,4.4008,4.4318,4.5083,4.524,4.5361,4.5547,4.5592,4.5517,4.5327,4.53,4.515,4.4763,4.4632,4.452,4.432,4.4221,4.4211,4.4301,4.4155,4.405,4.3863,4.3849,4.3945,4.4244,4.425,4.4287,4.291,4.2914,4.2984,4.2577,4.1883,4.1965,4.2052,4.2127,4.2155,4.1717,4.0932,4.0579,4.0186,3.976,3.9764,4.0002,4.041,4.0432,4.0695,4.1121,4.0694,4.0576,4.0689,4.0041,3.9781,3.9843,3.9618,3.9464,3.933,3.8899,3.838,3.7808,3.782,3.735,3.6406,3.6305,3.6395,3.6739,3.6682,3.5716,3.3879,3.3363,3.2794,3.21,3.1629,3.1023,3.021,2.9852,2.909,2.7848,2.6691,2.6025,2.5883,2.2781,2.0739,0.0,0.0,0.0,0.0,0.0,0.0,0.0,0.0,0.0,0.0,0.0,2.3805,2.5415,2.8288,3.02,3.0483,3.2053,3.3773,3.5563,3.5675,3.6711,3.9405,3.9252,3.9794,4.1933,4.3032,4.3951,4.4763,4.5302,4.5592,4.5592,4.4799,4.4382,4.4761,4.4868,4.5051,4.5513,4.5592,4.5557,4.5443,4.5424,4.5349,4.5083,4.5008,4.4927,4.4631,4.4468,4.4361,4.4214,4.4086,4.4044,4.4147,4.4079,4.4025,4.4128,4.4064,4.4035,4.415,4.4079,4.4075,4.291,4.291,4.291,4.297,4.3095,4.3287,4.3381,4.3407,4.3454,4.3108,4.2419,4.1709,4.1415,4.1397,4.1415,4.1397,4.1393,4.1411,4.1411,4.1415,4.1305,4.1385,4.1571,4.0788,4.0441,4.0459,3.9751,3.9246,3.8973,3.8855,3.8795,3.8723,3.8943,3.8946,3.8657,3.732,3.6745,3.7021,3.6824,3.5908,3.4309,3.3975,3.3134,3.1779,3.1412,3.0818,2.9931,2.9409,2.8736,2.7829,2.6563,2.6198,2.6812,2.4625,2.3251,0.0,2.1793,0.0,0.0,0.0,0.0,0.0,0.0,0.0,0.0,2.572,2.7422,2.9724,3.2196,3.4313,3.5832,3.7467,3.8773,3.9523,4.0331,4.1152,4.1988,4.2126,4.2718,4.428,4.4472,4.4763,4.5436,4.5592,4.5592,4.5592,4.5535,4.5455,4.5573,4.5554,4.5554,4.5592,4.5568,4.546,4.5282,4.5211,4.5102,4.4853,4.4798,4.4754,4.4669,4.4456,4.4312,4.43,4.4125,4.4056,4.4282,4.4155,4.4064,4.4235,4.4113,4.4053,4.4225,4.4147,4.4083,4.291,4.291,4.291,4.2906,4.2947,4.3091,4.3251,4.3403,4.3421,4.3359,4.3263,4.3116,4.3043,4.3047,4.3043,4.3061,4.3043,4.3043,4.3061,4.3024,4.2378,4.2113,4.2102,4.1341,4.098,4.0991,4.0239,3.9874,3.9837,3.9202,3.8855,3.8784,3.8837,3.8822,3.8777,0.0,0.0,0.0,3.7669,3.7162,3.6743,3.482,3.3663,3.3311,3.1436,0.0,2.8377,2.9362,2.9289,2.7921,2.813,0.0,0.0,0.0,0.0,0.0,0.0,0.0,0.0,0.0,0.0,0.0,2.91,2.8284,2.7856,3.1137,3.3534,3.4121,3.6438,3.8056,3.8402,3.9939,4.1008,4.1257,4.2019,4.2868,4.3703,4.3823,4.4241,4.5205,4.5359,4.54,4.5556,4.5592,4.5592,4.5592,4.5592,4.5592,4.5592,4.5592,4.5592,4.5586,4.5438,4.5271,4.5211,4.5198,4.5036,4.4641,4.4618,4.4548,4.4166,4.4015,4.3926,4.3926,4.3927,4.3906,4.3945,4.3961,4.3997,4.4005,4.3965,4.3955,4.4049,4.4038,4.402,4.3277,4.291,4.291,4.291,0.0,4.2975,4.3095,4.3242,4.3359,4.3437,4.3483,4.3483,4.3483,4.3483,4.3483,4.3483,4.3483,4.3483,4.3483,4.3469,4.3084,4.2896,4.2855,4.2062,4.1719,4.1705,4.0925,4.0545,4.057,4.0183,3.9763,3.9346,3.9331,3.9147,3.8776,3.8726,3.8703,3.8703,3.8307,3.7907,3.7474,3.6277,3.504,3.3825,3.2614,0.0,0.0,0.0,0.0,0.0,0.0,0.0,0.0,0.0,0.0,2.8374,2.8723,2.9114,2.9527,2.993,3.1246,3.3773,3.4956,3.4606,3.2477,3.4888,3.7024,3.8302,3.9605,4.0513,4.0975,4.2142,4.2894,4.2962,4.3682,4.4386,4.4809,4.4889,4.5087,4.5494,4.5592,4.5592,4.5592,4.5592,4.5592,4.5592,4.5592,4.5592,4.5592,4.5592,4.5592,4.5592,4.5499,4.5366,4.5224,4.5175,4.496,4.4509,4.4394,4.4286,4.3917,4.3826,4.3799,4.3798,4.3824,4.3832,4.381,4.3855,4.3881,4.3859,4.3851,4.3859,4.3907,4.3902,4.3898,4.3924,4.3313,4.3159,4.3114,4.3114,4.2941,4.2989,4.3114,4.3327,0.0,0.0,4.3483,4.3483,4.3483,4.3483,4.3483,4.3483,4.3483,4.3483,4.3483,4.3483,4.3483,4.3451,4.2827,4.2511,4.2474,4.169,4.1328,4.1301,4.1168,4.0777,4.0157,4.0102,3.9702,3.896,3.8905,3.885,3.8703,3.8703,3.8399,3.7749,3.7588,3.6461,3.4306,3.41,3.2941,3.0736,3.0883,3.0659,2.9904,2.9977,3.0363,3.1014,3.1549,3.2122,3.2794,3.3697,3.4284,3.4453,3.4714,3.5534,3.7037,3.9442,3.9736,3.7174,3.8032,3.9619,4.1819,4.2036,4.2387,4.3235,4.3951,4.4394,4.4421,4.5008,4.54,4.5471,4.5503,4.5501,4.5581,4.5592,4.5588,4.5581,4.5588,4.5581,4.5573,4.556,4.5581,4.5577,4.5581,4.559,4.5575,4.5475,4.5398,4.5167,4.5036,4.48,4.4297,4.4184,4.4053,4.383,4.3744,4.3749,4.3728,4.3744,4.3744,4.3763,4.3777,4.3796,4.3796,4.3779,4.3757,4.3761,4.3763,4.3761,4.5073,4.4897,4.4227,4.3937,4.3883,4.3204,4.3008,4.3178,4.3327,4.3437,4.3483,4.3483,4.3483,4.3483,4.3483,4.3483,4.3483,4.3483,4.3483,4.3483,4.3483,4.3483,4.3483,4.3378,4.3341,4.3267,4.2529,4.2135,4.2057,4.1448,4.103,4.0956,4.0934,4.052,3.9812,3.9739,3.9386,3.8722,3.8703,3.8648,3.852,3.7856,3.7026,3.5976,3.5228,3.4032,3.2369,3.357,3.3959,3.3198,3.3793,3.4209,3.4304,3.3778,3.3513,3.3697,3.5073,3.6251,3.6967,3.8257,3.9431,4.0343,4.1034,4.1088,4.052,4.1442,4.2553,4.3561,4.3618,4.4029,4.4842,4.5024,4.5118,4.519,4.5317,4.5429,4.5494,4.5498,4.5511,4.5579,4.5592,4.5573,4.5539,4.5542,4.5555,4.5464,4.5496,4.5487,4.5459,4.5535,4.559,4.5499,4.5317,4.5052,4.4803,4.4676,4.4481,4.3965,4.398,4.3965,4.3682,4.3609,4.3565,4.3531,4.3617,4.3634,4.363,4.3709,4.3753,4.3775,4.3703,4.3642,4.3638,4.3594,4.3638,4.5707,4.5273,4.4915,4.4747,4.4675,4.3883,4.3643,4.3738,4.3383,4.3336,4.3497,4.3483,4.3483,4.3483,4.3483,4.3483,4.3483,4.3483,4.3483,4.3483,4.3483,4.3483,4.3483,4.3483,4.3483,4.3469,4.3139,4.2951,4.2914,4.2584,4.2172,4.176,4.1301,4.0912,4.0575,4.0557,4.0377,4.0002,3.9158,3.8703,3.8703,3.834,3.7757,3.6978,3.6545,3.5807,3.4663,3.5323,3.5547,3.5165,3.5514,3.5892,3.6321,3.6409,3.6652,3.7099,3.8226,3.907,3.9427,4.0551,4.1358,4.1745,4.2432,4.2798,4.2667,4.2847,4.3369,4.4315,4.4449,4.4682,4.5226,4.528,4.5321,4.534,4.5359,4.5383,4.5453,4.5445,4.546,4.5483,4.5495,4.5466,4.5462,4.5459,4.5464,4.5417,4.5433,4.5443,4.5406,4.5314,4.526,4.5224,4.5113,4.4944,4.4657,4.4566,4.4355,4.3983,4.3962,4.3877,4.3618,4.3523,4.3492,4.3483,4.3506,4.3542,4.3539,4.3573,4.3621,4.3621,4.3596,4.3539,4.3535,4.3543,4.36,4.6408,4.5829,4.5653,4.5477,4.5254,4.4621,4.4435,4.4518,4.3932,4.3666,4.3676,4.3528,4.3454,4.3471,4.3476,4.3489,4.3483,4.3483,4.3483,4.3483,4.3483,4.3483,4.3483,4.3483,4.3483,4.3483,4.3483,4.3483,4.3483,4.3483,4.3194,4.2561,4.1933,4.1544,4.137,4.1374,4.1283,4.1044,3.9874,3.9236,3.9232,3.9254,3.8942,3.8366,3.8329,3.8014,3.7422,3.7382,3.7367,3.7389,3.7389,3.7665,3.8274,3.8891,3.9511,4.0161,4.0924,4.147,4.1676,4.2213,4.2573,4.2586,4.3385,4.3922,4.3953,4.3595,4.3726,4.4619,4.4847,4.5021,4.5248,4.528,4.528,4.528,4.528,4.5321,4.5389,4.5411,4.5421,4.5405,4.5419,4.5405,4.5412,4.5419,4.541,4.541,4.5407,4.5369,4.5273,4.5077,4.4947,4.4812,4.4831,4.4754,4.4529,4.4407,4.4224,4.3965,4.3889,4.3756,4.3573,4.3488,4.3483,4.3483,4.3483,4.3519,4.3532,4.3528,4.3532,4.3531,4.3518,4.3492,4.3496,4.3553,4.3565,4.7526,4.7381,4.668,4.5956,4.5368,4.5236,4.5265,4.5358,4.5285,4.4893,4.4281,4.3561,4.3309,4.3394,4.3421,4.3446,4.3479,4.3483,4.3483,4.3483,4.3483,4.3483,4.3483,4.3483,4.3483,4.3483,4.3483,4.3483,4.3483,4.3483,4.3455,4.3382,4.3327,4.2873,4.2264,4.219,4.1856,4.1132,4.0971,4.0875,4.0879,4.0879,4.0838,4.0791,4.0755,4.0736,4.0479,4.0663,4.0636,4.0659,4.0567,4.0645,4.0736,4.0824,4.0916,4.103,4.1772,4.2488,4.3157,4.3345,4.3355,4.3406,4.3463,4.3682,4.3954,4.3935,4.4138,4.4673,4.5065,4.5205,4.528,4.528,4.528,4.528,4.528,4.5321,4.5386,4.5408,4.5413,4.5409,4.5395,4.5405,4.5387,4.5388,4.5398,4.5347,4.5296,4.5169,4.4931,4.4808,4.4608,4.4319,4.4339,4.4385,4.4151,4.4056,4.3931,4.3639,4.3551,4.3529,4.3501,4.3483,4.3483,4.3483,4.3483,4.3523,4.3553,4.3539,4.3513,4.3539,4.3522,4.3483,4.3483,4.3496,4.3518,4.7412,4.7665,4.7345,4.7042,4.668,4.6227,4.604,4.6062,4.5573,4.5217,4.486,4.4089,4.356,4.33,4.3397,4.3464,4.3428,4.348,4.3483,4.3483,4.3483,4.3483,4.3483,4.3483,4.3483,4.3483,4.3483,4.3483,4.3483,4.3483,4.3483,4.3483,4.3483,4.3322,4.3024,4.301,4.2845,4.252,4.2511,4.2511,4.2415,4.1603,4.1113,4.1113,4.1113,4.1113,4.1113,4.1113,4.1113,4.1113,4.1113,4.1319,4.1805,4.1805,4.2021,4.247,4.2827,4.3139,4.3465,4.3483,4.3483,4.3483,4.3483,4.356,4.3695,4.3868,4.4113,4.4333,4.4752,4.5062,4.5254,4.528,4.528,4.528,4.528,4.5299,4.5321,4.5342,4.5338,4.5346,4.5339,4.5345,4.5327,4.5337,4.5249,4.5106,4.5004,4.4897,4.4623,4.4427,4.4243,4.4056,4.3972,4.3865,4.3722,4.3703,4.3632,4.3539,4.3483,4.3483,4.3483,4.3483,4.3483,4.3483,4.3483,4.3496,4.3518,4.3513,4.3501,4.3526,4.3522,4.3483,4.3483,4.3483,4.3505,4.7341,4.7668,4.7694,4.7694,4.764,4.7096,4.6825,4.677,4.6214,4.5834,4.5562,4.5031,4.4415,4.382,4.3559,4.341,4.3433,4.3476,4.3483,4.3483,4.3483,4.3483,4.3483,4.3483,4.3483,4.3483,4.3483,4.3483,4.3483,4.3483,4.3483,4.3483,4.3483,4.3483,4.3483,4.3483,4.3483,4.3469,4.3483,4.3483,4.3318,4.2359,4.1768,4.1768,4.1746,4.1768,4.1741,4.1764,4.175,4.1764,4.1768,4.2025,4.2584,4.2616,4.2892,4.341,4.3483,4.3483,4.3483,4.3483,4.3483,4.3483,4.3483,4.3539,4.3657,4.3866,4.4021,4.4158,4.4455,4.4815,4.5093,4.5167,4.5194,4.5267,4.528,4.528,4.5299,4.528,4.5302,4.528,4.5291,4.528,4.528,4.5285,4.5228,4.503,4.4881,4.4703,4.445,4.4198,4.3978,4.3886,4.3649,4.3526,4.3483,4.3513,4.3483,4.3483,4.3483,4.3483,4.3483,4.3483,4.3483,4.3483,4.3483,4.3488,4.3501,4.3492,4.3483,4.3483,4.3483,4.3483,4.3483,4.3483,4.3483,4.7668,4.7683,4.7694,4.7694,4.7694,4.7634,4.7616,4.7562,4.7531,4.7151,4.6496,4.6461,4.6048,4.5105,4.3934,4.3363,4.349,4.3493,4.3497,4.3479,4.3483,4.3483,4.3483,4.3483,4.3483,4.3483,4.3483,4.3483,4.3483,4.3483,4.3483,4.3483,4.3483,4.3483,4.3483,4.3483,4.3483,4.3483,4.3483,4.3483,4.3488,4.3396,4.3286,4.3245,4.3355,4.3263,4.3304,4.3359,4.3337,4.3363,4.3286,4.3341,4.3414,4.341,4.3433,4.3488,4.3483,4.3483,4.3483,4.3483,4.3483,4.3483,4.3488,4.3624,4.3854,4.3908,4.4044,4.4313,4.4332,4.4491,4.4751,4.4836,4.495,4.5215,4.5275,4.5264,4.528,4.528,4.528,4.527,4.5222,4.5181,4.5243,4.528,4.5218,4.5102,4.4948,4.4651,4.4351,4.4118,4.3867,4.3641,4.3518,4.3483,4.3483,4.3483,4.3483,4.3483,4.3483,4.3483,4.3483,4.3483,4.3483,4.3483,4.3483,4.3483,4.3483,4.3483,4.3483,4.3483,4.3483,4.3483,4.3483,4.3483,4.3483,4.7521,4.7707,4.7694,4.7694,4.7694,4.7694,4.7694,4.7694,4.7694,4.7562,4.7228,4.6799,4.643,4.6144,4.5141,4.4421,4.4012,4.3618,4.3437,4.3442,4.348,4.3483,4.3483,4.3483,4.3483,4.3483,4.3483,4.3483,4.3483,4.3483,4.3483,4.3483,4.3483,4.3483,4.3483,4.3483,4.3483,4.3483,4.3483,4.3483,4.3483,4.3483,4.3483,4.3483,4.3483,4.3483,4.3483,4.3483,4.3483,4.3483,4.3483,4.3483,4.3483,4.3483,4.3483,4.3483,4.3483,4.3483,4.3483,4.3483,4.3483,4.3483,4.3483,4.3535,4.3649,4.3687,4.3722,4.3813,4.3827,4.3954,4.4237,4.4444,4.4663,4.4903,4.4987,4.5065,4.524,4.5294,4.5219,4.5031,4.4837,4.4717,4.4748,4.4717,4.4651,4.4511,4.4376,4.4184,4.3921,4.3743,4.3692,4.3553,4.3483,4.3483,4.3483,4.3483,4.3483,4.3483,4.3483,4.3483,4.3483,4.3483,4.3483,4.3483,4.3483,4.3483,4.3483,4.3483,4.3483,4.3483,4.3483,4.3483,4.3483,4.3483,4.3483,4.7831,4.8114,4.7904,4.7912,4.8064,4.7797,4.7694,4.7694,4.7694,4.7694,4.7585,4.7114,4.6938,4.6873,4.6175,4.555,4.4939,4.4135,4.3711,4.3683,4.3508,4.3396,4.3415,4.3415,4.3437,4.3463,4.3493,4.3483,4.3483,4.3483,4.3483,4.3483,4.3483,4.3483,4.3483,4.3483,4.3483,4.3483,4.3483,4.3483,4.3483,4.3483,4.3483,4.3483,4.3483,4.3483,4.3483,4.3483,4.3483,4.3483,4.3483,4.3483,4.3483,4.3483,4.3483,4.3483,4.3483,4.3483,4.3483,4.3483,4.3483,4.3483,4.3483,4.3483,4.3483,4.3483,4.3483,4.3524,4.38,4.4001,4.4185,4.4403,4.4559,4.4656,4.4676,4.4747,4.4976,4.5006,4.4878,4.469,4.4554,4.4433,4.4412,4.4419,4.4358,4.4129,4.4068,4.3888,4.3723,4.3804,4.3888,4.393,4.4237,4.4378,4.4383,4.4305,4.3795,4.3671,4.3502,4.3483,4.3483,4.3483,4.3483,4.3483,4.3483,4.3483,4.3483,4.3483,4.3483,4.3483,4.3483,4.3483,4.3483,4.3483,4.3483,4.8658,4.8942,4.8318,4.8335,4.869,4.8126,4.7758,4.7815,4.7779,4.7803,4.7707,4.7634,4.7572,4.7505,4.6845,4.6468,4.6206,4.5106,4.4486,4.4367,4.373,4.3429,4.3456,4.3492,4.3556,4.3636,4.3527,4.3525,4.3572,4.3512,4.3457,4.3475,4.3462,4.3462,4.3483,4.3479,4.3479,4.3483,4.3483,4.3483,4.3483,4.3483,4.3483,4.3483,4.3483,4.3483,4.3483,4.3483,4.3483,4.3483,4.3483,4.3483,4.3483,4.3483,4.3483,4.3483,4.3483,4.3483,4.3506,4.3538,4.363,4.3667,4.3593,4.3786,4.3818,4.3759,4.3759,4.3887,4.4328,4.4721,4.4732,4.4772,4.4773,4.4502,4.4657,4.4641,4.4642,4.4512,4.4444,4.4503,4.4463,4.4403,4.4388,4.4416,4.4418,4.4363,4.4322,4.427,4.4278,4.4514,4.4664,4.483,4.5072,4.5282,4.5296,4.5218,4.4475,4.3855,4.3616,4.3483,4.3483,4.3483,4.3483,4.3483,4.3483,4.3483,4.3483,4.3483,4.3483,4.3483,4.3483,4.352,4.3483,4.3483,4.3483,4.8168,4.8606,4.8389,4.8582,4.9042,4.882,4.8661,4.8542,4.8534,4.8232,4.7779,4.7694,4.7694,4.7652,4.7422,4.7319,4.7252,4.6298,4.5596,4.5183,4.4913,4.4791,4.4791,4.4827,4.4864,4.4811,4.4369,4.4113,4.4031,4.3597,4.334,4.3402,4.3376,4.3384,4.3516,4.345,4.3455,4.3497,4.3483,4.3483,4.3483,4.3483,4.3483,4.3483,4.3483,4.3483,4.3483,4.3483,4.3483,4.3488,4.3483,4.3483,4.3483,4.3483,4.3483,4.3483,4.3483,4.3483,4.3561,4.4011,4.431,4.4416,4.481,4.5135,4.5154,4.5099,4.5099,4.5117,4.5392,4.5534,4.5534,4.552,4.5588,4.5764,4.5504,4.5465,4.5754,4.58,4.5523,4.5021,4.4733,4.44,4.4089,4.4208,4.4664,4.4705,4.496,4.5216,4.5293,4.5359,4.5521,4.5598,4.5879,4.6104,4.6085,4.5971,4.5461,4.4805,4.4383,4.4022,4.3912,4.3667,4.363,4.3612,4.3593,4.3649,4.363,4.3685,4.3814,4.3685,4.3722,4.3667,4.3538,4.363,4.3873,4.8455,4.8951,4.8844,4.9135,4.962,4.9573,4.9468,4.9361,4.9342,4.8907,4.825,4.8159,4.7978,4.7748,4.7694,4.7694,4.7647,4.7164,4.6716,4.6225,4.5644,4.5504,4.5496,4.553,4.5586,4.5481,4.5091,4.485,4.4814,4.4363,4.4163,4.4204,4.4126,4.4031,4.3923,4.3855,4.3777,4.3544,4.3483,4.3483,4.3483,4.3483,4.3483,4.3483,4.3483,4.3483,4.3506,4.3777,4.3818,4.3561,4.3483,4.3483,4.3483,4.3506,4.3616,4.3906,4.3979,4.4066,4.4383,4.4892,4.5136,4.5255,4.5617,4.5865,4.5888,4.5906,4.5906,4.5906,4.6172,4.6356,4.6347,4.6333,4.6562,4.7067,4.6257,4.6045,4.6362,4.6319,4.6033,4.5521,4.5286,4.4901,4.4718,4.4736,4.5144,4.5234,4.5575,4.5906,4.5965,4.6145,4.6258,4.6472,4.6822,4.692,4.6847,4.665,4.6411,4.586,4.5333,4.5004,4.4781,4.4344,4.4121,4.414,4.414,4.4507,4.4544,4.464,4.4713,4.4419,4.4236,4.453,4.4732,4.464,4.4787,4.9346,4.982,4.9613,4.9873,5.0405,5.0272,5.0205,5.0168,5.0173,4.9709,4.9088,4.8974,4.854,4.7924,4.7893,4.7852,4.7694,4.7658,4.7549,4.7161,4.6343,4.5719,4.577,4.5858,4.5911,4.583,4.5684,4.5632,4.5599,4.5404,4.5573,4.5383,4.53,4.5253,4.4739,4.4647,4.4332,4.3895,4.3742,4.3756,4.3761,4.3727,4.3746,4.3764,4.3791,4.3836,4.3965,4.4433,4.4433,4.3777,4.3745,4.3726,4.3694,4.3635,4.4126,4.4741,4.4773,4.5108,4.5663,4.5865,4.5971,4.5989,4.614,4.603,4.6255,4.6361,4.6347,4.6342,4.6805,4.7168,4.7174,4.7173,4.7503,4.7916,4.7036,4.6383,4.6123,4.623,4.6241,4.6076,4.5971,4.5906,4.5759,4.581,4.5947,4.5998,4.6122,4.6346,4.6432,4.6831,4.7102,4.7364,4.7598,4.7649,4.753,4.7402,4.7182,4.6975,4.6429,4.5997,4.5531,4.5033,4.4759,4.4764,4.4814,4.52,4.5383,4.5369,4.5429,4.5337,4.5447,4.5833,4.5759,4.5484,4.5429,4.9356,4.987,4.982,5.036,5.1211,5.1219,5.1124,5.0996,5.0988,5.0548,4.9914,4.9787,4.9347,4.8648,4.8576,4.8286,4.7911,4.7743,4.7694,4.7658,4.735,4.7078,4.7078,4.7086,4.707,4.6985,4.6477,4.6267,4.6213,4.5725,4.55,4.5514,4.556,4.5458,4.5329,4.5292,4.521,4.5062,4.5021,4.4989,4.499,4.5064,4.5196,4.5201,4.5182,4.5218,4.5264,4.5461,4.5516,4.5264,4.4676,4.469,4.5094,4.5154,4.5259,4.5512,4.5603,4.5663,4.5975,4.6466,4.6755,4.6847,4.7237,4.7659,4.7664,4.7659,4.7659,4.7709,4.7911,4.7957,4.7963,4.7948,4.8113,4.8209,4.7769,4.7613,4.7786,4.7809,4.7483,4.6931,4.6782,4.6544,4.6301,4.6466,4.676,4.6861,4.7169,4.7516,4.7436,4.7523,4.7791,4.7929,4.8122,4.82,4.8186,4.8081,4.7989,4.7966,4.7544,4.7008,4.6383,4.5677,4.5585,4.559,4.5585,4.5856,4.5824,4.5773,4.5906,4.6255,4.6182,4.6292,4.6053,4.5814,4.5906,4.9348,4.9909,5.0142,5.0753,5.1582,5.1872,5.1928,5.1812,5.1779,5.135,5.0735,5.0602,5.0155,4.9456,4.9401,4.9166,4.8708,4.834,4.8208,4.8159,4.7815,4.7652,4.7676,4.7694,4.7694,4.7598,4.6902,4.6745,4.6812,4.6191,4.6069,4.6412,4.6353,4.6228,4.6071,4.601,4.5856,4.5633,4.5606,4.5606,4.5616,4.5673,4.5711,4.5711,4.5781,4.5906,4.6245,4.6044,4.5856,4.5778,4.5475,4.542,4.581,4.5906,4.6044,4.6338,4.6411,4.6521,4.6925,4.7356,4.7581,4.7654,4.8095,4.8241,4.8264,4.8315,4.8315,4.826,4.8315,4.8315,4.8315,4.8315,4.8315,4.8301,4.8315,4.8379,4.8587,4.8343,4.8112,4.7735,4.7566,4.7466,4.6925,4.7319,4.7513,4.766,4.7889,4.8104,4.8195,4.8315,4.8315,4.8315,4.8315,4.8315,4.8315,4.8228,4.8191,4.8223,4.8131,4.7696,4.714,4.6397,4.6392,4.6397,4.6402,4.6443,4.6558,4.6728,4.7076,4.7223,4.6948,4.6838,4.6801,4.6562,4.6617,4.9356,4.993,5.0466,5.1048,5.1656,5.2233,5.2415,5.2462,5.2408,5.2069,5.1526,5.1417,5.097,5.0209,5.0222,5.0155,4.9979,4.9287,4.9083,4.8853,4.8491,4.8165,4.8183,4.7821,4.773,4.7616,4.6933,4.7096,4.729,4.6879,4.6915,4.7179,4.7404,4.7252,4.6735,4.669,4.645,4.6089,4.6048,4.6084,4.6094,4.6123,4.6184,4.6171,4.6173,4.6477,4.6772,4.6545,4.6194,4.6154,4.6071,4.6136,4.6168,4.62,4.6503,4.7062,4.7246,4.7503,4.8058,4.8131,4.8241,4.8223,4.8241,4.8315,4.8315,4.8315,4.8315,4.8315,4.8315,4.8315,4.8315,4.8315,4.8315,4.8315,4.8315,4.8315,4.8315,4.8315,4.8315,4.8315,4.8283,4.8301,4.8315,4.8315,4.8283,4.7981,4.8214,4.8251,4.8315,4.8315,4.8315,4.8315,4.8315,4.8315,4.8315,4.8296,4.8278,4.8296,4.8278,4.8021,4.7677,4.7209,4.7213,4.7217,4.7223,4.7434,4.7746,4.7989,4.8081,4.8026,4.7659,4.7916,4.8131,4.7751,4.7622,4.9356,4.993,5.049,5.1048,5.1632,5.2245,5.2498,5.2498,5.2498,5.2377,5.225,5.2232,5.1761,5.1042,5.1019,5.0711,5.0269,4.9968,4.986,4.9811,4.9726,4.9593,4.9262,4.8424,4.7803,4.7743,4.758,4.7562,4.7621,4.7508,4.7169,4.6897,4.7422,4.7319,4.6788,4.7166,4.7446,4.7244,4.72,4.7119,4.714,4.7209,4.725,4.7268,4.7325,4.7499,4.7688,4.7612,4.7536,4.7439,4.7128,4.7015,4.7403,4.7588,4.7709,4.7837,4.7975,4.809,4.826,4.8305,4.8315,4.8315,4.8315,4.8315,4.8315,4.8315,4.8315,4.8315,4.8315,4.8315,4.8315,4.8315,4.8315,4.8315,4.8315,4.8315,4.8315,4.8315,4.8315,4.8315,4.8315,4.8315,4.8315,4.8315,4.8315,4.8315,4.8315,4.8315,4.8315,4.8315,4.8315,4.8315,4.8315,4.8315,4.8315,4.8315,4.8315,4.8315,4.8315,4.8296,4.7952,4.7837,4.7777,4.7874,4.8035,4.826,4.8315,4.8296,4.8209,4.8278,4.8315,4.8315,4.8315,4.8315,4.8315,4.9348,4.9955,5.0484,5.1048,5.1656,5.2227,5.2498,5.2498,5.2498,5.2498,5.2498,5.2498,5.225,5.1888,5.1846,5.1598,5.1205,5.0794,5.0445,5.0191,5.007,5.0088,5.0034,4.9334,4.8822,4.8762,4.8413,4.8286,4.8196,4.7906,4.7477,4.7109,4.7531,4.7513,4.7145,4.7508,4.7645,4.7645,4.7694,4.7694,4.7704,4.7759,4.7814,4.7819,4.7845,4.7891,4.7924,4.7934,4.7934,4.7897,4.7715,4.7674,4.801,4.8126,4.8142,4.8165,4.8161,4.819,4.8228,4.8256,4.8247,4.8351,4.8315,4.8315,4.8315,4.8315,4.8315,4.8315,4.8315,4.8315,4.8315,4.8315,4.8315,4.8315,4.8333,4.8315,4.8315,4.8315,4.8315,4.8315,4.8315,4.8315,4.8315,4.8315,4.8315,4.8315,4.8315,4.8315,4.8315,4.8315,4.8315,4.8315,4.8315,4.8315,4.8315,4.8315,4.8315,4.8315,4.8315,4.8315,4.8181,4.8181,4.8241,4.8278,4.826,4.8278,4.8315,4.8315,4.8315,4.8315,4.8315,4.8315,4.8315,4.8315,4.8315,4.9313,4.9817,5.0345,5.0916,5.1501,5.209,5.2399,5.2498,5.2498,5.2498,5.2498,5.2498,5.2444,5.2462,5.2426,5.248,5.2268,5.1834,5.12,5.0783,5.0758,5.0753,5.0644,5.0548,5.0439,5.036,4.9528,4.9142,4.8907,4.8454,4.8201,4.7978,4.8092,4.8128,4.7984,4.8056,4.8261,4.8315,4.8328,4.8297,4.8261,4.8271,4.8284,4.8295,4.8318,4.8378,4.8454,4.8434,4.832,4.8234,4.8296,4.8306,4.8266,4.8033,4.8002,4.8007,4.8022,4.8185,4.845,4.8488,4.8533,4.8594,4.8733,4.8751,4.8802,4.8907,4.8943,4.8888,4.8925,4.8908,4.8702,4.8901,4.8855,4.8803,4.8734,4.8663,4.8645,4.8613,4.8558,4.8315,4.8315,4.8315,4.8315,4.8315,4.8315,4.8315,4.8315,4.8315,4.8315,4.8315,4.8315,4.8315,4.8315,4.8315,4.8315,4.8315,4.8315,4.8315,4.8315,4.8315,4.8315,4.8315,4.8315,4.8315,4.8296,4.8315,4.8315,4.8315,4.8315,4.8315,4.8315,4.8315,4.8315,4.8315,4.8315,4.9063,4.9199,4.9778,5.0349,5.0909,5.1489,5.2024,5.2445,5.2439,5.2498,5.2498,5.2498,5.2498,5.2498,5.2498,5.2498,5.2431,5.219,5.21,5.19,5.1888,5.1888,5.1834,5.1774,5.1906,5.1689,5.0765,5.0023,4.9901,4.9733,4.9257,4.8979,4.9257,4.9298,4.9021,4.928,4.9467,4.9376,4.9425,4.9443,4.9449,4.9449,4.9467,4.9461,4.9407,4.9477,4.9597,4.9675,4.9724,4.9748,4.9746,4.9713,4.9411,4.8647,4.8222,4.819,4.8222,4.85,4.8947,4.9127,4.9561,5.0033,5.0146,5.0248,5.027,5.026,5.0053,5.016,5.0206,5.0288,5.0375,5.0129,5.0297,5.0328,5.0206,5.0195,5.0121,4.9733,4.915,4.8778,4.8558,4.8315,4.8315,4.8315,4.8315,4.8315,4.8315,4.8315,4.8315,4.8315,4.8315,4.8315,4.8315,4.8315,4.8315,4.8315,4.8315,4.8315,4.8315,4.8315,4.8315,4.8315,4.8315,4.8315,4.8315,4.8315,4.8315,4.8315,4.8315,4.8315,4.8315,4.8315,4.8315,4.8315,4.8315,4.9018,4.9054,4.9652,5.0052,5.0363,5.0889,5.147,5.1976,5.2054,5.2228,5.2428,5.2498,5.2498,5.2498,5.2498,5.2498,5.2498,5.2498,5.2498,5.2498,5.2498,5.2498,5.2498,5.2498,5.2498,5.2299,5.1671,5.1061,5.0771,5.0698,5.0294,4.9787,4.9956,4.9883,4.9679,4.9847,5.0137,5.0142,5.016,5.016,5.0142,5.0142,5.0142,5.0124,5.0142,5.0106,5.0106,5.0106,5.0088,5.0088,5.0088,5.0106,4.994,4.9608,4.9094,4.9106,4.9057,4.9206,4.9645,4.9797,5.0026,5.037,5.0592,5.0639,5.0675,5.0624,5.0815,5.0837,5.082,5.0814,5.0746,5.0868,5.0819,5.0815,5.0862,5.0881,5.0758,5.0458,5.0016,4.9444,4.8888,4.8572,4.8315,4.8315,4.8315,4.8315,4.8315,4.8315,4.8315,4.8315,4.8315,4.8315,4.8315,4.8315,4.8315,4.8315,4.8315,4.8315,4.8315,4.8315,4.8315,4.8315,4.8315,4.8315,4.8315,4.8315,4.8315,4.8315,4.8315,4.8315,4.8315,4.8315,4.8315,4.8315,4.8315,4.9018,4.9048,4.9518,4.9798,4.9952,5.0345,5.0876,5.1368,5.157,5.1872,5.2287,5.2428,5.2498,5.2498,5.2498,5.2498,5.2498,5.2498,5.2498,5.2498,5.2498,5.2498,5.2498,5.2498,5.2498,5.248,5.2377,5.2184,5.1671,5.1531,5.1169,5.0879,5.0626,5.0595,5.0686,5.0801,5.059,5.0572,5.0595,5.0577,5.0595,5.059,5.0572,5.0572,5.0572,5.0686,5.0789,5.0807,5.0771,5.0753,5.0698,5.0662,5.0608,5.059,5.059,5.0553,5.0305,5.021,5.0388,5.0481,5.0668,5.1069,5.0965,5.0991,5.1108,5.1334,5.1266,5.1223,5.1361,5.1458,5.1538,5.1353,5.1383,5.141,5.1417,5.1313,5.1394,5.1279,5.1086,5.0398,4.9457,4.9017,4.8907,4.8693,4.8776,4.8338,4.8315,4.8315,4.8315,4.8315,4.8315,4.8315,4.8315,4.8315,4.8315,4.8315,4.8315,4.8315,4.8315,4.8315,4.8315,4.8315,4.8315,4.8315,4.8315,4.8315,4.8315,4.8315,4.8315,4.8315,4.8315,4.8315,4.8315,4.8315,4.8315,4.9018,4.9018,4.9086,4.9416,4.9846,4.9952,5.03,5.0825,5.1292,5.1613,5.1737,5.2221,5.2445,5.2498,5.2498,5.2498,5.2498,5.2498,5.2498,5.2498,5.2498,5.2498,5.2498,5.2498,5.2498,5.2498,5.2498,5.2468,5.225,5.2226,5.2245,5.2033,5.1942,5.2147,5.187,5.1828,5.2208,5.2154,5.2123,5.2105,5.2069,5.2069,5.2045,5.2069,5.2057,5.2002,5.1924,5.1906,5.196,5.2027,5.21,5.2178,5.2214,5.2214,5.2214,5.1797,5.1133,5.042,5.1045,5.1253,5.1521,5.1936,5.2191,5.2457,5.2311,5.2349,5.2426,5.2722,5.2747,5.269,5.2603,5.2768,5.2863,5.275,5.2566,5.2632,5.2677,5.2053,5.1875,5.1701,5.0889,5.0178,4.9779,4.9502,4.9229,4.8712,4.8338,4.8375,4.8356,4.8379,4.8315,4.8315,4.8315,4.8315,4.8315,4.8315,4.837,4.8351,4.8333,4.8333,4.8315,4.8315,4.8315,4.8315,4.8315,4.8315,4.8315,4.8315,4.8315,4.8315,4.8315,4.8315,4.8315,4.8315,4.8315,4.9018,4.9018,4.9018,4.9146,4.9371,4.9394,4.9723,5.0226,5.0525,5.0807,5.117,5.1707,5.2162,5.2404,5.2498,5.2498,5.2498,5.2498,5.2498,5.2498,5.2498,5.2498,5.2498,5.2498,5.2498,5.2498,5.2498,5.2498,5.2498,5.2498,5.2498,5.2498,5.2498,5.2431,5.2498,5.2498,5.2462,5.2444,5.2462,5.248,5.2498,5.2498,5.2498,5.2498,5.2498,5.2498,5.2498,5.2498,5.2498,5.2498,5.2498,5.2498,5.248,5.2462,5.2462,5.2413,5.1924,5.1689,5.1936,5.2018,5.2245,5.2403,5.2586,5.2565,5.2689,5.2806,5.2921,5.2986,5.3042,5.3114,5.3198,5.319,5.319,5.319,5.319,5.319,5.3154,5.2989,5.2645,5.2498,5.2302,5.1536,5.0864,5.0548,5.0242,4.9745,4.9287,4.9084,4.8854,4.8564,4.8462,4.8315,4.8315,4.8315,4.8315,4.8315,4.8443,4.8462,4.843,4.8406,4.8333,4.8315,4.8553,4.8485,4.8375,4.8375,4.837,4.8315,4.8315,4.8315,4.8315,4.8315,4.8315,4.8315,4.8315,4.9018,4.9018,4.9018,4.9018,4.9018,4.9018,4.9243,4.9642,4.9883,5.0149,5.0631,5.1272,5.1902,5.2251,5.2399,5.2498,5.2498,5.2498,5.2498,5.2498,5.2498,5.2498,5.2498,5.2498,5.2498,5.2498,5.2498,5.2498,5.2498,5.2498,5.2498,5.2498,5.2498,5.2498,5.2498,5.2498,5.2498,5.2498,5.2498,5.2498,5.2498,5.2498,5.2498,5.2498,5.2498,5.2498,5.2498,5.2498,5.2498,5.2498,5.2498,5.2498,5.2498,5.2498,5.2498,5.248,5.2263,5.2299,5.2353,5.2401,5.248,5.2498,5.2498,5.2544,5.2588,5.2707,5.2824,5.2934,5.2999,5.3082,5.3164,5.319,5.319,5.319,5.319,5.319,5.3172,5.3051,5.2983,5.2902,5.2774,5.2724,5.2141,5.1731,5.1298,5.0792,5.0344,4.9904,4.9434,4.9001,4.8894,4.882,4.882,4.8948,4.9164,4.9054,4.8943,4.8792,4.8778,4.8907,4.909,4.9159,4.9342,4.9109,4.8797,4.909,4.9512,4.8888,4.8315,4.8315,4.8315,4.8315,4.8315,4.8333,4.8315,4.9018,4.9018,4.9018,4.9018,4.9018,4.9018,4.9032,4.9191,4.9659,4.9887,5.0163,5.0997,5.1488,5.1743,5.2084,5.2334,5.2469,5.2492,5.2439,5.2439,5.2492,5.2457,5.2475,5.2498,5.2498,5.2498,5.2498,5.2498,5.2498,5.2498,5.2498,5.2498,5.2498,5.2498,5.2498,5.2498,5.2498,5.2498,5.2498,5.2498,5.2498,5.2498,5.2498,5.2498,5.2498,5.2498,5.2498,5.2498,5.2498,5.2498,5.2498,5.2498,5.2498,5.2498,5.2498,5.2498,5.2498,5.2498,5.2498,5.2498,5.2498,5.2498,5.2498,5.2486,5.2526,5.2569,5.2676,5.28,5.2877,5.3002,5.3119,5.319,5.313,5.3125,5.3096,5.3124,5.3124,5.314,5.3109,5.3167,5.3096,5.2925,5.2926,5.2406,5.2095,5.1609,5.1059,5.06,5.0029,4.9624,4.9587,4.9541,4.9545,4.9816,5.0435,5.0343,4.9953,4.9879,4.9898,5.0105,5.0362,5.0357,5.0046,5.0126,4.9961,5.0296,5.0375,4.9659,4.9017,4.8517,4.8411,4.8783,4.8746,4.8673,4.8521,4.9018,4.9018,4.9018,4.9018,4.9018,4.9018,4.9018,4.9032,4.9252,4.9578,4.9919,5.0359,5.0739,5.1065,5.123,5.162,5.1841,5.1502,5.1932,5.218,5.2198,5.221,5.231,5.2516,5.2498,5.2534,5.2516,5.2498,5.2498,5.2661,5.2516,5.2498,5.2643,5.2498,5.2498,5.2498,5.2498,5.2498,5.2498,5.2498,5.2498,5.2498,5.2498,5.2498,5.2498,5.2498,5.2498,5.2498,5.2498,5.2498,5.2498,5.2498,5.2498,5.2498,5.2498,5.2498,5.2498,5.2516,5.2534,5.2516,5.2498,5.2498,5.2498,5.2498,5.2498,5.2519,5.2581,5.2672,5.2737,5.2853,5.2925,5.2957,5.2939,5.2962,5.298,5.3018,5.3036,5.306,5.3049,5.3033,5.299,5.2886,5.2938,5.294,5.2705,5.2417,5.1857,5.1299,5.0712,5.033,5.0335,5.0335,5.0335,5.0477,5.1036,5.1004,5.0875,5.093,5.1004,5.1096,5.1206,5.0797,5.06,5.0799,5.0942,5.096,5.0763,5.0265,4.9843,4.9549,4.9541,4.9721,4.95,4.9137,4.8962,4.9018,4.9018,4.9018,4.9018,4.9018,4.9018,4.9018,4.9018,4.9017,4.9214,4.9659,4.9803,5.0085,5.0415,5.0691,5.1145,5.1542,5.1507,5.202,5.2326,5.2464,5.2359,5.2575,5.2685,5.2643,5.2752,5.2878,5.2933,5.3379,5.3241,5.3349,5.3367,5.3174,5.3114,5.2498,5.2492,5.2492,5.2498,5.2498,5.2498,5.2498,5.2498,5.2498,5.2498,5.2498,5.2498,5.2498,5.2498,5.2498,5.2498,5.2498,5.2498,5.2498,5.2498,5.2498,5.2498,5.2534,5.2607,5.2757,5.2594,5.2516,5.2498,5.2498,5.2498,5.2498,5.2522,5.2542,5.2608,5.2624,5.269,5.2827,5.2834,5.2837,5.2884,5.2893,5.2928,5.2903,5.2906,5.289,5.2868,5.284,5.2846,5.2883,5.2957,5.2956,5.2826,5.263,5.2038,5.1412,5.1147,5.1156,5.1156,5.1156,5.1334,5.1544,5.1733,5.1935,5.199,5.2008,5.1875,5.1798,5.144,5.145,5.1858,5.1901,5.1592,5.1505,5.1508,5.1164,5.0724,5.0637,5.0485,5.0275,4.9911,4.9759,4.9018,4.9018,4.9018,4.9018,4.9018,4.9018,4.9018,4.9018,4.9018,4.904,4.9193,4.9634,4.9911,5.0116,5.054,5.12,5.17,5.1784,5.2384,5.3197,5.2886,5.3068,5.3249,5.3246,5.3259,5.3566,5.3711,5.4001,5.4611,5.4436,5.4544,5.4581,5.4327,5.3947,5.2661,5.2535,5.2523,5.2535,5.2603,5.2646,5.267,5.27,5.2697,5.2896,5.2752,5.2733,5.2969,5.2987,5.3005,5.2987,5.2933,5.2933,5.292,5.2884,5.2842,5.2788,5.2739,5.3029,5.3554,5.2933,5.2824,5.2878,5.3059,5.2951,5.2703,5.266,5.2847,5.3193,5.2991,5.2908,5.2876,5.2867,5.2911,5.2908,5.2951,5.2795,5.2777,5.2778,5.2761,5.2729,5.2768,5.2813,5.2839,5.2904,5.3042,5.3088,5.3162,5.2779,5.2113,5.1964,5.1966,5.1977,5.1995,5.2123,5.2352,5.2774,5.2989,5.3049,5.2902,5.2627,5.2603,5.2532,5.2661,5.2939,5.275,5.2373,5.269,5.3025,5.237,5.1673,5.1288,5.1058,5.0872,5.0708,5.0525,4.9018,4.9018,4.9018,4.9018,4.9018,4.9018,4.9018,4.9018,4.9018,4.9018,4.9151,4.971,5.0036,5.0237,5.0724,5.1375,5.1862,5.1583,5.2238,5.3676,5.3192,5.3714,5.3987,5.4062,5.4092,5.4406,5.4532,5.4496,5.4834,5.4935,5.4912,5.4907,5.491,5.4617,5.4098,5.3759,5.3443,5.3419,5.3437,5.3431,5.3386,5.3327,5.3476,5.3911,5.353,5.3494,5.3874,5.3874,5.3874,5.3892,5.3874,5.3911,5.3929,5.3929,5.3983,5.4013,5.4049,5.4176,5.4454,5.4218,5.414,5.4086,5.3965,5.3929,5.4074,5.4092,5.4121,5.4036,5.3921,5.3984,5.4226,5.3659,5.3492,5.331,5.3184,5.2763,5.261,5.2637,5.2642,5.2594,5.2601,5.2649,5.2705,5.2793,5.2932,5.3045,5.3088,5.3162,5.27,5.2737,5.2774,5.2797,5.2834,5.2944,5.3122,5.3172,5.319,5.3117,5.3117,5.3025,5.3117,5.319,5.3154,5.3062,5.3117,5.319,5.319,5.3154,5.3012,5.258,5.215,5.1815,5.1662,5.1476,5.1274,4.9018,4.9018,4.9018,4.9018,4.9018,4.9018,4.9018,4.9018,4.9018,4.9137,4.9466,4.993,5.0277,5.0549,5.0979,5.1575,5.2071,5.1854,5.2422,5.3824,5.3363,5.3763,5.4265,5.4479,5.4148,5.4549,5.4711,5.4724,5.5088,5.5095,5.5092,5.5101,5.5069,5.5039,5.4762,5.4322,5.3682,5.3525,5.3393,5.3556,5.3684,5.3871,5.4103,5.4454,5.4466,5.4327,5.4725,5.4907,5.4925,5.4943,5.4943,5.4943,5.4937,5.4919,5.4925,5.49,5.5154,5.5208,5.5257,5.5673,5.5649,5.5685,5.5305,5.4943,5.4907,5.4725,5.4762,5.4786,5.4961,5.4943,5.4832,5.4234,5.4113,5.3949,5.355,5.3141,5.2951,5.299,5.2648,5.2593,5.2515,5.2548,5.258,5.2675,5.2791,5.2893,5.2982,5.3077,5.3159,5.3164,5.3175,5.3177,5.3177,5.3159,5.3159,5.3172,5.319,5.319,5.319,5.319,5.319,5.319,5.319,5.319,5.319,5.319,5.319,5.3135,5.3067,5.3067,5.2947,5.2677,5.2459,5.2239,5.2013,4.9018,4.9018,4.9018,4.9018,4.9018,4.9018,4.9018,4.9018,4.9018,4.939,5.0058,5.0126,5.0608,5.1175,5.1336,5.1808,5.2339,5.235,5.3191,5.3858,5.3671,5.4009,5.4029,5.3919,5.4229,5.431,5.4486,5.4924,5.5329,5.5302,5.5316,5.5284,5.5266,5.5126,5.4789,5.4356,5.376,5.3598,5.3708,5.3935,5.4184,5.4244,5.4712,5.508,5.5136,5.51,5.5281,5.5335,5.5263,5.5208,5.5154,5.51,5.5045,5.4985,5.4991,5.5196,5.5764,5.5952,5.6121,5.6634,5.6814,5.6609,5.5848,5.5269,5.5178,5.5414,5.5486,5.545,5.5486,5.5287,5.507,5.5003,5.4919,5.4568,5.4169,5.3866,5.364,5.3344,5.2875,5.266,5.254,5.255,5.257,5.2648,5.2697,5.2747,5.2853,5.293,5.3005,5.3065,5.3111,5.319,5.319,5.319,5.319,5.3185,5.319,5.319,5.319,5.319,5.319,5.319,5.319,5.319,5.319,5.319,5.319,5.319,5.3172,5.319,5.319,5.3117,5.2779,5.2889,5.2792,4.9018,4.9018,4.9018,4.9018,4.9018,4.9018,4.9018,4.9018,4.9018,4.9432,5.0117,5.0651,5.1243,5.1995,5.2562,5.2883,5.3052,5.3246,5.3674,5.3974,5.4005,5.449,5.4662,5.4603,5.4824,5.4862,5.4978,5.4931,5.5235,5.5333,5.4994,5.4768,5.5034,5.4799,5.4427,5.4193,5.4019,5.4032,5.4174,5.4515,5.4859,5.5095,5.5654,5.6052,5.5884,5.5939,5.621,5.6331,5.6349,5.6428,5.6482,5.6518,5.6536,5.6536,5.6554,5.6536,5.676,5.6863,5.69,5.7062,5.7188,5.7188,5.6645,5.6663,5.6536,5.6391,5.6349,5.6228,5.6192,5.612,5.5993,5.5891,5.5763,5.5468,5.5021,5.461,5.4349,5.3927,5.3451,5.307,5.2949,5.2624,5.2645,5.2587,5.2631,5.266,5.2714,5.2778,5.2852,5.2915,5.3001,5.3087,5.3114,5.3098,5.3164,5.3175,5.3185,5.319,5.319,5.319,5.319,5.319,5.319,5.319,5.319,5.319,5.319,5.319,5.319,5.319,5.319,5.319,5.319,5.319,5.319,4.9018,4.9018,4.9018,4.9018,4.9018,4.9018,4.9018,4.9018,4.9018,4.9543,5.0524,5.0973,5.1776,5.2731,5.3222,5.3441,5.3441,5.3441,5.3684,5.3848,5.41,5.4168,5.4528,5.4701,5.4491,5.4645,5.4652,5.4413,5.4691,5.4646,5.434,5.4124,5.452,5.4157,5.3815,5.3836,5.3958,5.4171,5.4527,5.5054,5.5454,5.5839,5.651,5.6877,5.6547,5.6782,5.706,5.7126,5.7169,5.7182,5.7188,5.7188,5.7152,5.7152,5.7152,5.708,5.7104,5.7122,5.711,5.714,5.7188,5.7188,5.7188,5.7134,5.7098,5.6971,5.6989,5.6971,5.7062,5.7098,5.6959,5.6808,5.6644,5.6455,5.592,5.5402,5.4985,5.458,5.4139,5.3691,5.3317,5.2896,5.2702,5.2621,5.2553,5.2565,5.2602,5.2649,5.2694,5.2747,5.284,5.2944,5.2972,5.2988,5.306,5.3098,5.3098,5.3114,5.3175,5.318,5.3185,5.319,5.319,5.319,5.319,5.319,5.319,5.319,5.319,5.319,5.319,5.319,5.319,5.319,5.319,4.9018,4.9018,4.9018,4.9018,4.9018,4.9018,4.9018,4.9018,4.9018,4.9805,5.0964,5.1201,5.2021,5.3137,5.3475,5.3509,5.3509,5.3518,5.3509,5.3517,5.3626,5.3742,5.3709,5.3551,5.3858,5.3643,5.3618,5.3882,5.3643,5.3726,5.38,5.3501,5.3618,5.3576,5.3593,5.3568,5.3676,5.3792,5.426,5.4749,5.5308,5.5879,5.6515,5.6863,5.688,5.6923,5.6961,5.7037,5.7119,5.7112,5.7182,5.7176,5.7188,5.7188,5.7188,5.7188,5.7188,5.7188,5.7188,5.7188,5.7188,5.7188,5.7188,5.7188,5.7188,5.7188,5.7188,5.7188,5.7188,5.7188,5.7068,5.7032,5.6928,5.6807,5.6476,5.6168,5.5969,5.5413,5.4762,5.4267,5.3668,5.3259,5.2957,5.2876,5.2519,5.2515,5.2528,5.2557,5.2574,5.2605,5.2712,5.2829,5.2855,5.2883,5.2906,5.2944,5.2977,5.3015,5.3074,5.3095,5.3056,5.3088,5.3167,5.3151,5.3153,5.3185,5.319,5.319,5.319,5.319,5.319,5.319,5.319,5.319,5.319,4.9018,4.9018,4.9018,4.9018,4.9018,4.9018,4.9018,4.9018,4.9018,4.9822,5.1015,5.1302,5.2055,5.3357,5.3492,5.3509,5.3509,5.3509,5.3509,5.3509,5.3509,5.3509,5.3509,5.3509,5.3509,5.3509,5.3509,5.3509,5.3509,5.3509,5.3509,5.3492,5.3509,5.3509,5.3509,5.3509,5.3509,5.3543,5.4083,5.4424,5.4688,5.5564,5.6284,5.6073,5.5904,5.5975,5.6055,5.6314,5.6416,5.6535,5.6992,5.715,5.7188,5.7188,5.7188,5.7188,5.7188,5.7188,5.7188,5.7188,5.7188,5.7188,5.7188,5.7188,5.7188,5.7188,5.7188,5.7188,5.7188,5.7188,5.7188,5.7188,5.717,5.708,5.6989,5.691,5.6855,5.6166,5.5412,5.4768,5.4134,5.3742,5.344,5.3023,5.2625,5.2498,5.2498,5.2504,5.2522,5.2543,5.2622,5.2729,5.2778,5.2806,5.2789,5.28,5.2833,5.2857,5.2904,5.2915,5.2915,5.2978,5.3042,5.3069,5.3098,5.3098,5.3137,5.3203,5.3203,5.3169,5.3169,5.3164,5.3185,5.319,5.319,4.9018,4.9018,4.9018,4.9018,4.9018,4.9018,4.9018,4.9018,4.9018,4.9644,5.0685,5.1141,5.2055,5.334,5.3492,5.3509,5.3509,5.3509,5.3509,5.3509,5.3509,5.3509,5.3509,5.3509,5.3509,5.3509,5.3509,5.3509,5.3509,5.3509,5.3509,5.3509,5.3509,5.3509,5.3509,5.3509,5.3509,5.3526,5.4099,5.4219,5.4219,5.5054,5.5726,5.5446,5.537,5.5348,5.5448,5.5759,5.5996,5.6355,5.6871,5.7144,5.7188,5.7188,5.7188,5.7188,5.7188,5.7188,5.7188,5.7188,5.7188,5.7188,5.7188,5.7188,5.7188,5.7188,5.7188,5.7188,5.7188,5.7188,5.7188,5.7188,5.7188,5.7134,5.7098,5.7067,5.7043,5.6747,5.6089,5.5504,5.5015,5.4762,5.4327,5.3579,5.3234,5.3002,5.2918,5.2642,5.2618,5.2775,5.2777,5.2791,5.2945,5.277,5.2628,5.2649,5.2698,5.271,5.2753,5.2797,5.284,5.2872,5.2915,5.2944,5.2961,5.2979,5.3012,5.3078,5.3111,5.3076,5.3092,5.3108,5.313,5.3164,5.3169,4.8947,4.8963,4.8986,4.9018,4.9018,4.9018,4.9018,4.9018,4.9018,4.9415,5.021,5.0922,5.2072,5.2934,5.3492,5.3509,5.3509,5.3509,5.3509,5.3509,5.3509,5.3509,5.3509,5.3509,5.3509,5.3509,5.3509,5.3509,5.3509,5.3509,5.3509,5.3509,5.3509,5.3509,5.3509,5.3509,5.3509,5.361,5.3857,5.3906,5.4188,5.4567,5.4968,5.5172,5.5164,5.5147,5.5097,5.5372,5.5676,5.6204,5.6753,5.7093,5.7188,5.7188,5.7188,5.7188,5.7188,5.7188,5.7188,5.7188,5.7188,5.7188,5.7188,5.7188,5.7188,5.7188,5.7188,5.7188,5.7188,5.7188,5.7188,5.7188,5.7188,5.7188,5.7188,5.7188,5.717,5.717,5.6681,5.6108,5.5854,5.5619,5.5094,5.4345,5.3916,5.369,5.3418,5.3075,5.2931,5.3246,5.3426,5.3382,5.3411,5.3141,5.2672,5.2615,5.2682,5.2621,5.2648,5.2721,5.2763,5.2754,5.2775,5.2789,5.28,5.2857,5.2862,5.289,5.2923,5.2961,5.2972,5.2982,5.3009,5.3031,5.3098,4.869,4.8848,4.8964,4.9018,4.9018,4.9018,4.9018,4.9018,4.9018,4.9407,5.0084,5.0854,5.1742,5.2562,5.3255,5.3475,5.3509,5.3509,5.3509,5.3509,5.3509,5.3509,5.3509,5.3509,5.3509,5.3509,5.3509,5.3509,5.3509,5.3509,5.3509,5.3509,5.3509,5.3509,5.3509,5.3509,5.3509,5.3601,5.3593,5.3651,5.3775,5.4019,5.4107,5.4092,5.3849,5.3849,5.4069,5.4899,5.5321,5.5848,5.6541,5.6992,5.7188,5.7188,5.7188,5.7188,5.7188,5.7188,5.7188,5.7188,5.7188,5.7188,5.7188,5.7188,5.7188,5.7188,5.7188,5.7188,5.7188,5.7188,5.7188,5.7188,5.7188,5.7188,5.7188,5.7188,5.7188,5.7188,5.6989,5.6609,5.6337,5.6126,5.5897,5.5239,5.4713,5.4531,5.4435,5.4115,5.4006,5.4073,5.4079,5.3995,5.3922,5.3336,5.2812,5.2727,5.2743,5.2628,5.2556,5.2614,5.2632,5.2616,5.262,5.2656,5.2722,5.2796,5.2772,5.274,5.2783,5.284,5.2828,5.2839,5.2872,5.2928,5.2972]},{"header":{"parameterUnit":"m.s-1","parameterCategory":1,"la1":31.0,"la2":29.5877,"lo1":-88.7671,"lo2":-86.6584,"dy":0.0162,"dx":0.0185,"nx":115,"ny":88,"refTime":"2024-11-26T12:00:00:Z","depth":0,"parameterNumber":3,"parameterNumberName":"V-component_of_WINDS"},"data":[0.0,0.0,0.0,0.0,0.0,0.0,0.0,0.0,0.0,0.0,0.0,0.0,0.0,0.0,0.0,0.0,0.0,0.0,0.0,0.0,0.0,0.0,0.0,0.0,0.0,0.0,0.0,0.0,0.0,0.0,0.0,0.0,0.0,0.0,0.0,0.0,0.0,0.0,0.0,0.0,0.0,0.0,0.0,0.0,0.0,0.0,0.0,0.0,0.0,0.0,0.0,0.0,0.0,0.0,0.0,0.0,0.0,0.0,0.0,0.0,0.0,0.0,0.0,0.0,0.0,0.0,0.0,0.0,0.0,0.0,0.0,0.0,0.0,0.0,0.0,0.0,0.0,0.0,0.0,0.0,0.0,0.0,0.0,0.0,0.0,0.0,0.0,0.0,0.0,0.0,0.0,0.0,0.0,0.0,0.0,0.0,0.0,0.0,0.0,0.0,0.0,0.0,0.0,0.0,0.0,0.0,0.0,0.0,0.0,0.0,0.0,0.0,0.0,0.0,0.0,0.0,0.0,0.0,0.0,0.0,0.0,0.0,0.0,0.0,0.0,0.0,0.0,0.0,0.0,0.0,0.0,0.0,0.0,0.0,0.0,0.0,0.0,0.0,0.0,0.0,0.0,0.0,0.0,0.0,0.0,0.0,0.0,0.0,0.0,0.0,0.0,0.0,0.0,0.0,0.0,0.0,0.0,0.0,0.0,0.0,0.0,0.0,0.0,0.0,0.0,0.0,0.0,0.0,0.0,0.0,0.0,0.0,0.0,0.0,0.0,0.0,0.0,0.0,0.0,0.0,0.0,0.0,0.0,0.0,0.0,0.0,0.0,0.0,0.0,0.0,0.0,0.0,0.0,0.0,0.0,0.0,0.0,0.0,0.0,0.0,0.0,0.0,0.0,0.0,0.0,0.0,0.0,0.0,0.0,0.0,0.0,0.0,0.0,0.0,0.0,0.0,0.0,0.0,0.0,0.0,0.0,0.0,0.0,0.0,0.0,0.0,0.0,0.0,0.0,0.0,0.0,0.0,0.0,0.0,0.0,0.0,0.0,0.0,0.0,0.0,0.0,0.0,0.0,0.0,0.0,0.0,0.0,0.0,0.0,0.0,0.0,0.0,0.0,0.0,0.0,0.0,0.0,0.0,0.0,0.0,0.0,0.0,0.0,0.0,0.0,0.0,0.0,0.0,0.0,0.0,0.0,0.0,0.0,0.0,0.0,0.0,0.0,0.0,0.0,0.0,0.0,0.0,0.0,0.0,0.0,0.0,0.0,0.0,0.0,0.0,0.0,0.0,0.0,0.0,0.0,0.0,0.0,0.0,0.0,0.0,0.0,0.0,0.0,0.0,0.0,0.0,0.0,0.0,0.0,0.0,0.0,0.0,0.0,0.0,0.0,0.0,0.0,0.0,0.0,0.0,0.0,0.0,0.0,0.0,0.0,0.0,0.0,0.0,0.0,0.0,0.0,0.0,0.0,0.0,0.0,0.0,0.0,0.0,0.0,0.0,0.0,0.0,0.0,0.0,0.0,0.0,0.0,0.0,0.0,0.0,0.0,0.0,0.0,0.0,0.0,0.0,0.0,0.0,0.0,0.0,0.0,0.0,0.0,0.0,0.0,0.0,0.0,0.0,0.0,0.0,0.0,0.0,0.0,0.0,0.0,0.0,0.0,0.0,0.0,0.0,0.0,0.0,0.0,0.0,0.0,0.0,0.0,0.0,0.0,0.0,0.0,0.0,0.0,0.0,0.0,0.0,0.0,0.0,0.0,0.0,0.0,0.0,0.0,0.0,0.0,0.0,0.0,0.0,0.0,0.0,0.0,0.0,0.0,0.0,0.0,0.0,0.0,0.0,0.0,0.0,0.0,0.0,0.0,0.0,0.0,0.0,0.0,0.0,0.0,0.0,0.0,0.0,0.0,0.0,0.0,0.0,0.0,0.0,0.0,0.0,0.0,0.0,0.0,0.0,0.0,0.0,0.0,0.0,0.0,0.0,0.0,0.0,0.0,0.0,0.0,0.0,0.0,0.0,0.0,0.0,0.0,0.0,0.0,0.0,0.0,0.0,0.0,0.0,0.0,0.0,0.0,0.0,0.0,0.0,0.0,0.0,0.0,0.0,0.0,0.0,0.0,0.0,0.0,0.0,0.0,0.0,0.0,0.0,0.0,0.0,0.0,0.0,0.0,0.0,0.0,0.0,0.0,0.0,0.0,0.0,0.0,0.0,0.0,0.0,0.0,0.0,0.0,0.0,0.0,0.0,0.0,0.0,0.0,0.0,0.0,0.0,0.0,0.0,0.0,0.0,0.0,0.0,0.0,0.0,0.0,0.0,0.0,0.0,0.0,0.0,0.0,0.0,0.0,0.0,0.0,0.0,0.0,0.0,0.0,0.0,0.0,0.0,0.0,0.0,0.0,0.0,0.0,0.0,0.0,0.0,0.0,0.0,0.0,0.0,0.0,0.0,0.0,0.0,0.0,0.0,0.0,0.0,0.0,0.0,0.0,0.0,0.0,0.0,0.0,0.0,0.0,0.0,0.0,0.0,0.0,0.0,0.0,0.0,0.0,0.0,0.0,0.0,0.0,0.0,0.0,0.0,0.0,0.0,0.0,0.0,0.0,0.0,0.0,0.0,0.0,0.0,0.0,0.0,0.0,0.0,0.0,0.0,0.0,0.0,0.0,0.0,0.0,0.0,0.0,0.0,0.0,0.0,0.0,0.0,0.0,0.0,0.0,0.0,0.0,0.0,0.0,0.0,0.0,0.0,0.0,0.0,0.0,0.0,0.0,0.0,0.0,0.0,0.0,0.0,0.0,0.0,0.0,0.0,0.0,0.0,0.0,0.0,0.0,0.0,0.0,0.0,0.0,0.0,0.0,0.0,0.0,0.0,0.0,0.0,0.0,0.0,0.0,0.0,0.0,0.0,0.0,0.0,0.0,0.0,0.0,0.0,0.0,0.0,0.0,0.0,0.0,0.0,0.0,0.0,0.0,0.0,0.0,0.0,0.0,0.0,0.0,0.0,0.0,0.0,0.0,0.0,0.0,0.0,0.0,0.0,0.0,0.0,0.0,0.0,0.0,0.0,0.0,0.0,0.0,0.0,0.0,0.0,0.0,0.0,0.0,0.0,0.0,0.0,0.0,0.0,0.0,0.0,0.0,0.0,0.0,0.0,0.0,0.0,0.0,0.0,0.0,0.0,0.0,0.0,0.0,0.0,0.0,0.0,0.0,0.0,0.0,0.0,0.0,0.0,0.0,0.0,0.0,0.0,0.0,0.0,0.0,0.0,0.0,0.0,0.0,0.0,0.0,0.0,0.0,0.0,0.0,0.0,0.0,0.0,0.0,0.0,0.0,0.0,0.0,0.0,0.0,0.0,0.0,0.0,0.0,0.0,0.0,0.0,0.0,0.0,0.0,0.0,0.0,0.0,0.0,0.0,0.0,0.0,0.0,0.0,0.0,0.0,0.0,0.0,0.0,0.0,0.0,0.0,0.0,0.0,0.0,0.0,0.0,0.0,0.0,0.0,0.0,0.0,0.0,0.0,0.0,0.0,0.0,0.0,0.0,0.0,0.0,0.0,0.0,0.0,0.0,0.0,0.0,0.0,0.0,0.0,0.0,0.0,0.0,0.0,0.0,0.0,0.0,0.0,0.0,0.0,0.0,0.0,0.0,0.0,0.0,0.0,0.0,0.0,0.0,0.0,0.0,0.0,0.0,0.0,0.0,0.0,0.0,0.0,0.0,0.0,0.0,0.0,0.0,0.0,0.0,0.0,0.0,0.0,0.0,0.0,0.0,0.0,0.0,0.0,0.0,0.0,0.0,0.0,0.0,0.0,0.0,0.0,0.0,0.0,0.0,0.0,0.0,0.0,0.0,0.0,0.0,0.0,0.0,0.0,0.0,0.0,0.0,0.0,0.0,0.0,0.0,0.0,0.0,0.0,0.0,0.0,0.0,0.0,0.0,0.0,0.0,0.0,0.0,0.0,0.0,0.0,0.0,0.0,0.0,0.0,0.0,0.0,0.0,0.0,0.0,0.0,0.0,0.0,0.0,0.0,0.0,0.0,0.0,0.0,0.0,0.0,0.0,0.0,0.0,0.0,0.0,0.0,0.0,0.0,0.0,0.0,0.0,0.0,0.0,0.0,0.0,0.0,0.0,0.0,0.0,0.0,0.0,0.0,0.0,0.0,0.0,0.0,0.0,0.0,0.0,0.0,0.0,0.0,0.0,0.0,0.0,0.0,0.0,0.0,0.0,0.0,0.0,0.0,0.0,0.0,0.0,0.0,0.0,0.0,0.0,0.0,0.0,0.0,0.0,0.0,0.0,0.0,0.0,0.0,0.0,0.0,0.0,0.0,0.0,0.0,0.0,0.0,0.0,0.0,0.0,0.0,0.0,0.0,0.0,0.0,0.0,0.0,0.0,0.0,0.0,0.0,0.0,0.0,0.0,0.0,0.0,0.0,0.0,0.0,0.0,0.0,0.0,0.0,0.0,0.0,0.0,0.0,0.0,0.0,0.0,0.0,0.0,0.0,0.0,0.0,0.0,0.0,0.0,0.0,0.0,0.0,0.0,0.0,0.0,0.0,0.0,0.0,0.0,0.0,0.0,0.0,0.0,0.0,0.0,0.0,0.0,0.0,0.0,0.0,0.0,0.0,0.0,0.0,0.0,0.0,0.0,0.0,0.0,0.0,0.0,0.0,0.0,0.0,0.0,0.0,0.0,0.0,0.0,0.0,0.0,0.0,0.0,0.0,0.0,0.0,0.0,0.0,0.0,0.0,0.0,0.0,0.0,0.0,0.0,0.0,0.0,0.0,0.0,0.0,0.0,0.0,0.0,0.0,0.0,0.0,0.0,0.0,0.0,0.0,0.0,0.0,0.0,0.0,0.0,0.0,0.0,0.0,0.0,0.0,0.0,0.0,0.0,0.0,0.0,0.0,0.0,0.0,0.0,0.0,0.0,0.0,0.0,0.0,0.0,0.0,0.0,0.0,0.0,0.0,0.0,0.0,0.0,0.0,0.0,0.0,0.0,0.0,0.0,0.0,0.0,0.0,0.0,0.0,0.0,0.0,0.0,0.0,0.0,0.0,0.0,0.0,0.0,0.0,0.0,0.0,0.0,0.0,0.0,0.0,0.0,0.0,0.0,0.0,0.0,0.0,0.0,0.0,0.0,0.0,0.0,0.0,0.0,0.0,0.0,0.0,0.0,0.0,0.0,0.0,0.0,0.0,0.0,0.0,0.0,0.0,0.0,0.0,0.0,0.0,0.0,0.0,0.0,0.0,0.0,0.0108,0.0312,0.0,0.0,0.0,0.0,0.0,0.0,0.0,0.0,0.0,0.0,0.0,0.0,0.0,0.0,0.0,0.0,0.0,0.0,0.0,0.0,0.0,0.0,0.0,0.0,0.0,0.0,0.0,0.0,0.0,0.0,0.0,0.0,0.0,0.0,0.0,0.0,0.0,0.0,0.0,0.0,0.0,0.0,0.0,0.0,0.0,0.0,0.0,0.0,0.0,0.0,0.0,0.0,0.0,0.0,0.0,0.0,0.0,0.0,0.0,0.0,0.0,0.0,0.0,0.0,0.0,0.0,0.0,0.0,0.0,0.0,0.0,0.0,0.0,0.0,0.0,0.0,0.0,0.0,0.0,0.0,0.0,0.0,0.0,0.0,0.0,0.0,0.0,0.0,0.0,0.0,0.0,0.0,0.0,0.0,0.0,0.0,0.0,0.0,0.0,0.0,0.0,0.0,0.0,0.0,0.0,0.0,0.0,0.0,0.0,0.0,0.0,0.0,0.0,0.0,0.1196,0.0,0.0,0.0,0.0,0.0,0.0,0.0,0.0,0.0,0.0,0.0,0.0,0.0,0.0,0.0,0.0,0.0,0.0,0.0,0.0,0.0,0.0,0.0,0.0,0.0,0.0,0.0,0.0,0.0,0.0,0.0,0.0,0.0,0.0,0.0,0.0,0.0,0.0,0.0,0.0,0.0,0.0,0.0,0.0,0.0,0.0,0.0,0.0,0.0,0.0,0.0,0.0,0.0,0.0,0.0,0.0,0.0,0.0,0.0,0.0,0.0,0.0,0.0,0.0,0.0,0.0,0.0,0.0,0.0,0.0,0.0,0.0,0.0,0.0,0.0,0.0,0.0,0.0,0.0,0.0,0.0,0.0,0.0,0.0,0.0,0.0,0.0,0.0,0.0,0.0,0.0,0.0,0.0,0.0,0.0,0.0,0.0,0.0,0.0,0.0,0.0,0.0,0.0,0.0,0.0,0.0,0.0,0.0,0.0,0.0,0.0,0.0,0.0536,0.1089,0.0,0.0,0.0,0.0,0.0,0.0,0.0,0.0,0.0,0.0,0.0,0.0,0.0,0.0,0.0,0.0,0.0,0.0,0.0,0.0,0.0,0.0,0.0,0.0,0.0,0.0,0.0,0.0,0.0,0.0,0.0,0.0,0.0,0.0,0.0,0.0,0.0,0.0,0.0,0.0,0.0,0.0,0.0,0.0,0.0,0.0,0.0,0.0,0.0,0.0,0.0,0.0,0.0,0.0,0.0,0.0,0.0,0.0,0.0,0.0,0.0,0.0,0.0,0.0,0.0,0.0,0.0,0.0,0.0,0.0,0.0,0.0,0.0,0.0,0.0,0.0,0.0,0.0,0.0,0.0,0.0,0.0,0.0,0.0,0.0,0.0,0.0,0.0,0.0,0.0,0.0,0.0,0.0,0.0,0.0,0.0,0.0,0.0,0.0,0.0,0.0,0.0,0.0,0.0,0.0,0.0,0.0,0.0,0.0,0.0,0.0989,0.074,0.0264,0.1036,0.1586,0.1734,0.0,0.0,0.0,0.0,0.0,0.0,0.0,0.0,0.0,0.0,0.0,0.0,0.0,0.0,0.0,0.0,0.0,0.0,0.0,0.0,0.0,0.0,0.0,0.0,0.0,0.0,0.0,0.0,0.0,0.0,0.0,0.0,0.0,0.0,0.0,0.0,0.0,0.0,0.0,0.0,0.0,0.0,0.0,0.0,0.0,0.0,0.0,0.0,0.0,0.0,0.0,0.0,0.0,0.0,0.0,0.0,0.0,0.0,0.0,0.0,0.0,0.0,0.0,0.0,0.0,0.0,0.0,0.0,0.0,0.0,0.0,0.0,0.0,0.0,0.0,0.0,0.0,0.0,0.0,0.0,0.0,0.0,0.0,0.0,0.0,0.0,0.0,0.0,0.0,0.0,0.0,0.0,0.0,0.0,0.0,0.0,0.0,0.0,0.0,0.0,0.0,0.0,0.0,0.0,0.0,0.0,0.0,0.0,0.0,0.3371,0.2527,0.0779,0.1395,0.1732,0.0,0.0,0.0,0.0,0.0,0.0,0.0,0.0,0.0,0.0,0.0,0.0,0.0,0.0,0.0,0.0,0.0,0.0,0.0,0.0,0.0,0.0,0.0,0.0,0.0,0.0,0.0,0.0,0.0,0.0,0.0,0.0,0.0,0.0,0.0,0.0,0.0,0.0,0.0,0.0,0.0,0.0,0.0,0.0,0.0,0.0,0.0,0.0,0.0,0.0,0.0,0.0,0.0,0.0,0.0,0.0,0.0,0.0,0.0,0.0,0.0,0.0,0.0,0.0,0.0,0.0,0.0,0.0,0.0,0.0,0.0,0.0,0.0,0.0,0.0,0.0,0.0,0.0,0.0,0.0,0.0,0.0,0.0,0.0,0.0,0.0,0.0,0.0,0.0,0.0,0.0,0.0,0.0,0.0,0.0,0.0,0.0,0.0,0.0,0.0,0.0,0.0,0.0,0.0,0.0,0.0,0.0,0.0,0.0,0.1955,0.2128,0.2096,0.1856,0.1743,0.1813,0.0,0.0,0.0,0.0,0.0,0.0,0.0,0.0,0.0,0.0,0.0,0.0,0.0,0.0,0.0,0.0,0.0,0.0,0.0,0.0,0.0,0.0,0.0,0.0,0.0,0.0,0.0,0.0,0.0,0.0,0.0,0.0,0.0,0.0,0.0,0.0,0.0,0.0,0.0,0.0,0.0,0.0,0.0,0.0,0.0,0.0,0.0,0.0,0.0,0.0,0.0,0.0,0.0,0.0,0.0,0.0,0.0,0.0,0.0,0.0,0.0,0.0,0.0,0.0,0.0,0.0,0.0,0.0,0.0,0.0,0.0,0.0,0.0,0.0,0.0,0.0,0.0,0.0,0.0,0.0,0.0,0.0,0.0,0.0,0.0,0.0,0.0,0.0,0.0,0.0,0.0,0.0,0.0,0.0,0.0,0.0,0.0,0.0,0.0,0.0,0.0,0.0,0.0,0.0,0.0,0.0,0.0,0.0,0.0,0.1741,0.0,0.2092,0.0,0.214,0.199,0.0,0.0,0.0,0.0,0.0,0.0,0.0,0.0,0.0,0.0,0.0,0.0,0.0,0.0,0.0,0.0,0.0,0.0,0.0,0.0,0.0,0.0,0.0,0.0,0.0,0.0,0.0,0.0,0.0,0.0,0.0,0.0,0.0,0.0,0.0,0.0,0.0,0.0,0.0,0.0,0.0,0.0,0.0,0.0,0.0,0.0,0.0,0.0,0.0,0.0,0.0,0.0,0.0,0.0,0.0,0.0,0.0,0.0,0.0,0.0,0.0,0.0,0.0,0.0,0.0,0.0,0.0,0.0,0.0,0.0,0.0,0.0,0.0,0.0,0.0,0.0,0.0,0.0,0.0,0.0,0.0,0.0,0.0,0.0,0.0,0.0,0.0,0.0,0.0,0.0,0.0,0.0,0.0,0.0,0.0,0.0,0.0,0.0,0.0,0.0,0.0,0.0,0.0,0.0,0.0,0.0,0.0,0.0,0.1756,0.3,0.2931,0.2751,0.2528,0.2547,0.2288,0.0,0.0,0.0,0.0,0.0,0.0,0.0,0.0,0.0,0.0,0.0,0.0,0.0,0.0,0.0,0.0,0.0,0.0,0.0,0.0,0.0,0.0,0.0,0.0,0.0,0.0,0.0,0.0,0.0,0.0,0.0,0.0,0.0,0.0,0.0,0.0,0.0,0.0,0.0,0.0,0.0,0.0,0.0,0.0,0.0,0.0,0.0,0.0,0.0,0.0,0.0,0.0,0.0,0.0,0.0,0.0,0.0,0.0,0.0,0.0,0.0,0.0,0.0,0.0,0.0,0.0,0.0,0.0,0.0,0.0,0.0,0.0,0.0,0.0,0.0,0.0,0.0,0.0,0.0,0.0,0.0,0.0,0.0,0.0,0.0,0.0,0.0,0.0,0.0,0.0,0.0,0.0,0.0,0.0,0.0,0.0,0.0,0.0,0.0,0.0,0.0,0.0,0.0,0.0,0.0,0.0,0.0,0.0,0.0,0.2533,0.2775,0.2971,0.3103,0.27,0.2471,0.0,0.0,0.0,0.0,0.0,0.0,0.0,0.0,0.0,0.0,0.0,0.0,0.0,0.0,0.0,0.0,0.0,0.0,0.0,0.0,0.0,0.0,0.0,0.0,0.0,0.0,0.0,0.0,0.0,0.0,0.0,0.0,0.0,0.0,0.0,0.0,0.0,0.0,0.0,0.0,0.0,0.0,0.0,0.0,0.0,0.0,0.0,0.0,0.0,0.0,0.0,0.0,0.0,0.0,0.0,0.0,0.0,0.0,0.0,0.0,0.0,0.0,0.0,0.0,0.0,0.0,0.0,0.0,0.0,0.0,0.0,0.0,0.0,0.0,0.0,0.0,0.0,0.0,0.0,0.0,0.0,0.0,0.0,0.0,0.0,0.0,0.0,0.0,0.0,0.0,0.0,0.0,0.0,0.0,0.0,0.0,0.0,0.0,0.0,0.0,0.0,0.0,0.0,0.0,0.0,0.0,0.0,0.0,0.0,0.29,0.3143,0.3318,0.3387,0.2991,0.2774,0.2777,0.0,0.0,0.0,0.0,0.0,0.0,0.0,0.0,0.0,0.0,0.0,0.0,0.0,0.0,0.0,0.0,0.0,0.0,0.0,0.0,0.0,0.0,0.0,0.0,0.0,0.0,0.0,0.0,0.0,0.0,0.0,0.0,0.0,0.0,0.0,0.0,0.0,0.0,0.0,0.0,0.0,0.0,0.0,0.0,0.0,0.0,0.0,0.0,0.0,0.0,0.0,0.0,0.0,0.0,0.0,0.0,0.0,0.0,0.0,0.0,0.0,0.0,0.0,0.0,0.0,0.0,0.0,0.0,0.0,0.0,0.0,0.0,0.0,0.0,0.0,0.0,0.0,0.0,0.0,0.0,0.0,0.0,0.0,0.0,0.0,0.0,0.0,0.0,0.0,0.0,0.0,0.0,0.0,0.0,0.0,0.0,0.0,0.0,0.0,0.0,0.0,0.0,0.0,0.0,0.0,0.0,0.0,0.0,0.3912,0.3953,0.3804,0.3474,0.3432,0.3187,0.0,0.0,0.0,0.0,0.0,0.0,0.0,0.0,0.0,0.0,0.0,0.0,0.0,0.0,0.0,0.0,0.0,0.0,0.0,0.0,0.0,0.0,0.0,0.0,0.0,0.0,0.0,0.0,0.0,0.0,0.0,0.0,0.0,0.0,0.0,0.0,0.0,0.0,0.0,0.0,0.0,0.0,0.0,0.0,0.0,0.0,0.0,0.0,0.0,0.0,0.0,0.0,0.0,0.0,0.0,0.0,0.0,0.0,0.0,0.0,0.0,0.0,0.0,0.0,0.0,0.0,0.0,0.0,0.0,0.0,0.0,0.0,0.0,0.0,0.0,0.0,0.0,0.0,0.0,0.0,0.0,0.0,0.0,0.0,0.0,0.0,0.0,0.0,0.0,0.0,0.0,0.0,0.0,0.0,0.0,0.0,0.0,0.0,0.0,0.0,0.0,0.0,0.0,0.0,0.0,0.0,0.0,0.0,0.0,0.4133,0.4555,0.46,0.4224,0.3878,0.352,0.0,0.0,0.0,0.0,0.0,0.0,0.0,0.0,0.0,0.0,0.0,0.0,0.0,0.0,0.0,0.0,0.0,0.0,0.0,0.0,0.0,0.0,0.0,0.0,0.0,0.0,0.0,0.0,0.0,0.0,0.0,0.0,0.0,0.0,0.0,0.0,0.0,0.0,0.0,0.0,0.0,0.0,0.0,0.0,0.0,0.0,0.0,0.0,0.0,0.0,0.0,0.0,0.0,0.0,0.0,0.0,0.0,0.0,0.0,0.0,0.0,0.0,0.0,0.0,0.0,0.0,0.0,0.0,0.0,0.0,0.0,0.0,0.0,0.0,0.0,0.0,0.0,0.0,0.0,0.0,0.0,0.0,0.0,0.0,0.0,0.0,0.0,0.0,0.0,0.0,0.0,0.0,0.0,0.0,0.0,0.0,0.0,0.0,0.0,0.0,0.0,0.0,0.0,0.0,0.0,0.0,0.0,0.0,0.4425,0.4711,0.516,0.5223,0.4875,0.4415,0.3965,0.0,0.0,0.0,0.0,0.0,0.0,0.0,0.0,0.0,0.0,0.0,0.0,0.0,0.0,0.0,0.0,0.0,0.0,0.0,0.0,0.0,0.0,0.0,0.0,0.0,0.0,0.0,0.0,0.0,0.0,0.0,0.0,0.0,0.0,0.0,0.0,0.0,0.0,0.0,0.0,0.0,0.0,0.0,0.0,0.0,0.0,0.0,0.0,0.0,0.0,0.0,0.0,0.0,0.0,0.0,0.0,0.0,0.0,0.0,0.0,0.0,0.0,0.0,0.0,0.0,0.0,0.0,0.0,0.0,0.0,0.0,0.0,0.0,0.0,0.0,0.0,0.0,0.0,0.0,0.0,0.0,0.0,0.0,0.0,0.0,0.0,0.0,0.0,0.0,0.0,0.0,0.0,0.0,0.0,0.0,0.0,0.0,0.0,0.0,0.0,0.0,0.0,0.0,0.0,0.0,0.0,0.0,0.0,0.4942,0.5379,0.5666,0.5677,0.541,0.4966,0.4433,0.0,0.0,0.0,0.0,0.0,0.0,0.0,0.0,0.0,0.0,0.0,0.0,0.0,0.0,0.0,0.0,0.0,0.0,0.0,0.0,0.0,0.0,0.0,0.0,0.0,0.0,0.0,0.0,0.0,0.0,0.0,0.0,0.0,0.0,0.0,0.0,0.0,0.0,0.0,0.0,0.0,0.0,0.0,0.0,0.0,0.0,0.0,0.0,0.0,0.0,0.0,0.0,0.0,0.0,0.0,0.0,0.0,0.0,0.0,0.0,0.0,0.0,0.0,0.0,0.0,0.0,0.0,0.0,0.0,0.0,0.0,0.0,0.0,0.0,0.0,0.0,0.0,0.0,0.0,0.0,0.0,0.0,0.0,0.0,0.0,0.0,0.0,0.0,0.0,0.0,0.0,0.0,0.0,0.0,0.0,0.0,0.0,0.0,0.0,0.0,0.0,0.0,0.0,0.0,0.0,0.0,0.0,0.0,0.5015,0.532,0.5637,0.5692,0.549,0.5069,0.4575,0.0,0.0,0.0,0.0,0.0,0.0,0.0,0.0,0.0,0.0,0.0,0.0,0.0,0.0,0.0,0.0,0.0,0.0,0.0,0.0,0.0,0.0,0.0,0.0,0.0,0.0,0.0,0.0,0.0,0.0,0.0,0.0,0.0,0.0,0.0,0.0,0.0,0.0,0.0,0.0,0.0,0.0,0.0,0.0,0.0,0.0,0.0,0.0,0.1848,0.0,0.0,0.0,0.0,0.0,0.0,0.0,0.0,0.0,0.0,0.0,0.0,0.0,0.0,0.0,0.0,0.0,0.0,0.0,0.0,0.0,0.0,0.0,0.0,0.0,0.0,0.0,0.0,0.0,0.0,0.0,0.0,0.0,0.0,0.0,0.0,0.0,0.0,0.0,0.0,0.0,0.0,0.0,0.0,0.0,0.0,0.0,0.0,0.0,0.0,0.0,0.0,0.0,0.0,0.0,0.0,0.0,0.0,0.0,0.5257,0.5609,0.5893,0.5903,0.5635,0.5316,0.482,0.0,0.0,0.0,0.0,0.0,0.0,0.0,0.0,0.0,0.0,0.0,0.0,0.0,0.0,0.0,0.0,0.0,0.0,0.0,0.0,0.0,0.0,0.0,0.0,0.0,0.0,0.0,0.0,0.0,0.0,0.0,0.0,0.0,0.0,0.0,0.0,0.0,0.0,0.0,0.0,0.0,0.0,0.0,0.0,0.0,0.0,0.0,0.0,0.0,0.0,0.0,0.0,0.0,0.0,0.0,0.0,0.0,0.0,0.0,0.0,0.0,0.0,0.0,0.0,0.0,0.0,0.0,0.0,0.0,0.0,0.0,0.0,0.0,0.0,0.0,0.0,0.0,0.0,0.0,0.0,0.0,0.0,0.0,0.0,0.0,0.0,0.0,0.0,0.0,0.0,0.0,0.0,0.0,0.0,0.0,0.0,0.0,0.0,0.0,0.0,0.0,0.0,0.0,0.0,0.0,0.0,0.0,0.5032,0.5505,0.5983,0.6199,0.6153,0.5815,0.5532,0.5031,0.4271,0.0,0.0,0.0,0.0,0.0,0.0,0.0,0.0,0.0,0.0,0.0,0.0,0.0,0.0,0.0,0.0,0.0,0.0,0.0,0.0,0.0,0.0,0.0,0.0,0.0,0.0,0.0,0.0,0.0,0.0,0.0,0.0,0.0,0.0,0.0,0.0,0.0,0.0,0.0,0.0,0.0,0.0,0.0,0.0,0.0,0.0,0.0,0.0,0.2339,0.0,0.0,0.0,0.0,0.0,0.0,0.0,0.0,0.0,0.0,0.0,0.0,0.0,0.0,0.0,0.0,0.0,0.0,0.0,0.0,0.0,0.0,0.0,0.0,0.0,0.0,0.0,0.0,0.0,0.0,0.0,0.0,0.0,0.0,0.0,0.0,0.0,0.0,0.0,0.0,0.0,0.0,0.0,0.0,0.0,0.0,0.0,0.0,0.0,0.0,0.0,0.0,0.0,0.0,0.0,0.0,0.4998,0.5097,0.5406,0.5998,0.6202,0.6143,0.581,0.5532,0.5098,0.4464,0.0,0.0,0.0,0.0,0.0,0.0,0.0,0.0,0.0,0.0,0.0,0.0,0.0,0.0,0.0,0.0,0.0,0.0,0.0,0.0,0.0,0.0,0.0,0.0,0.0,0.0,0.0,0.0,0.0,0.0,0.0,0.0,0.0,0.0,0.0,0.0,0.0,0.0,0.0,0.0,0.0,0.0,0.0,0.0,0.0,0.0,0.0,0.0,0.0,0.2827,0.0,0.0,0.0,0.0,0.0,0.0,0.0,0.0,0.0,0.0,0.0,0.0,0.0,0.0,0.0,0.0,0.0,0.0,0.0,0.0,0.0,0.0,0.0,0.0,0.0,0.0,0.0,0.0,0.0,0.0,0.0,0.0,0.0,0.0,0.0,0.0,0.0,0.0,0.0,0.0,0.0,0.0,0.0,0.0,0.0,0.0,0.0,0.0,0.0,0.0,0.0,0.0,0.0,0.0,0.0,0.4955,0.5201,0.5578,0.6132,0.6243,0.6134,0.5815,0.5448,0.4996,0.0,0.0,0.0,0.0,0.0,0.0,0.0,0.0,0.0,0.0,0.0,0.0,0.0,0.0,0.0,0.0,0.0,0.0,0.0,0.0,0.0,0.0,0.0,0.0,0.0,0.0,0.0,0.0,0.0,0.0,0.0,0.0,0.0,0.0,0.0,0.0,0.0,0.0,0.0,0.0,0.0,0.0,0.0,0.0,0.0,0.0,0.0,0.0,0.0,0.2828,0.2957,0.0,0.0,0.0,0.0,0.0,0.0,0.0,0.0,0.0,0.0,0.0,0.0,0.0,0.0,0.0,0.0,0.0,0.0,0.0,0.0,0.0,0.0,0.0,0.0,0.0,0.0,0.0,0.0,0.0,0.0,0.0,0.0,0.0,0.0,0.0,0.0,0.0,0.0,0.0,0.0,0.0,0.0,0.0,0.0,0.0,0.0,0.0,0.0,0.0,0.0,0.0,0.0,0.0,0.0,0.0,0.4877,0.5278,0.5743,0.6269,0.629,0.6134,0.5806,0.5384,0.493,0.0,0.0,0.0,0.0,0.0,0.0,0.0,0.0,0.0,0.0,0.0,0.0,0.0,0.0,0.0,0.0,0.0,0.0,0.0,0.0,0.0,0.0,0.0,0.0,0.0,0.0,0.0,0.0,0.0,0.0,0.0,0.0,0.0,0.0,0.0,0.0,0.0,0.0,0.0,0.0,0.0,0.0,0.0,0.0201,0.0,0.0,0.0,0.0,0.281,0.318,0.0,0.0,0.0,0.0,0.0,0.0,0.0,0.0,0.0,0.0,0.0,0.0,0.0,0.0,0.0,0.0,0.0,0.0,0.0,0.0,0.0,0.0,0.0,0.0,0.0,0.0,0.0,0.0,0.0,0.0,0.0,0.0,0.0,0.0,0.0,0.0,0.0,0.0,0.0,0.0,0.0,0.0,0.0,0.0,0.0,0.0,0.0,0.0,0.0,0.0,0.0,0.0,0.0,0.0,0.0,0.0,0.4868,0.5235,0.5696,0.6256,0.629,0.6134,0.5806,0.5523,0.5003,0.0,0.0,0.0,0.0,0.0,0.0,0.0,0.0,0.0,0.0,0.0,0.0,0.0,0.0,0.0,0.0,0.0,0.0,0.0,0.0,0.0,0.0,0.0,0.0,0.0,0.0,0.0,0.0,0.0,0.0,0.0,0.0,0.0,0.0,0.0,0.0,0.0,0.0,0.0,0.0,0.0,0.0,0.0,0.0902,0.173,0.0,0.0,0.3143,0.3378,0.3873,0.0,0.0,0.0,0.0,0.0,0.0,0.0,0.0,0.0,0.0,0.0,0.0,0.0,0.0,0.0,0.0,0.0,0.0,0.0,0.0,0.0,0.0,0.0,0.0,0.0,0.0,0.0,0.0,0.0,0.0,0.0,0.0,0.0,0.0,0.0,0.0,0.0,0.0,0.0,0.0,0.0,0.0,0.0,0.0,0.0,0.0,0.0,0.0,0.0,0.0,0.0,0.0,0.0,0.0,0.0,0.4182,0.4874,0.5314,0.5774,0.6272,0.6192,0.6036,0.5794,0.5438,0.4898,0.0,0.0,0.0,0.0,0.0,0.0,0.0,0.0,0.0,0.0,0.0,0.0,0.0,0.0,0.0,0.0,0.0,0.0,0.0,0.0,0.0,0.0,0.0,0.0,0.0,0.0,0.0,0.0,0.0,0.0,0.0,0.0,0.0,0.0,0.0,0.0,0.0,0.0,0.0,0.0,0.0,0.0,0.0,0.1849,0.0,0.0,0.0,0.4121,0.4264,0.0,0.0,0.0,0.0,0.0,0.0,0.0,0.0,0.0,0.0,0.0,0.0,0.0,0.0,0.0,0.0,0.0,0.0,0.0,0.0,0.0,0.0,0.0,0.0,0.0,0.0,0.0,0.0,0.0,0.0,0.0,0.0,0.0,0.0,0.0,0.0,0.0,0.0,0.0,0.0,0.0,0.0,0.0,0.0,0.0,0.0,0.0,0.0,0.0,0.0,0.0,0.0,0.0,0.0,0.0,0.0,0.0,0.4896,0.5354,0.5787,0.6163,0.6052,0.5924,0.5749,0.5366,0.0,0.0,0.0,0.0,0.0,0.0,0.0,0.0,0.0,0.0,0.0,0.0,0.0,0.0,0.0,0.0,0.0,0.0,0.0,0.0,0.0,0.0,0.0,0.0,0.0,0.0,0.0,0.1573,0.0,0.0,0.0,0.0,0.0,0.0,0.0,0.0,0.0,0.0,0.0,0.0,0.0,0.0,0.0939,0.013,0.2554,0.4577,0.0,0.0,0.4882,0.4989,0.489,0.4643,0.0,0.0,0.0,0.0,0.0,0.0,0.0,0.0,0.0,0.0,0.0,0.0,0.0,0.0,0.0,0.0,0.0,0.0,0.0,0.0,0.0,0.0,0.0,0.0,0.0,0.0,0.0,0.0,0.0,0.0,0.0,0.0,0.0,0.0,0.0,0.0,0.0,0.0,0.0,0.0,0.0,0.0,0.0,0.0,0.0,0.0,0.0,0.0,0.0,0.0,0.0,0.0,0.0,0.0,0.4291,0.4892,0.5354,0.5667,0.5833,0.5953,0.5873,0.563,0.547,0.495,0.0,0.0,0.0,0.0,0.0,0.0,0.0,0.0,0.0,0.0,0.0,0.0,0.0,0.0,0.0,0.0,0.0,0.0,0.0,0.0,0.0,0.0,0.0,0.0,0.0,0.0,0.0,0.0,0.0,0.0,0.0,0.0,0.0,0.0,0.0,0.0,0.0,0.0,0.0,0.0,0.0,0.3536,0.0432,0.2777,0.4954,0.0,0.5267,0.5254,0.5271,0.5474,0.535,0.4595,0.0,0.0,0.0,0.0,0.0,0.0,0.0,0.0,0.0,0.0,0.0,0.0,0.0,0.0,0.0,0.0,0.0,0.0,0.0,0.0,0.0,0.0,0.0,0.0,0.0,0.0,0.0,0.0,0.0,0.0,0.0,0.0,0.0,0.0,0.0,0.0,0.0,0.0,0.0,0.0,0.0,0.0,0.0,0.0,0.0,0.0,0.0,0.0,0.0,0.0,0.0,0.0,0.0,0.4297,0.4885,0.527,0.5618,0.5907,0.5886,0.5828,0.5734,0.5913,0.5663,0.0,0.0,0.0,0.0,0.0,0.0,0.0,0.0,0.0,0.0,0.0,0.0,0.0,0.0,0.0,0.0,0.0,0.0,0.0,0.0,0.0,0.0,0.0,0.0,0.0,0.0,0.0,0.0,0.1662,0.13,0.0588,0.0,0.0,0.0,0.0,0.0,0.0,0.0,0.0,0.0,0.0,0.5513,0.3382,0.447,0.0,0.0,0.5747,0.5685,0.5885,0.5684,0.5354,0.4929,0.4558,0.0,0.0,0.0,0.0,0.0,0.0,0.0,0.0,0.0,0.0,0.0,0.0,0.0,0.0,0.0,0.0,0.0,0.0,0.0,0.0,0.0,0.0,0.0,0.0,0.0,0.0,0.0,0.0,0.0,0.0,0.0,0.0,0.0,0.0,0.0,0.0,0.0,0.0,0.0,0.0,0.0,0.0,0.0,0.0,0.0,0.0,0.0,0.0,0.0,0.0,0.0,0.0,0.4291,0.4884,0.5278,0.5576,0.5805,0.5854,0.5827,0.5753,0.6054,0.6022,0.0,0.0,0.0,0.0,0.0,0.0,0.0,0.0,0.0,0.0,0.0,0.0,0.0,0.0,0.0,0.0,0.0,0.0,0.0,0.0,0.0,0.0,0.0,0.0,0.0,0.0,0.0,0.0,0.1934,0.1516,0.1198,0.0,0.0,0.0,0.0,0.0,0.0,0.0,0.0,0.0,0.0,0.6453,0.5737,0.5778,0.6009,0.6261,0.6043,0.5929,0.6115,0.5783,0.5416,0.5099,0.0,0.0,0.0,0.0,0.0,0.0,0.0,0.0,0.0,0.0,0.0,0.0,0.0,0.0,0.0,0.0,0.0,0.0,0.0,0.0,0.0,0.0,0.0,0.0,0.0,0.0,0.0,0.4788,0.0,0.0,0.4058,0.0,0.0,0.0,0.0,0.0,0.0,0.0,0.0,0.0,0.0,0.0,0.0,0.0,0.0,0.0,0.0,0.0,0.0,0.0,0.0,0.0,0.0,0.4307,0.4903,0.5355,0.5535,0.5431,0.58,0.5884,0.5665,0.5772,0.5843,0.5837,0.0,0.0,0.0,0.0,0.0,0.0,0.0,0.0,0.0,0.0,0.0,0.0,0.0,0.0,0.0,0.0,0.0,0.0,0.0,0.0,0.0,0.0,0.0,0.0,0.0,0.0,0.3448,0.3015,0.262,0.0,0.0,0.0,0.0,0.0,0.0,0.0,0.0,0.0,0.281,0.4563,0.6122,0.6888,0.6393,0.6025,0.6265,0.6133,0.5949,0.5848,0.5803,0.5601,0.0,0.0,0.0,0.0,0.0,0.0,0.0,0.0,0.0,0.0,0.0,0.0,0.0,0.0,0.0,0.0,0.0,0.0,0.0,0.0,0.0,0.0,0.0,0.0,0.0,0.0,0.0,0.6858,0.6573,0.0,0.0,0.0,0.0,0.0,0.0,0.0,0.0,0.0,0.0,0.0,0.4643,0.4518,0.0,0.0,0.0,0.0,0.0,0.0,0.0,0.0,0.0,0.0,0.0,0.0,0.4521,0.4895,0.5354,0.5574,0.5544,0.5752,0.6151,0.671,0.7069,0.7308,0.7398,0.0,0.0,0.0,0.0,0.0,0.0,0.0,0.0,0.0,0.0,0.0,0.0,0.0,0.0,0.0,0.0,0.0,0.0,0.0,0.0,0.0,0.0,0.0,0.0,0.0,0.2813,0.0,0.0,0.0,0.0,0.0,0.0,0.0,0.0,0.0,0.0,0.0,0.4763,0.5118,0.5837,0.6396,0.6541,0.6502,0.6461,0.0,0.0,0.0,0.0,0.0,0.0,0.0,0.0,0.0,0.0,0.0,0.0,0.0,0.0,0.7482,0.5537,0.5074,0.5122,0.5493,0.0,0.0,0.0,0.0,0.0,0.0,0.0,0.0,0.0,0.0,0.0,0.0,0.0,0.0,0.7977,0.8048,0.7555,0.0,0.0,0.0,0.0,0.0,0.0,0.0,0.0,0.5348,0.528,0.553,0.5323,0.5199,0.5135,0.4784,0.427,0.0,0.0,0.0,0.0,0.0,0.0,0.0,0.0,0.4658,0.4977,0.562,0.5834,0.5626,0.6275,0.6882,0.7407,0.8128,0.857,0.8656,0.841,0.788,0.0,0.0,0.0,0.0,0.0,0.0,0.0,0.0,0.0,0.0,0.0,0.0,0.0,0.0,0.0,0.0,0.0,0.0,0.0,0.0,0.0,0.0,0.0,0.2922,0.0,0.0,0.0,0.0,0.0,0.0,0.0,0.0,0.0,0.4851,0.5344,0.5778,0.6084,0.6406,0.6525,0.6334,0.0,0.0,0.0,0.0,0.0,0.0,0.0,0.6187,0.6235,0.6105,0.5956,0.5874,0.7533,0.8411,0.6855,0.0,0.0,0.6706,0.6319,0.638,0.68,0.6356,0.6159,0.7001,0.6301,0.5787,0.0,0.0,0.0,0.0,0.7662,0.0,0.0,0.0,0.8225,0.8558,0.0,0.8412,0.0,0.0,0.0,0.0,0.6899,0.6631,0.0,0.0,0.6532,0.6373,0.6322,0.603,0.5823,0.5689,0.5762,0.5486,0.491,0.3961,0.0,0.0,0.0,0.0,0.0,0.0,0.4733,0.5213,0.6137,0.6335,0.581,0.735,0.8035,0.7756,0.8923,0.9565,0.9524,0.9348,0.8831,0.7973,0.7341,0.0,0.0,0.0,0.0,0.0,0.0,0.0,0.0,0.0,0.0,0.0,0.0,0.0,0.0,0.0,0.0,0.0,0.0,0.0,0.0,0.3115,0.0,0.0,0.0,0.0,0.0,0.0,0.0,0.0,0.0,0.0,0.5011,0.5261,0.5534,0.5811,0.0,0.0,0.0,0.0,0.6933,0.749,0.7112,0.6787,0.6901,0.6911,0.6846,0.6742,0.0,0.0,0.6836,0.7551,0.7965,0.7028,0.7332,0.7509,0.8166,0.789,0.7833,0.8445,0.7502,0.6715,0.7072,0.6891,0.6477,1.1749,0.0,0.0,0.0,0.0,1.0088,1.0521,1.1184,1.1081,1.0939,1.0736,1.0313,0.0,0.0,0.0,0.0,0.0,0.0,0.8906,0.9409,0.8814,0.8589,0.8734,0.7758,0.734,0.7346,0.6415,0.5932,0.5869,0.5266,0.4555,0.3761,0.0,0.0,0.0,0.0,0.5595,0.6488,0.7003,0.7446,0.7881,0.8288,0.8729,0.9231,1.0507,1.0929,1.0321,1.0237,0.9772,0.8865,0.8073,0.0,0.0,0.0,0.0,0.0,0.0,0.0,0.0,0.0,0.0,0.0,0.0,0.0,0.0,0.0,0.0,0.0,0.0,0.0,0.3057,0.3305,0.3295,0.0,0.0,0.0,0.0,0.0,0.0,0.0,0.0,0.0,0.6143,0.6093,0.6139,0.0,0.0,0.6776,0.6861,0.6927,0.712,0.7533,0.7442,0.0,0.7251,0.7131,0.708,0.717,0.7375,0.7771,0.8506,0.9928,1.0709,0.9838,1.0933,1.1756,1.0983,0.9528,0.8567,0.8658,0.8982,0.9407,0.9765,0.8539,0.7565,1.4095,1.2793,1.1825,1.1585,1.1828,1.1861,1.2229,1.2807,1.2686,1.2582,1.2426,1.1935,1.1304,1.0601,1.0065,0.0,0.0,0.0,1.0474,1.1033,1.0268,0.9847,0.9655,0.8749,0.8315,0.8296,0.7365,0.7189,0.7673,0.7355,0.6873,0.624,0.0,0.5322,0.5429,0.625,0.6836,0.7199,0.8029,0.8443,0.8448,0.9018,0.969,1.0481,1.1285,1.1522,1.1129,1.0888,1.0458,0.9786,0.8905,0.8093,0.0,0.0,0.0,0.0,0.0,0.0,0.0,0.0,0.0,0.0,0.0,0.3188,0.2372,0.0,0.0,0.0,0.2961,0.3242,0.34,0.3627,0.0,0.0,0.0,0.0,0.0,0.0,0.0,0.5904,0.6217,0.6502,0.6923,0.6875,0.6834,0.6856,0.7014,0.7108,0.7111,0.0,0.7411,0.7722,0.7706,0.766,0.7638,0.7548,0.7494,0.7621,0.7717,0.8026,0.8712,0.9832,1.0465,1.0633,1.1943,1.2786,1.1376,1.0591,1.0249,1.0145,1.0402,1.074,1.1084,0.9987,0.949,1.5998,1.5661,1.3819,1.3135,1.3275,1.3335,1.3494,1.369,1.3457,1.3651,1.4059,1.3293,1.2937,1.2847,1.202,0.0,1.2091,1.158,1.162,1.1986,1.1297,1.0608,0.9935,0.9403,0.9078,0.8946,0.8607,0.8923,0.9739,0.9637,0.9642,0.968,0.8071,0.7168,0.7096,0.8076,0.8283,0.7691,0.9236,0.9474,0.8313,0.9726,1.0821,1.1405,1.1411,1.1526,1.1781,1.1293,1.0857,1.0553,0.9712,0.8865,0.8045,0.0,0.0,0.0,0.0,0.0,0.0,0.0,0.0,0.0,0.0,0.0,0.0,0.0,0.0,0.0,0.3921,0.0,0.397,0.4026,0.0,0.0,0.0,0.6231,0.5931,0.5768,0.5893,0.6481,0.0,0.0,0.7393,0.7551,0.7525,0.722,0.7431,0.753,0.7204,0.7416,0.7716,0.7959,0.7904,0.7866,0.7933,0.7941,0.8008,0.8155,0.8125,0.8276,0.8566,0.864,0.8912,1.0034,1.135,1.2003,1.0317,1.1628,1.2746,1.2443,1.1804,1.1278,1.1519,1.1268,1.1573,1.696,1.6866,1.6241,1.5516,1.4778,1.4793,1.4751,1.4665,1.4604,1.4513,1.4385,1.4195,1.3985,1.3782,1.3567,1.3597,1.3874,1.3752,1.3777,1.391,1.3558,1.3179,1.2764,1.176,1.1171,1.0952,1.0196,0.9845,0.9873,0.974,0.9795,1.0001,1.0173,0.9841,0.9029,0.8745,0.9279,1.0629,1.1066,1.1272,1.1254,1.1436,1.1625,1.1764,1.1535,1.1339,1.1218,1.1061,1.0763,1.0233,0.9806,0.9386,0.8898,0.756,0.0,0.0,0.0,0.0,0.0,0.0,0.0,0.0,0.0,0.3516,0.3089,0.0,0.3908,0.0,0.4681,0.4794,0.4404,0.4548,0.0,0.0,0.5398,0.6656,0.6761,0.6489,0.6471,0.6915,0.7229,0.7506,0.7685,0.7814,0.7872,0.7791,0.7854,0.7881,0.7799,0.776,0.7802,0.7962,0.7977,0.796,0.8031,0.8001,0.8308,0.9093,0.9229,0.9752,1.1317,1.1595,1.1942,1.2944,1.348,1.3582,1.3149,1.3631,1.3836,1.3843,1.3629,1.3514,1.354,1.2337,1.1828,1.7309,1.7298,1.7176,1.6718,1.6025,1.5808,1.5631,1.5541,1.5408,1.5184,1.4885,1.477,1.4651,1.4508,1.4497,1.4584,1.4721,1.4716,1.4736,1.4764,1.4623,1.4257,1.3688,1.2781,1.2305,1.2169,1.1419,1.1246,1.1568,1.1511,1.1608,1.1875,1.1902,1.1832,1.1643,1.0981,1.0954,1.1562,1.1742,1.1994,1.2279,1.2153,1.1946,1.1683,1.1493,1.1272,1.0995,1.0893,1.0588,1.0118,0.9698,0.9472,0.9405,0.8278,0.7548,0.0,0.0,0.0,0.0,0.0,0.0,0.0,0.0,0.0,0.0,0.0,0.456,0.4876,0.5243,0.5317,0.493,0.513,0.5255,0.5176,0.6321,0.7157,0.7314,0.7065,0.7028,0.7382,0.7563,0.775,0.7868,0.7962,0.8001,0.8001,0.8,0.8001,0.7993,0.7949,0.7918,0.8,0.8001,0.82,0.8602,0.8701,0.9085,1.0059,1.03,1.0734,1.1828,1.228,1.2733,1.3438,1.398,1.4112,1.3721,1.4004,1.4172,1.3781,1.3986,1.4268,1.4292,1.3411,1.3016,1.7309,1.7309,1.7309,1.7211,1.7003,1.6508,1.626,1.6189,1.595,1.5703,1.5426,1.5207,1.5099,1.5093,1.5099,1.5093,1.5104,1.5111,1.5111,1.5099,1.5059,1.4605,1.3821,1.3327,1.3067,1.3012,1.2533,1.2764,1.3693,1.3676,1.3786,1.3987,1.3243,1.3232,1.3998,1.356,1.2787,1.1773,1.2065,1.2277,1.2466,1.2356,1.2039,1.1537,1.1404,1.1207,1.0903,1.074,1.0477,1.0112,0.9652,0.9511,0.9767,0.8978,0.847,0.0,0.7966,0.0,0.0,0.0,0.0,0.0,0.0,0.0,0.0,0.5343,0.54,0.5635,0.5913,0.5944,0.5615,0.5777,0.6271,0.7102,0.7463,0.7639,0.7628,0.7523,0.7544,0.7795,0.7829,0.7868,0.7986,0.8001,0.8001,0.8001,0.7991,0.7989,0.7997,0.7994,0.7994,0.8001,0.8137,0.8618,0.9316,0.9558,0.9973,1.104,1.126,1.1353,1.176,1.225,1.2693,1.3083,1.3793,1.401,1.3143,1.3763,1.3986,1.33,1.383,1.434,1.4316,1.4238,1.431,1.7309,1.7309,1.7309,1.7267,1.7216,1.696,1.6602,1.6201,1.6153,1.5983,1.5733,1.568,1.5653,1.5641,1.5653,1.566,1.5653,1.5653,1.566,1.5646,1.5424,1.5237,1.5038,1.4729,1.4462,1.4252,1.3917,1.3778,1.3766,1.357,1.3557,1.3758,1.361,1.3593,1.3779,0.0,0.0,0.0,1.3397,1.3308,1.3317,1.2663,1.2242,1.2124,1.1452,0.0,1.032,1.0696,1.0669,1.0145,1.0256,0.0,0.0,0.0,0.0,0.0,0.0,0.0,0.0,0.0,0.0,0.0,1.0898,1.0233,0.7269,0.7001,0.7004,0.6961,0.7331,0.73,0.6599,0.6527,0.6885,0.7716,0.7894,0.7921,0.7915,0.7801,0.7789,0.7946,0.7973,0.7967,0.7982,0.8001,0.8001,0.8001,0.8001,0.8001,0.8001,0.8001,0.8001,0.8038,0.8627,0.9275,0.9558,0.962,1.0268,1.1792,1.1877,1.2211,1.3595,1.4076,1.4352,1.4538,1.4472,1.4412,1.4544,1.4496,1.4322,1.4298,1.4484,1.4574,1.4352,1.4322,1.4316,1.7444,1.7309,1.7309,1.7309,0.0,1.72,1.6949,1.6572,1.6319,1.6052,1.5813,1.5813,1.5813,1.5813,1.5813,1.5813,1.5813,1.5813,1.5813,1.5795,1.5655,1.56,1.5598,1.5322,1.512,1.4987,1.4732,1.452,1.4391,1.4254,1.4154,1.4102,1.4085,1.4019,1.3898,1.4035,1.4099,1.4099,1.3931,1.3774,1.3593,1.317,1.2743,1.2311,1.187,0.0,0.0,0.0,0.0,0.0,0.0,0.0,0.0,0.0,0.0,1.0327,1.0454,1.0579,1.0701,1.0324,1.0578,1.1701,1.2164,1.1244,0.8437,0.7854,0.768,0.7869,0.8024,0.7967,0.7629,0.7549,0.7889,0.8668,0.8553,0.8302,0.8052,0.8054,0.8052,0.7996,0.8001,0.8001,0.8001,0.8001,0.8001,0.8001,0.8001,0.8001,0.8001,0.8001,0.8001,0.8001,0.8407,0.8998,0.9497,0.9731,1.0509,1.2278,1.269,1.3197,1.4628,1.4837,1.4855,1.5041,1.4903,1.4879,1.5005,1.4873,1.4736,1.4861,1.4885,1.4861,1.4718,1.461,1.4622,1.7719,1.7458,1.7423,1.7378,1.7378,1.7336,1.7164,1.6902,1.6402,0.0,0.0,1.5813,1.5813,1.5813,1.5813,1.5813,1.5813,1.5813,1.5813,1.5813,1.5813,1.5813,1.5788,1.5561,1.5459,1.5446,1.52,1.5055,1.5071,1.5035,1.4854,1.4616,1.4596,1.4438,1.4192,1.4172,1.4152,1.4099,1.4099,1.3964,1.3693,1.3623,1.3237,1.2476,1.2412,1.2,1.1206,1.1259,1.1187,1.0921,1.0948,1.1089,1.1298,1.1483,1.1681,1.1946,1.2265,1.2478,1.2529,1.2496,1.2813,1.3595,1.2602,1.1218,0.9463,0.8475,0.8151,0.8603,0.8517,0.8455,0.86,0.8605,0.8881,0.9518,0.9195,0.8722,0.8235,0.828,0.8292,0.8063,0.8001,0.8026,0.8063,0.8026,0.8063,0.8113,0.8072,0.8063,0.8088,0.8063,0.8013,0.81,0.8428,0.8837,0.9768,1.0268,1.117,1.3161,1.3535,1.3956,1.4825,1.5076,1.5064,1.5244,1.5316,1.5316,1.5202,1.51,1.5107,1.5107,1.5155,1.516,1.5148,1.5082,1.5028,1.8211,1.8125,1.7855,1.7738,1.7716,1.7415,1.7063,1.6629,1.6348,1.6052,1.5813,1.5813,1.5813,1.5813,1.5813,1.5813,1.5813,1.5813,1.5813,1.5813,1.5813,1.5813,1.5813,1.5761,1.5748,1.5721,1.5466,1.5349,1.5334,1.5124,1.4959,1.4932,1.4937,1.4761,1.4478,1.4452,1.4335,1.4105,1.4099,1.4079,1.4032,1.3743,1.3453,1.3083,1.2855,1.2429,1.1801,1.227,1.2402,1.2093,1.2342,1.2514,1.2539,1.2326,1.2198,1.2265,1.2766,1.3183,1.3387,1.3196,1.3746,1.5184,1.4129,1.2439,1.0409,0.9425,0.9009,0.9247,0.9259,0.9296,0.9417,0.9404,0.9436,0.9567,0.9529,0.9281,0.8753,0.8522,0.8345,0.8075,0.8001,0.8113,0.8299,0.8171,0.8212,0.849,0.8317,0.8149,0.8412,0.8209,0.8128,0.8407,0.9143,1.0194,1.1158,1.1658,1.2453,1.4484,1.4184,1.4166,1.5255,1.5523,1.5588,1.5683,1.5674,1.5626,1.5463,1.5237,1.5172,1.5167,1.5315,1.5428,1.544,1.5505,1.544,1.8467,1.8291,1.8133,1.8079,1.805,1.7716,1.737,1.7022,1.6748,1.6324,1.5832,1.5813,1.5813,1.5813,1.5813,1.5813,1.5813,1.5813,1.5813,1.5813,1.5813,1.5813,1.5813,1.5813,1.5813,1.5795,1.5675,1.562,1.5606,1.5486,1.5362,1.5238,1.5071,1.4941,1.4781,1.4774,1.4696,1.4584,1.4277,1.4099,1.4099,1.3955,1.3731,1.3413,1.329,1.3033,1.2638,1.2878,1.2949,1.2799,1.2926,1.3086,1.322,1.3263,1.334,1.348,1.3925,1.4233,1.4338,1.4385,1.4798,1.5673,1.4688,1.3584,1.2613,1.1544,1.0775,1.0435,1.0377,1.0149,0.9678,0.9612,0.9607,0.9611,0.9616,0.9504,0.926,0.9001,0.8721,0.8494,0.8432,0.8478,0.8606,0.8515,0.849,0.8738,0.8549,0.8602,0.9096,0.9258,0.9324,0.9497,0.9924,1.0661,1.1731,1.2072,1.2823,1.4238,1.4112,1.4376,1.5379,1.5761,1.5789,1.5813,1.5808,1.5767,1.5659,1.5564,1.5487,1.5487,1.5559,1.5659,1.5671,1.5647,1.5547,1.8765,1.8531,1.8445,1.8359,1.8284,1.8028,1.7756,1.7494,1.7277,1.6775,1.614,1.6031,1.595,1.5903,1.5891,1.5855,1.5813,1.5813,1.5813,1.5813,1.5813,1.5813,1.5813,1.5813,1.5813,1.5813,1.5813,1.5813,1.5813,1.5813,1.5695,1.5491,1.5275,1.5146,1.5109,1.5097,1.5064,1.4977,1.4538,1.4293,1.4303,1.4299,1.4186,1.394,1.3927,1.3824,1.3621,1.3617,1.3601,1.3597,1.3597,1.3697,1.3907,1.4155,1.4393,1.4605,1.4908,1.512,1.5182,1.5364,1.5574,1.5764,1.5098,1.455,1.4268,1.3458,1.2396,1.141,1.0896,1.042,0.976,0.9612,0.9612,0.9612,0.9612,0.9607,0.957,0.9368,0.9125,0.8903,0.8829,0.88,0.8866,0.8829,0.8775,0.8775,0.8891,0.9282,1.0102,1.0523,1.0648,1.1121,1.1048,1.1353,1.2205,1.2642,1.327,1.4166,1.434,1.48,1.5564,1.5801,1.5813,1.5813,1.5813,1.5772,1.5737,1.5749,1.5737,1.5683,1.5718,1.5789,1.5778,1.5677,1.5588,1.9232,1.9173,1.8875,1.8582,1.8316,1.8277,1.8102,1.7867,1.7838,1.75,1.697,1.6667,1.6395,1.617,1.6153,1.6028,1.5825,1.5813,1.5813,1.5813,1.5813,1.5813,1.5813,1.5813,1.5813,1.5813,1.5813,1.5813,1.5813,1.5813,1.5776,1.575,1.573,1.5605,1.5396,1.5369,1.526,1.5022,1.495,1.4928,1.4917,1.4917,1.4914,1.4872,1.4859,1.4852,1.4758,1.4825,1.4841,1.4836,1.4803,1.4819,1.4852,1.4897,1.493,1.4959,1.5204,1.5464,1.5681,1.5736,1.5766,1.5798,1.5698,1.5255,1.4454,1.4196,1.3284,1.167,1.0404,0.9867,0.9612,0.9612,0.9612,0.9612,0.9612,0.9607,0.9582,0.938,0.9162,0.9084,0.8952,0.8903,0.9092,0.899,0.8837,0.8892,0.9344,1.0208,1.1685,1.1693,1.1914,1.3088,1.295,1.2793,1.3709,1.4076,1.446,1.532,1.5569,1.5629,1.5766,1.5813,1.5813,1.5813,1.5813,1.5761,1.5677,1.5659,1.573,1.5659,1.5706,1.5813,1.5813,1.5778,1.5718,1.9866,1.9303,1.9159,1.9021,1.8875,1.8692,1.8529,1.8421,1.8225,1.8011,1.7798,1.7464,1.6994,1.6418,1.6104,1.5981,1.6021,1.5879,1.5813,1.5813,1.5813,1.5813,1.5813,1.5813,1.5813,1.5813,1.5813,1.5813,1.5813,1.5813,1.5813,1.5813,1.5813,1.5741,1.5646,1.5628,1.5568,1.5489,1.5459,1.5459,1.5438,1.5155,1.5015,1.5015,1.5015,1.5015,1.5015,1.5015,1.5015,1.5015,1.5015,1.5077,1.5229,1.5229,1.532,1.5458,1.5561,1.5675,1.5807,1.5813,1.5813,1.5813,1.5813,1.56,1.5219,1.4651,1.3896,1.304,1.1521,1.0326,0.9735,0.9612,0.9612,0.9612,0.9612,0.9616,0.9607,0.9509,0.943,0.9393,0.9327,0.9303,0.9389,0.934,0.9283,0.9395,0.9964,1.1103,1.2454,1.2857,1.3408,1.4076,1.4274,1.4597,1.5081,1.5195,1.5397,1.5659,1.5813,1.5813,1.5813,1.5813,1.5813,1.5813,1.5813,1.5778,1.5718,1.573,1.5766,1.5695,1.5706,1.5813,1.5813,1.5813,1.5754,2.0034,1.935,1.9285,1.9285,1.9263,1.9043,1.8933,1.8911,1.8672,1.8518,1.8408,1.8108,1.7649,1.7027,1.634,1.6069,1.6064,1.5891,1.5813,1.5813,1.5813,1.5813,1.5813,1.5813,1.5813,1.5813,1.5813,1.5813,1.5813,1.5813,1.5813,1.5813,1.5813,1.5813,1.5813,1.5813,1.5813,1.5795,1.5813,1.5813,1.5753,1.5418,1.5215,1.5215,1.522,1.5215,1.5231,1.5227,1.5209,1.5227,1.5215,1.5309,1.5486,1.5511,1.5611,1.5787,1.5813,1.5813,1.5813,1.5813,1.5813,1.5813,1.5813,1.5659,1.5326,1.4717,1.4184,1.3685,1.2472,1.1109,0.9829,0.9858,0.9916,0.9673,0.9612,0.9612,0.9616,0.9612,0.9603,0.9612,0.9562,0.9612,0.9612,0.9587,0.9575,0.9661,1.0503,1.1939,1.3127,1.4015,1.4316,1.4658,1.535,1.5695,1.5813,1.573,1.5813,1.5813,1.5813,1.5813,1.5813,1.5813,1.5813,1.5813,1.5813,1.5801,1.5766,1.5789,1.5813,1.5813,1.5813,1.5813,1.5813,1.5813,1.5813,1.935,1.9311,1.9285,1.9285,1.9285,1.9276,1.9268,1.9246,1.9219,1.9065,1.8756,1.8477,1.8299,1.8081,1.7057,1.6307,1.591,1.5844,1.5832,1.5825,1.5813,1.5813,1.5813,1.5813,1.5813,1.5813,1.5813,1.5813,1.5813,1.5813,1.5813,1.5813,1.5813,1.5813,1.5813,1.5813,1.5813,1.5813,1.5813,1.5813,1.5801,1.5768,1.5728,1.5726,1.5766,1.5733,1.5735,1.5755,1.576,1.5743,1.5728,1.5748,1.5775,1.5787,1.5781,1.5801,1.5813,1.5813,1.5813,1.5813,1.5813,1.5813,1.5801,1.5421,1.4753,1.4532,1.4112,1.2969,1.2974,1.1973,1.046,1.0777,1.0636,0.9727,0.9636,0.9686,0.9612,0.9612,0.9612,0.9752,0.9883,0.9978,0.9784,0.9612,0.9715,0.9883,1.0558,1.2278,1.4558,1.4828,1.4838,1.5374,1.5718,1.5813,1.5813,1.5813,1.5813,1.5813,1.5813,1.5813,1.5813,1.5813,1.5813,1.5813,1.5813,1.5813,1.5813,1.5813,1.5813,1.5813,1.5813,1.5813,1.5813,1.5813,1.5813,2.0755,1.9305,1.9285,1.9285,1.9285,1.9285,1.9285,1.9285,1.9285,1.9246,1.9081,1.8789,1.8553,1.8322,1.7725,1.7205,1.6798,1.6295,1.6052,1.604,1.5879,1.5813,1.5813,1.5813,1.5813,1.5813,1.5813,1.5813,1.5813,1.5813,1.5813,1.5813,1.5813,1.5813,1.5813,1.5813,1.5813,1.5813,1.5813,1.5813,1.5813,1.5813,1.5813,1.5813,1.5813,1.5813,1.5813,1.5813,1.5813,1.5813,1.5813,1.5813,1.5813,1.5813,1.5813,1.5813,1.5813,1.5813,1.5813,1.5813,1.5813,1.5813,1.5813,1.5671,1.535,1.5243,1.5081,1.4753,1.4651,1.4202,1.363,1.2797,1.1473,1.0058,1.0218,1.0314,0.9797,0.964,1.0077,1.1214,1.1582,1.1578,1.1456,1.1578,1.1042,1.011,1.1645,1.3733,1.5163,1.5436,1.5405,1.5677,1.5813,1.5813,1.5813,1.5813,1.5813,1.5813,1.5813,1.5813,1.5813,1.5813,1.5813,1.5813,1.5813,1.5813,1.5813,1.5813,1.5813,1.5813,1.5813,1.5813,1.5813,1.5813,1.5813,2.2114,2.0315,2.0057,1.9784,1.9465,1.9342,1.9285,1.9285,1.9285,1.9285,1.9241,1.905,1.886,1.8656,1.8349,1.8072,1.7758,1.6914,1.6492,1.6455,1.6199,1.605,1.6057,1.6057,1.5998,1.5927,1.5844,1.5813,1.5813,1.5813,1.5813,1.5813,1.5813,1.5813,1.5813,1.5813,1.5813,1.5813,1.5813,1.5813,1.5813,1.5813,1.5813,1.5813,1.5813,1.5813,1.5813,1.5813,1.5813,1.5813,1.5813,1.5813,1.5813,1.5813,1.5813,1.5813,1.5813,1.5813,1.5813,1.5813,1.5813,1.5813,1.5813,1.5813,1.5813,1.5813,1.5813,1.5815,1.5915,1.5933,1.5592,1.4588,1.3239,1.1809,1.1502,1.0898,0.9817,1.0042,1.102,1.221,1.2553,1.2623,1.2696,1.2671,1.2016,1.0709,1.2832,1.4592,1.555,1.5903,1.6015,1.6071,1.6142,1.6152,1.614,1.6126,1.5927,1.5868,1.582,1.5813,1.5813,1.5813,1.5813,1.5813,1.5813,1.5813,1.5813,1.5813,1.5813,1.5813,1.5813,1.5813,1.5813,1.5813,1.5813,2.3111,2.1983,2.1655,2.0891,1.9997,1.9674,1.9386,1.9349,1.9334,1.9329,1.9305,1.9276,1.922,1.9178,1.8882,1.8774,1.8536,1.7654,1.7146,1.7073,1.6773,1.663,1.6613,1.6627,1.6515,1.6301,1.5977,1.5869,1.5913,1.5904,1.5884,1.5837,1.5872,1.5872,1.5813,1.5825,1.5825,1.5813,1.5813,1.5813,1.5813,1.5813,1.5813,1.5813,1.5813,1.5813,1.5813,1.5813,1.5813,1.5813,1.5813,1.5813,1.5813,1.5813,1.5813,1.5813,1.5813,1.5813,1.5808,1.5833,1.5867,1.588,1.5853,1.5896,1.5921,1.5913,1.5913,1.596,1.612,1.6181,1.5978,1.5923,1.5745,1.5514,1.3321,1.1402,1.0666,1.1034,1.2,1.2735,1.3012,1.2798,1.278,1.3104,1.3026,1.3075,1.3815,1.4866,1.568,1.6064,1.6395,1.6622,1.6586,1.6467,1.6486,1.6472,1.6174,1.5935,1.5848,1.5813,1.5813,1.5813,1.5813,1.5813,1.5813,1.5813,1.5813,1.5813,1.5813,1.5813,1.5813,1.5827,1.5813,1.5813,1.5813,2.4246,2.3265,2.3129,2.2397,2.1372,2.1196,2.0624,1.9689,1.9655,1.9518,1.9334,1.9285,1.9285,1.9283,1.9175,1.9118,1.9076,1.8515,1.8061,1.767,1.7395,1.7278,1.7278,1.7292,1.725,1.7117,1.6851,1.6699,1.6641,1.6463,1.6258,1.6147,1.6272,1.614,1.5838,1.5962,1.6004,1.5832,1.5813,1.5813,1.5813,1.5813,1.5813,1.5813,1.5813,1.5813,1.5813,1.5813,1.5813,1.5801,1.5813,1.5813,1.5813,1.5813,1.5813,1.5813,1.5813,1.5813,1.5828,1.6019,1.6169,1.6221,1.6337,1.6414,1.6421,1.6401,1.6401,1.6407,1.6507,1.6517,1.6461,1.6498,1.6368,1.587,1.4225,1.3413,1.3675,1.4455,1.4682,1.4263,1.471,1.5031,1.4913,1.4926,1.4917,1.4796,1.5385,1.5956,1.5914,1.6313,1.678,1.719,1.6997,1.678,1.6774,1.6746,1.6547,1.6294,1.614,1.5873,1.5834,1.588,1.5867,1.586,1.5853,1.5873,1.5867,1.5887,1.5933,1.5887,1.59,1.588,1.5833,1.5867,1.5941,2.5815,2.4774,2.4203,2.3288,2.2141,2.1619,2.0823,2.0006,1.9951,1.9775,1.9525,1.9488,1.9415,1.9307,1.9285,1.9285,1.9296,1.9085,1.8786,1.8383,1.7994,1.7867,1.7835,1.7749,1.7713,1.7658,1.7422,1.7287,1.7273,1.7085,1.6897,1.6789,1.6883,1.6695,1.6204,1.6274,1.6204,1.5876,1.5813,1.5813,1.5813,1.5813,1.5813,1.5813,1.5813,1.5813,1.5808,1.592,1.5921,1.5828,1.5813,1.5813,1.5813,1.5808,1.5848,1.5967,1.5993,1.6039,1.614,1.6339,1.647,1.6541,1.6632,1.6693,1.6688,1.6694,1.6694,1.6694,1.682,1.6829,1.674,1.6835,1.6718,1.6523,1.5575,1.5407,1.629,1.6644,1.6457,1.5855,1.6051,1.6259,1.6248,1.6255,1.6389,1.6255,1.6461,1.6808,1.6531,1.6724,1.7152,1.7418,1.7317,1.7164,1.708,1.6993,1.6907,1.6706,1.65,1.6144,1.5899,1.6017,1.6059,1.6066,1.6066,1.6199,1.6213,1.6234,1.626,1.6154,1.6087,1.6194,1.6267,1.6234,1.6287,2.7565,2.6368,2.5024,2.3738,2.2442,2.1178,2.0524,2.0253,2.0239,2.0084,1.9848,1.9818,1.9642,1.9393,1.9365,1.9364,1.9285,1.927,1.9226,1.9039,1.8665,1.8385,1.8362,1.8194,1.8114,1.8053,1.7837,1.7702,1.7733,1.7642,1.7637,1.7534,1.7531,1.7328,1.6866,1.6776,1.6561,1.6166,1.6015,1.6034,1.6022,1.5942,1.5949,1.5956,1.5939,1.5928,1.5975,1.6172,1.6172,1.592,1.5895,1.5888,1.5863,1.5855,1.6047,1.6298,1.6324,1.6432,1.662,1.6693,1.6746,1.6753,1.6794,1.6754,1.6821,1.6874,1.6855,1.6867,1.7079,1.711,1.6923,1.7039,1.7275,1.7455,1.6844,1.6868,1.7403,1.7227,1.6973,1.6913,1.686,1.6694,1.6641,1.6673,1.6695,1.6671,1.673,1.7026,1.7245,1.7292,1.7348,1.7429,1.7471,1.7446,1.7314,1.7268,1.7187,1.7127,1.6913,1.6557,1.6179,1.6238,1.6305,1.6293,1.6325,1.6465,1.6532,1.6513,1.6521,1.6487,1.6527,1.6668,1.6641,1.6541,1.6521,2.7588,2.6481,2.6073,2.475,2.2985,2.2387,2.1569,2.0652,2.0568,2.0407,2.0151,2.01,1.9938,1.9686,1.9657,1.9539,1.9373,1.932,1.9285,1.927,1.9146,1.9036,1.9036,1.8964,1.8898,1.8849,1.8542,1.8488,1.8466,1.8213,1.8038,1.7843,1.8047,1.7878,1.7457,1.7499,1.7439,1.7171,1.7113,1.7087,1.7031,1.6835,1.6758,1.6746,1.6571,1.6472,1.6461,1.6547,1.6567,1.6461,1.6247,1.6266,1.6413,1.6421,1.6473,1.6579,1.6612,1.662,1.6734,1.6927,1.7046,1.708,1.7207,1.7361,1.7348,1.7361,1.7361,1.7394,1.7468,1.7455,1.7383,1.7422,1.7541,1.7562,1.7401,1.7374,1.7526,1.7519,1.7444,1.7416,1.7201,1.6998,1.6866,1.6927,1.6976,1.6868,1.7052,1.7353,1.7515,1.7562,1.7513,1.7533,1.7574,1.7588,1.7568,1.7515,1.7481,1.7488,1.7334,1.7095,1.6753,1.6583,1.6606,1.6593,1.6606,1.6718,1.6693,1.666,1.6694,1.6821,1.6794,1.6835,1.6748,1.6661,1.6694,2.7601,2.645,2.5963,2.4702,2.3016,2.2454,2.1725,2.1032,2.0904,2.0714,2.0466,2.0429,2.0232,1.9981,1.9959,1.9864,1.9695,1.9561,1.9523,1.9488,1.9349,1.9283,1.9277,1.9285,1.9285,1.9261,1.895,1.8871,1.8913,1.8677,1.8511,1.8546,1.864,1.8428,1.7974,1.8022,1.7933,1.7645,1.7606,1.7606,1.7582,1.7432,1.7333,1.7276,1.7145,1.7092,1.7075,1.6944,1.6832,1.6704,1.6566,1.6546,1.6673,1.6694,1.6773,1.688,1.6907,1.6947,1.7094,1.728,1.7347,1.7374,1.7535,1.7588,1.7582,1.7615,1.7615,1.7595,1.7615,1.7615,1.7615,1.7615,1.7615,1.7595,1.7615,1.7609,1.7609,1.7595,1.7601,1.7551,1.7445,1.732,1.7094,1.7267,1.7249,1.7185,1.7356,1.7508,1.7601,1.7615,1.7615,1.7615,1.7615,1.7615,1.7615,1.7568,1.7555,1.7582,1.7548,1.7374,1.7187,1.6945,1.6957,1.6945,1.6932,1.6933,1.696,1.7007,1.7134,1.7188,1.7088,1.7048,1.7034,1.6947,1.6967,2.7588,2.6409,2.5196,2.4042,2.2898,2.1753,2.126,2.1196,2.1174,2.1021,2.0801,2.0758,2.0561,2.0254,2.0275,2.0232,2.0145,1.9929,1.9862,1.9753,1.9607,1.9475,1.9482,1.9336,1.9299,1.9268,1.8977,1.9043,1.9137,1.8955,1.897,1.9047,1.9168,1.8971,1.8527,1.848,1.8239,1.7981,1.7979,1.7994,1.7968,1.7893,1.7844,1.7825,1.771,1.7681,1.7618,1.7446,1.7214,1.6927,1.6811,1.6806,1.6832,1.6858,1.694,1.7173,1.724,1.7334,1.7521,1.7548,1.7588,1.7582,1.7588,1.7615,1.7615,1.7615,1.7615,1.7615,1.7615,1.7615,1.7615,1.7615,1.7615,1.7615,1.7615,1.7615,1.7615,1.7615,1.7615,1.7615,1.7588,1.7595,1.7615,1.7615,1.7588,1.739,1.7549,1.7562,1.7615,1.7615,1.7615,1.7615,1.7615,1.7615,1.7615,1.7608,1.7602,1.7608,1.7602,1.7508,1.7427,1.7285,1.733,1.7317,1.7246,1.7294,1.7408,1.7481,1.7515,1.7495,1.7361,1.7455,1.7548,1.7395,1.7348,2.7588,2.6409,2.5191,2.4042,2.2904,2.1724,2.1211,2.1211,2.1211,2.1145,2.1094,2.1087,2.0896,2.059,2.0597,2.0472,2.0262,2.0173,2.0129,2.0093,2.0043,2.0006,1.9887,1.9564,1.9329,1.932,1.9254,1.9246,1.9255,1.9224,1.9072,1.8963,1.9175,1.9118,1.8815,1.8922,1.9064,1.8938,1.8891,1.8829,1.8777,1.8656,1.8553,1.856,1.8359,1.8233,1.8231,1.8157,1.8084,1.7899,1.7503,1.7301,1.7547,1.7497,1.7453,1.75,1.7521,1.7548,1.7595,1.7641,1.7615,1.7615,1.7615,1.7615,1.7615,1.7615,1.7615,1.7615,1.7615,1.7615,1.7615,1.7615,1.7615,1.7615,1.7615,1.7615,1.7615,1.7615,1.7615,1.7615,1.7615,1.7615,1.7615,1.7615,1.7615,1.7615,1.7615,1.7615,1.7615,1.7615,1.7615,1.7615,1.7615,1.7615,1.7615,1.7615,1.7615,1.7615,1.7615,1.7608,1.7527,1.75,1.7493,1.7513,1.7528,1.7595,1.7615,1.7608,1.7562,1.7602,1.7615,1.7615,1.7615,1.7615,1.7615,2.7601,2.6404,2.5205,2.4042,2.2898,2.1717,2.1211,2.1211,2.1211,2.1211,2.1211,2.1211,2.1094,2.0948,2.0947,2.0831,2.0656,2.0474,2.0349,2.0247,2.0182,2.0189,2.0167,1.9917,1.9725,1.9717,1.9591,1.9539,1.9503,1.9386,1.9197,1.9063,1.9219,1.9212,1.9078,1.9224,1.925,1.925,1.9285,1.9285,1.9259,1.9175,1.9091,1.9078,1.8907,1.8789,1.8652,1.8626,1.8626,1.8506,1.8107,1.7884,1.81,1.8068,1.797,1.7963,1.7977,1.7898,1.7852,1.7832,1.7799,1.7628,1.7615,1.7615,1.7615,1.7615,1.7615,1.7615,1.7615,1.7615,1.7615,1.7615,1.7615,1.7615,1.7622,1.7615,1.7615,1.7615,1.7615,1.7615,1.7615,1.7615,1.7615,1.7615,1.7615,1.7615,1.7615,1.7615,1.7615,1.7615,1.7615,1.7615,1.7615,1.7615,1.7615,1.7615,1.7615,1.7615,1.7615,1.7615,1.7581,1.7581,1.7588,1.7602,1.7595,1.7602,1.7615,1.7615,1.7615,1.7615,1.7615,1.7615,1.7615,1.7615,1.7615,2.7705,2.6663,2.548,2.432,2.3149,2.2044,2.1403,2.1211,2.1211,2.1211,2.1211,2.1211,2.1189,2.1196,2.1181,2.1203,2.1101,2.0926,2.067,2.0502,2.0459,2.0473,2.0429,2.0407,2.0363,2.0299,2.0011,1.987,1.9775,1.9592,1.949,1.9415,1.9446,1.946,1.9402,1.9431,1.9499,1.952,1.9541,1.9513,1.9499,1.9472,1.9493,1.9466,1.946,1.9362,1.9224,1.917,1.914,1.9091,1.8827,1.8694,1.8633,1.8423,1.8396,1.8383,1.8344,1.8301,1.8205,1.8159,1.804,1.7762,1.7722,1.7729,1.7762,1.7816,1.7829,1.7809,1.7822,1.7756,1.7636,1.7602,1.7616,1.7643,1.7662,1.7742,1.7735,1.7709,1.7689,1.7615,1.7615,1.7615,1.7615,1.7615,1.7615,1.7615,1.7615,1.7615,1.7615,1.7615,1.7615,1.7615,1.7615,1.7615,1.7615,1.7615,1.7615,1.7615,1.7615,1.7615,1.7615,1.7615,1.7615,1.7615,1.7608,1.7615,1.7615,1.7615,1.7615,1.7615,1.7615,1.7615,1.7615,1.7615,1.7615,2.8184,2.7906,2.6694,2.5516,2.4334,2.3177,2.215,2.1289,2.1303,2.1211,2.1211,2.1211,2.1211,2.1211,2.1211,2.1211,2.1167,2.1086,2.105,2.0969,2.0948,2.0948,2.0926,2.0918,2.0955,2.0867,2.0494,2.0195,2.013,2.0078,1.9901,1.9805,1.9901,1.9902,1.9806,1.9895,1.9954,1.9918,1.9953,1.9961,1.9947,1.9947,1.9954,1.9968,1.9946,1.9927,1.9944,1.996,1.9995,1.9989,1.9941,1.9865,1.9619,1.8948,1.8586,1.8559,1.8586,1.8678,1.8713,1.8459,1.8469,1.8489,1.8407,1.8242,1.8297,1.8324,1.8264,1.8257,1.8243,1.8133,1.7653,1.7705,1.7641,1.7729,1.8072,1.8331,1.8305,1.8117,1.7889,1.7769,1.7689,1.7615,1.7615,1.7615,1.7615,1.7615,1.7615,1.7615,1.7615,1.7615,1.7615,1.7615,1.7615,1.7615,1.7615,1.7615,1.7615,1.7615,1.7615,1.7615,1.7615,1.7615,1.7615,1.7615,1.7615,1.7615,1.7615,1.7615,1.7615,1.7615,1.7615,1.7615,1.7615,1.7615,1.7615,2.8301,2.8161,2.7011,2.6177,2.5488,2.4375,2.3219,2.2213,2.2129,2.1767,2.1332,2.1211,2.1211,2.1211,2.1211,2.1211,2.1211,2.1211,2.1211,2.1211,2.1211,2.1211,2.1211,2.1211,2.1211,2.113,2.086,2.0597,2.0481,2.0451,2.0304,2.01,2.0152,2.0122,2.0056,2.0108,2.0225,2.0211,2.0218,2.0218,2.0211,2.0211,2.0211,2.0204,2.0211,2.0197,2.0197,2.0197,2.0189,2.0189,2.0189,2.0197,2.0034,1.976,1.9308,1.9328,1.9293,1.929,1.9399,1.9224,1.9281,1.9146,1.9168,1.9043,1.8836,1.8692,1.8684,1.8566,1.8497,1.8401,1.8126,1.8076,1.8214,1.8511,1.878,1.8897,1.8836,1.8521,1.8251,1.7996,1.7809,1.7709,1.7615,1.7615,1.7615,1.7615,1.7615,1.7615,1.7615,1.7615,1.7615,1.7615,1.7615,1.7615,1.7615,1.7615,1.7615,1.7615,1.7615,1.7615,1.7615,1.7615,1.7615,1.7615,1.7615,1.7615,1.7615,1.7615,1.7615,1.7615,1.7615,1.7615,1.7615,1.7615,1.7615,2.8301,2.8211,2.7255,2.674,2.6368,2.548,2.4403,2.3444,2.3045,2.2454,2.1624,2.1332,2.1211,2.1211,2.1211,2.1211,2.1211,2.1211,2.1211,2.1211,2.1211,2.1211,2.1211,2.1211,2.1211,2.1203,2.1145,2.105,2.086,2.0787,2.0641,2.0524,2.0422,2.0394,2.043,2.0509,2.0407,2.04,2.0394,2.0386,2.0394,2.0407,2.04,2.04,2.04,2.043,2.0488,2.0495,2.0481,2.0473,2.0451,2.0437,2.0415,2.0407,2.0407,2.0393,2.0277,2.0095,2.0071,1.9996,1.9895,1.9779,2.0204,1.9925,1.9459,1.9193,1.904,1.8818,1.8726,1.8745,1.8695,1.8691,1.8892,1.9157,1.9304,1.9361,1.9199,1.8949,1.8625,1.8343,1.8016,1.7856,1.7816,1.7603,1.7603,1.7608,1.7615,1.7615,1.7615,1.7615,1.7615,1.7615,1.7615,1.7615,1.7615,1.7615,1.7615,1.7615,1.7615,1.7615,1.7615,1.7615,1.7615,1.7615,1.7615,1.7615,1.7615,1.7615,1.7615,1.7615,1.7615,1.7615,1.7615,1.7615,1.7615,2.8301,2.8301,2.8144,2.748,2.6609,2.6368,2.5612,2.4464,2.3561,2.2946,2.2714,2.1731,2.1289,2.1211,2.1211,2.1211,2.1211,2.1211,2.1211,2.1211,2.1211,2.1211,2.1211,2.1211,2.1211,2.1211,2.1211,2.1182,2.1094,2.1101,2.1108,2.1006,2.097,2.1036,2.094,2.094,2.1094,2.1072,2.1043,2.1035,2.1021,2.1021,2.1028,2.1021,2.0999,2.0977,2.0962,2.0955,2.0977,2.102,2.105,2.1065,2.1079,2.1079,2.1079,2.0911,2.0627,2.0307,2.0478,2.0432,2.0392,2.0458,2.0822,2.068,2.0195,1.9768,1.9618,1.9663,1.9427,1.9243,1.9195,1.9255,1.9338,1.9362,1.9409,1.9401,1.9336,1.922,1.8913,1.8818,1.8538,1.8263,1.8103,1.7834,1.7614,1.7609,1.7608,1.7622,1.7615,1.7609,1.7615,1.7615,1.7615,1.7615,1.7615,1.7615,1.7635,1.7628,1.7622,1.7622,1.7615,1.7615,1.7615,1.7615,1.7615,1.7615,1.7615,1.7615,1.7615,1.7615,1.7615,1.7615,1.7615,1.7615,1.7615,2.8301,2.8301,2.8301,2.8,2.7561,2.752,2.6839,2.5799,2.5208,2.4592,2.3827,2.2735,2.1873,2.1389,2.1211,2.1211,2.1211,2.1211,2.1211,2.1211,2.1211,2.1211,2.1211,2.1211,2.1211,2.1211,2.1211,2.1211,2.1211,2.1211,2.1211,2.1211,2.1211,2.1167,2.1211,2.1211,2.1196,2.1189,2.1196,2.1203,2.1211,2.1211,2.1211,2.1211,2.1211,2.1211,2.1211,2.1211,2.1211,2.1211,2.1211,2.1211,2.1203,2.1196,2.1196,2.116,2.0962,2.0867,2.0934,2.0835,2.0844,2.0923,2.1096,2.0938,2.0572,2.027,1.9967,1.9794,1.97,1.9562,1.9445,1.9409,1.9409,1.9409,1.9409,1.9409,1.9396,1.9335,1.9194,1.914,1.9052,1.8758,1.8434,1.8102,1.7853,1.7738,1.7741,1.7729,1.7676,1.7616,1.7609,1.7615,1.7615,1.7615,1.7615,1.7615,1.7662,1.7668,1.7642,1.7648,1.7622,1.7615,1.7702,1.7662,1.7622,1.7622,1.7635,1.7615,1.7615,1.7615,1.7615,1.7615,1.7615,1.7615,1.7615,2.8301,2.8301,2.8301,2.8301,2.8301,2.8301,2.7789,2.6988,2.6541,2.5949,2.4951,2.3653,2.2433,2.171,2.1403,2.1211,2.1211,2.1211,2.1211,2.1211,2.1211,2.1211,2.1211,2.1211,2.1211,2.1211,2.1211,2.1211,2.1211,2.1211,2.1211,2.1211,2.1211,2.1211,2.1211,2.1211,2.1211,2.1211,2.1211,2.1211,2.1211,2.1211,2.1211,2.1211,2.1211,2.1211,2.1211,2.1211,2.1211,2.1211,2.1211,2.1211,2.1211,2.1211,2.1211,2.1203,2.1115,2.113,2.1152,2.1138,2.1203,2.1211,2.1211,2.1096,2.0881,2.0579,2.0277,1.9989,1.9815,1.9649,1.9482,1.9409,1.9409,1.9409,1.9409,1.9409,1.9402,1.9391,1.935,1.9287,1.9241,1.9206,1.8865,1.8446,1.815,1.794,1.7859,1.7871,1.7794,1.7729,1.7736,1.7769,1.7769,1.7816,1.7909,1.7869,1.7829,1.7789,1.7769,1.7816,1.7883,1.7923,1.799,1.7889,1.7776,1.7883,1.8036,1.7809,1.7615,1.7615,1.7615,1.7615,1.7615,1.7622,1.7615,2.8301,2.8301,2.8301,2.8301,2.8301,2.8301,2.8237,2.792,2.6998,2.6491,2.5922,2.4239,2.3227,2.27,2.2008,2.151,2.1282,2.1225,2.1303,2.1303,2.1225,2.1311,2.1268,2.1211,2.1211,2.1211,2.1211,2.1211,2.1211,2.1211,2.1211,2.1211,2.1211,2.1211,2.1211,2.1211,2.1211,2.1211,2.1211,2.1211,2.1211,2.1211,2.1211,2.1211,2.1211,2.1211,2.1211,2.1211,2.1211,2.1211,2.1211,2.1211,2.1211,2.1211,2.1211,2.1211,2.1211,2.1211,2.1211,2.1211,2.1211,2.1211,2.1211,2.1189,2.1089,2.0823,2.0551,2.0285,2.0083,1.9751,1.9547,1.9409,1.9403,1.9418,1.944,1.9533,1.9533,1.9489,1.9461,1.9417,1.944,1.9509,1.9394,1.8993,1.8704,1.8498,1.8411,1.8417,1.8101,1.8016,1.8002,1.8016,1.8002,1.8116,1.8357,1.8323,1.8197,1.817,1.8177,1.8237,1.833,1.8344,1.8169,1.8291,1.8231,1.8337,1.8351,1.809,1.7856,1.7689,1.7635,1.7756,1.7742,1.7716,1.7675,2.8301,2.8301,2.8301,2.8301,2.8301,2.8301,2.8301,2.8237,2.7812,2.7147,2.6472,2.5538,2.473,2.405,2.3651,2.2932,2.2524,2.3099,2.2413,2.1831,2.1788,2.181,2.1567,2.1218,2.1211,2.1225,2.1218,2.1211,2.1211,2.1276,2.1218,2.1211,2.1269,2.1211,2.1211,2.1211,2.1211,2.1211,2.1211,2.1211,2.1211,2.1211,2.1211,2.1211,2.1211,2.1211,2.1211,2.1211,2.1211,2.1211,2.1211,2.1211,2.1211,2.1211,2.1211,2.1211,2.1211,2.1218,2.1225,2.1218,2.1211,2.1211,2.1211,2.1211,2.1211,2.1053,2.0845,2.0615,2.0393,2.009,1.9509,1.9422,1.9415,1.9408,1.9529,1.9707,1.9714,1.9707,1.9735,1.9779,1.9895,2.0004,1.9809,1.958,1.9314,1.9078,1.9019,1.8893,1.8567,1.8303,1.8289,1.8289,1.8289,1.8356,1.8591,1.8564,1.8517,1.8537,1.8564,1.8597,1.8637,1.8332,1.8245,1.8442,1.862,1.8627,1.8539,1.831,1.8157,1.805,1.8016,1.8035,1.7955,1.7869,1.7836,2.8301,2.8301,2.8301,2.8301,2.8301,2.8301,2.8301,2.8301,2.8264,2.7879,2.6998,2.669,2.6073,2.5342,2.4741,2.4429,2.4,2.4258,2.3519,2.3024,2.271,2.241,2.1693,2.1269,2.1269,2.1313,2.1364,2.1386,2.1584,2.1511,2.1554,2.1562,2.1467,2.1459,2.1211,2.1225,2.1225,2.1211,2.1211,2.1211,2.1211,2.1211,2.1211,2.1211,2.1211,2.1211,2.1211,2.1211,2.1211,2.1211,2.1211,2.1211,2.1211,2.1211,2.1211,2.1211,2.1225,2.1254,2.1299,2.1233,2.1218,2.1211,2.1211,2.1211,2.1211,2.1204,2.0996,2.0723,2.063,2.0407,1.9718,1.9754,1.9969,2.0119,2.0205,2.0334,2.0126,2.0061,2.0104,2.0162,2.0234,2.022,2.0068,1.9816,1.9537,1.9325,1.9237,1.9149,1.8983,1.8742,1.8603,1.8603,1.8603,1.8684,1.8792,1.8845,1.8919,1.8939,1.8945,1.8913,1.8837,1.8564,1.8536,1.8843,1.8955,1.889,1.8842,1.8779,1.8638,1.8478,1.843,1.8391,1.8283,1.8197,1.8157,2.8301,2.8301,2.8301,2.8301,2.8301,2.8301,2.8301,2.8301,2.8301,2.8224,2.7956,2.7125,2.6695,2.635,2.5786,2.5475,2.5478,2.5572,2.4916,2.3998,2.3737,2.2937,2.2006,2.1496,2.1518,2.1642,2.1701,2.1818,2.2082,2.1993,2.2037,2.2052,2.195,2.1796,2.1276,2.1276,2.1254,2.1276,2.142,2.1521,2.1565,2.1493,2.1291,2.1372,2.1313,2.1306,2.1401,2.1408,2.1415,2.1408,2.1386,2.1386,2.1364,2.135,2.135,2.1328,2.1291,2.1408,2.162,2.1386,2.1342,2.1364,2.1437,2.1393,2.1277,2.1226,2.1234,2.1104,2.0924,2.0708,2.0413,2.0327,2.0593,2.0708,2.0758,2.073,2.0507,2.0342,2.0385,2.0522,2.0421,2.0306,2.0184,2.0011,1.97,1.9519,1.9431,1.934,1.9226,1.9122,1.8946,1.8918,1.8925,1.8971,1.9087,1.9241,1.9335,1.9341,1.9287,1.9187,1.9195,1.9104,1.9151,1.9301,1.9248,1.9143,1.9243,1.9349,1.9093,1.8839,1.881,1.8757,1.8642,1.8519,1.8452,2.8301,2.8301,2.8301,2.8301,2.8301,2.8301,2.8301,2.8301,2.8301,2.8301,2.8306,2.8035,2.8093,2.7972,2.79,2.7478,2.7142,2.7916,2.7266,2.4408,2.4804,2.3652,2.2673,2.2186,2.2061,2.2016,2.2067,2.226,2.2154,2.2527,2.2325,2.2184,2.2639,2.2067,2.2201,2.2509,2.3151,2.3158,2.3166,2.3129,2.2988,2.2174,2.1657,2.1833,2.1628,2.1613,2.1767,2.1767,2.1767,2.1774,2.1767,2.1781,2.1789,2.1789,2.1811,2.184,2.1855,2.1906,2.2001,2.1906,2.1891,2.1869,2.1803,2.1789,2.1847,2.1854,2.1781,2.1678,2.1546,2.1333,2.1036,2.0934,2.1037,2.0966,2.0967,2.0917,2.0773,2.0651,2.0637,2.0866,2.0902,2.0673,2.0529,2.0249,1.9939,1.9635,1.9519,1.9431,1.9328,1.9341,1.9241,1.9233,1.9246,1.9286,1.9368,1.9402,1.9409,1.9382,1.9382,1.9349,1.9382,1.9409,1.9396,1.9362,1.9382,1.9409,1.9409,1.9396,1.9328,1.9202,1.9126,1.9019,1.8867,1.8752,1.8678,2.8301,2.8301,2.8301,2.8301,2.8301,2.8301,2.8301,2.8301,2.8301,2.8369,2.8541,2.8791,2.8972,2.9166,2.9358,2.9496,2.8734,2.9282,2.8946,2.598,2.6388,2.5518,2.4338,2.3512,2.3879,2.3595,2.3665,2.383,2.4168,2.3956,2.4062,2.4138,2.382,2.4182,2.4132,2.4257,2.4252,2.441,2.465,2.4389,2.3866,2.3145,2.2445,2.2208,2.2023,2.195,2.2111,2.2184,2.2191,2.2198,2.2198,2.2198,2.2213,2.2206,2.2191,2.2199,2.2301,2.2271,2.2203,2.2476,2.2484,2.2498,2.2345,2.2198,2.2184,2.2111,2.2125,2.2118,2.2206,2.1989,2.1633,2.1552,2.1486,2.1421,2.1263,2.1235,2.1025,2.0873,2.0888,2.1132,2.1168,2.0981,2.0795,2.0501,2.0199,1.9875,1.9579,1.9548,1.9496,1.9482,1.9453,1.9388,1.9388,1.9381,1.9381,1.9402,1.9409,1.9409,1.9409,1.9409,1.9409,1.9409,1.9409,1.9409,1.9409,1.9409,1.9409,1.9389,1.9348,1.9348,1.9336,1.9222,1.9077,1.8997,1.8931,2.8301,2.8301,2.8301,2.8301,2.8301,2.8301,2.8301,2.8301,2.8301,2.8516,2.8883,2.8922,2.9219,2.9565,2.9676,2.9836,3.0009,3.0186,2.9371,2.8674,2.8107,2.7149,2.6406,2.5826,2.563,2.605,2.6135,2.5758,2.6725,2.6193,2.6255,2.6684,2.6268,2.6516,2.6316,2.5908,2.566,2.6087,2.5905,2.5474,2.48,2.3903,2.3065,2.2586,2.2294,2.2279,2.2352,2.2374,2.2345,2.2323,2.2301,2.2279,2.2257,2.225,2.2235,2.2301,2.2512,2.2464,2.2461,2.281,2.2936,2.2871,2.2564,2.233,2.2293,2.2389,2.2418,2.2403,2.2418,2.2337,2.2197,2.2153,2.2102,2.1926,2.1714,2.1525,2.1248,2.1147,2.1162,2.1226,2.1211,2.1082,2.0874,2.0623,2.0443,2.0314,2.009,2.0053,1.9966,1.9692,1.9626,1.9409,1.9409,1.9409,1.9409,1.9424,1.9409,1.9409,1.9409,1.9409,1.9409,1.9409,1.9409,1.9409,1.9409,1.9409,1.9409,1.9409,1.9402,1.9409,1.9409,1.9382,1.9226,1.9266,1.9247,2.8301,2.8301,2.8301,2.8301,2.8301,2.8301,2.8301,2.8301,2.8301,2.8522,2.8898,2.9262,2.9604,3.0019,3.0366,3.0551,3.0649,3.0548,2.9829,2.9325,2.898,2.797,2.7328,2.6964,2.6869,2.6925,2.7,2.7182,2.7052,2.7119,2.7757,2.8113,2.772,2.8224,2.856,2.8248,2.799,2.7623,2.7213,2.6478,2.5436,2.4296,2.3445,2.2842,2.2579,2.2601,2.271,2.2777,2.2784,2.2798,2.282,2.2835,2.2842,2.2842,2.2849,2.2842,2.2914,2.292,2.2881,2.3,2.3106,2.3106,2.2886,2.2893,2.2842,2.2784,2.2784,2.2718,2.2703,2.2674,2.2623,2.2564,2.2565,2.2463,2.2213,2.1874,2.1632,2.1532,2.1511,2.1307,2.1292,2.1211,2.1003,2.0831,2.0666,2.0644,2.0615,2.0557,2.042,2.0147,1.9866,1.9634,1.9562,1.9605,1.9482,1.9453,1.9424,1.9409,1.9409,1.9409,1.9409,1.9409,1.9409,1.9409,1.9409,1.9409,1.9409,1.9409,1.9409,1.9409,1.9409,1.9409,1.9409,1.9409,1.9409,2.8301,2.8301,2.8301,2.8301,2.8301,2.8301,2.8301,2.8301,2.8301,2.8603,2.917,2.9485,2.9931,3.0464,3.0747,3.0874,3.0874,3.0835,3.0411,3.0079,2.9623,2.9335,2.8745,2.8457,2.8688,2.8522,2.8507,2.8837,2.8433,2.8561,2.914,2.954,2.876,2.952,3.0099,2.99,2.9679,2.9165,2.8536,2.7637,2.6283,2.4788,2.3878,2.3197,2.2972,2.3068,2.3162,2.3207,2.3152,2.3121,2.3106,2.3106,2.3091,2.3091,2.3091,2.3062,2.3053,2.3061,2.3038,2.3068,2.3106,2.3106,2.3106,2.3084,2.3069,2.3018,2.3025,2.3018,2.3054,2.3069,2.2995,2.2952,2.2993,2.3042,2.2646,2.2261,2.2093,2.1948,2.1736,2.1489,2.1373,2.1321,2.1176,2.101,2.0917,2.0938,2.0953,2.0938,2.0773,2.0529,2.0234,1.996,1.9888,1.9844,1.9707,1.9605,1.9605,1.9562,1.9453,1.9438,1.9424,1.9409,1.9409,1.9409,1.9409,1.9409,1.9409,1.9409,1.9409,1.9409,1.9409,1.9409,1.9409,1.9409,1.9409,2.8301,2.8301,2.8301,2.8301,2.8301,2.8301,2.8301,2.8301,2.8301,2.8773,2.9461,2.9598,3.0053,3.0698,3.0893,3.0913,3.0913,3.0898,3.0874,3.0859,3.0631,3.0387,3.0445,3.0801,3.0181,3.0601,3.0684,3.0098,3.0601,3.0455,3.0284,3.0889,3.0645,3.0757,3.0728,3.0733,3.0504,3.026,2.9289,2.8236,2.7125,2.5835,2.461,2.3845,2.3651,2.3651,2.3558,2.3425,2.3277,2.3293,2.3121,2.3137,2.3106,2.3106,2.3106,2.3106,2.3106,2.3106,2.3106,2.3106,2.3106,2.3106,2.3106,2.3106,2.3106,2.3106,2.3106,2.3106,2.3106,2.3106,2.3039,2.3024,2.3073,2.306,2.2836,2.2658,2.2631,2.2441,2.2177,2.1891,2.1598,2.1518,2.1379,2.1213,2.1053,2.1168,2.1189,2.1168,2.1075,2.0838,2.0565,2.0263,2.014,2.0068,2.0061,1.996,1.9873,1.9772,1.9613,1.9555,1.9606,1.9519,1.9417,1.946,1.9511,1.9424,1.9409,1.9409,1.9409,1.9409,1.9409,1.9409,1.9409,1.9409,1.9409,2.8301,2.8301,2.8301,2.8301,2.8301,2.8301,2.8301,2.8301,2.8301,2.8783,2.9491,2.9657,3.0073,3.0825,3.0903,3.0913,3.0913,3.0913,3.0913,3.0913,3.0913,3.0913,3.0913,3.0913,3.0913,3.0913,3.0913,3.0913,3.0913,3.0913,3.0913,3.0903,3.0913,3.0913,3.0913,3.0913,3.0874,3.0816,2.9614,2.89,2.8355,2.6596,2.5133,2.5554,2.592,2.5768,2.5546,2.5017,2.4787,2.4564,2.3534,2.3199,2.3106,2.3106,2.3106,2.3106,2.3106,2.3106,2.3106,2.3106,2.3106,2.3106,2.3106,2.3106,2.3106,2.3106,2.3106,2.3106,2.3106,2.3106,2.3106,2.3106,2.3098,2.3062,2.3025,2.3065,2.3097,2.2871,2.2599,2.2267,2.1906,2.173,2.1591,2.1423,2.1262,2.1211,2.1211,2.1196,2.1204,2.1046,2.0795,2.0522,2.0342,2.027,2.0313,2.0285,2.0198,2.0026,1.9846,1.9817,1.9817,1.9758,1.97,1.9627,1.9605,1.9605,1.9554,1.943,1.943,1.9467,1.9467,1.9482,1.9424,1.9409,1.9409,2.8301,2.8301,2.8301,2.8301,2.8301,2.8301,2.8301,2.8301,2.8301,2.8662,2.9281,2.9545,3.0073,3.0815,3.0903,3.0913,3.0913,3.0913,3.0913,3.0913,3.0913,3.0913,3.0913,3.0913,3.0913,3.0913,3.0913,3.0913,3.0913,3.0913,3.0913,3.0913,3.0913,3.0913,3.0913,3.0913,3.0913,3.0845,2.9584,2.9324,2.9324,2.7637,2.6301,2.6931,2.7043,2.7088,2.6838,2.6186,2.5722,2.4925,2.3775,2.3215,2.3106,2.3106,2.3106,2.3106,2.3106,2.3106,2.3106,2.3106,2.3106,2.3106,2.3106,2.3106,2.3106,2.3106,2.3106,2.3106,2.3106,2.3106,2.3106,2.3106,2.3106,2.3084,2.3069,2.3093,2.3101,2.2999,2.275,2.2478,2.2228,2.2125,2.195,2.1664,2.1474,2.1213,2.1213,2.1219,2.1226,2.1306,2.1039,2.0845,2.0722,2.0687,2.078,2.0673,2.0493,2.03,2.0134,2.0184,2.0234,2.0097,1.9982,1.996,1.9917,1.9923,1.9837,1.9713,1.9626,1.9663,1.962,1.9576,1.9518,1.9482,1.9467,2.8384,2.8358,2.8318,2.8301,2.8301,2.8301,2.8301,2.8301,2.8301,2.8512,2.8971,2.9418,3.0082,3.0581,3.0903,3.0913,3.0913,3.0913,3.0913,3.0913,3.0913,3.0913,3.0913,3.0913,3.0913,3.0913,3.0913,3.0913,3.0913,3.0913,3.0913,3.0913,3.0913,3.0913,3.0913,3.0913,3.0913,3.0699,3.0142,3.0015,2.9422,2.8671,2.7894,2.7489,2.7504,2.7495,2.7508,2.695,2.6407,2.5263,2.4054,2.3339,2.3106,2.3106,2.3106,2.3106,2.3106,2.3106,2.3106,2.3106,2.3106,2.3106,2.3106,2.3106,2.3106,2.3106,2.3106,2.3106,2.3106,2.3106,2.3106,2.3106,2.3106,2.3106,2.3106,2.3106,2.3098,2.3098,2.2901,2.2651,2.2549,2.2454,2.2242,2.1957,2.1664,2.1386,2.1278,2.1242,2.1285,2.1445,2.1416,2.1314,2.1242,2.1235,2.1197,2.1024,2.0802,2.0745,2.0623,2.0651,2.0651,2.0565,2.0457,2.0313,2.0285,2.0191,2.0176,2.0104,2.0018,1.9917,1.9888,1.9859,1.9786,1.9729,1.9605,2.8824,2.8594,2.8394,2.8301,2.8301,2.8301,2.8301,2.8301,2.8301,2.8525,2.8916,2.9379,2.9911,3.0366,3.0766,3.0893,3.0913,3.0913,3.0913,3.0913,3.0913,3.0913,3.0913,3.0913,3.0913,3.0913,3.0913,3.0913,3.0913,3.0913,3.0913,3.0913,3.0913,3.0913,3.0913,3.0913,3.0874,3.0713,3.0728,3.0587,3.0289,2.977,2.9569,2.9638,3.0157,3.0157,2.9721,2.8029,2.7187,2.6042,2.4548,2.3534,2.3106,2.3106,2.3106,2.3106,2.3106,2.3106,2.3106,2.3106,2.3106,2.3106,2.3106,2.3106,2.3106,2.3106,2.3106,2.3106,2.3106,2.3106,2.3106,2.3106,2.3106,2.3106,2.3106,2.3106,2.3106,2.3106,2.3025,2.2871,2.2762,2.2659,2.2548,2.2248,2.1932,2.1756,2.1786,2.1744,2.1597,2.1693,2.1781,2.1781,2.1752,2.1482,2.1321,2.127,2.1126,2.1096,2.1067,2.0974,2.0981,2.1075,2.096,2.0709,2.0486,2.0349,2.0357,2.0493,2.0328,2.0234,2.0213,2.0184,2.0097,2.0003,1.9888]}]]